[[{"header":{"parameterUnit":"m.s-1","parameterCategory":1,"la1":31.0,"la2":29.5877,"lo1":-88.7671,"lo2":-86.6584,"dy":0.0162,"dx":0.0185,"nx":115,"ny":88,"refTime":"2026-02-19T00:00:00:Z","depth":0,"parameterNumber":2,"parameterNumberName":"U-component_of_WINDS"},"data":[0.0,0.0,0.0,0.0,0.0,0.0,0.0,0.0,0.0,0.0,0.0,0.0,0.0,0.0,0.0,0.0,0.0,0.0,0.0,0.0,0.0,0.0,0.0,0.0,0.0,0.0,0.0,0.0,0.0,0.0,0.0,0.0,0.0,0.0,0.0,0.0,0.0,0.0,0.0,0.0,0.0,0.0,0.0,0.0,0.0,0.0,0.0,0.0,0.0,0.0,0.0,0.0,0.0,0.0,0.0,0.0,0.0,0.0,0.0,0.0,0.0,0.0,0.0,0.0,0.0,0.0,0.0,0.0,0.0,0.0,0.0,0.0,0.0,0.0,0.0,0.0,0.0,0.0,0.0,0.0,0.0,0.0,0.0,0.0,0.0,0.0,0.0,0.0,0.0,0.0,0.0,0.0,0.0,0.0,0.0,0.0,0.0,0.0,0.0,0.0,0.0,0.0,0.0,0.0,0.0,0.0,0.0,0.0,0.0,0.0,0.0,0.0,0.0,0.0,0.0,0.0,0.0,0.0,0.0,0.0,0.0,0.0,0.0,0.0,0.0,0.0,0.0,0.0,0.0,0.0,0.0,0.0,0.0,0.0,0.0,0.0,0.0,0.0,0.0,0.0,0.0,0.0,0.0,0.0,0.0,0.0,0.0,0.0,0.0,0.0,0.0,0.0,0.0,0.0,0.0,0.0,0.0,0.0,0.0,0.0,0.0,0.0,0.0,0.0,0.0,0.0,0.0,0.0,0.0,0.0,0.0,0.0,0.0,0.0,0.0,0.0,0.0,0.0,0.0,0.0,0.0,0.0,0.0,0.0,0.0,0.0,0.0,0.0,0.0,0.0,0.0,0.0,0.0,0.0,0.0,0.0,0.0,0.0,0.0,0.0,0.0,0.0,0.0,0.0,0.0,0.0,0.0,0.0,0.0,0.0,0.0,0.0,0.0,0.0,0.0,0.0,0.0,0.0,0.0,0.0,0.0,0.0,0.0,0.0,0.0,0.0,0.0,0.0,0.0,0.0,0.0,0.0,0.0,0.0,0.0,0.0,0.0,0.0,0.0,0.0,0.0,0.0,0.0,0.0,0.0,0.0,0.0,0.0,0.0,0.0,0.0,0.0,0.0,0.0,0.0,0.0,0.0,0.0,0.0,0.0,0.0,0.0,0.0,0.0,0.0,0.0,0.0,0.0,0.0,0.0,0.0,0.0,0.0,0.0,0.0,0.0,0.0,0.0,0.0,0.0,0.0,0.0,0.0,0.0,0.0,0.0,0.0,0.0,0.0,0.0,0.0,0.0,0.0,0.0,0.0,0.0,0.0,0.0,0.0,0.0,0.0,0.0,0.0,0.0,0.0,0.0,0.0,0.0,0.0,0.0,0.0,0.0,0.0,0.0,0.0,0.0,0.0,0.0,0.0,0.0,0.0,0.0,0.0,0.0,0.0,0.0,0.0,0.0,0.0,0.0,0.0,0.0,0.0,0.0,0.0,0.0,0.0,0.0,0.0,0.0,0.0,0.0,0.0,0.0,0.0,0.0,0.0,0.0,0.0,0.0,0.0,0.0,0.0,0.0,0.0,0.0,0.0,0.0,0.0,0.0,0.0,0.0,0.0,0.0,0.0,0.0,0.0,0.0,0.0,0.0,0.0,0.0,0.0,0.0,0.0,0.0,0.0,0.0,0.0,0.0,0.0,0.0,0.0,0.0,0.0,0.0,0.0,0.0,0.0,0.0,0.0,0.0,0.0,0.0,0.0,0.0,0.0,0.0,0.0,0.0,0.0,0.0,0.0,0.0,0.0,0.0,0.0,0.0,0.0,0.0,0.0,0.0,0.0,0.0,0.0,0.0,0.0,0.0,0.0,0.0,0.0,0.0,0.0,0.0,0.0,0.0,0.0,0.0,0.0,0.0,0.0,0.0,0.0,0.0,0.0,0.0,0.0,0.0,0.0,0.0,0.0,0.0,0.0,0.0,0.0,0.0,0.0,0.0,0.0,0.0,0.0,0.0,0.0,0.0,0.0,0.0,0.0,0.0,0.0,0.0,0.0,0.0,0.0,0.0,0.0,0.0,0.0,0.0,0.0,0.0,0.0,0.0,0.0,0.0,0.0,0.0,0.0,0.0,0.0,0.0,0.0,0.0,0.0,0.0,0.0,0.0,0.0,0.0,0.0,0.0,0.0,0.0,0.0,0.0,0.0,0.0,0.0,0.0,0.0,0.0,0.0,0.0,0.0,0.0,0.0,0.0,0.0,0.0,0.0,0.0,0.0,0.0,0.0,0.0,0.0,0.0,0.0,0.0,0.0,0.0,0.0,0.0,0.0,0.0,0.0,0.0,0.0,0.0,0.0,0.0,0.0,0.0,0.0,0.0,0.0,0.0,0.0,0.0,0.0,0.0,0.0,0.0,0.0,0.0,0.0,0.0,0.0,0.0,0.0,0.0,0.0,0.0,0.0,0.0,0.0,0.0,0.0,0.0,0.0,0.0,0.0,0.0,0.0,0.0,0.0,0.0,0.0,0.0,0.0,0.0,0.0,0.0,0.0,0.0,0.0,0.0,0.0,0.0,0.0,0.0,0.0,0.0,0.0,0.0,0.0,0.0,0.0,0.0,0.0,0.0,0.0,0.0,0.0,0.0,0.0,0.0,0.0,0.0,0.0,0.0,0.0,0.0,0.0,0.0,0.0,0.0,0.0,0.0,0.0,0.0,0.0,0.0,0.0,0.0,0.0,0.0,0.0,0.0,0.0,0.0,0.0,0.0,0.0,0.0,0.0,0.0,0.0,0.0,0.0,0.0,0.0,0.0,0.0,0.0,0.0,0.0,0.0,0.0,0.0,0.0,0.0,0.0,0.0,0.0,0.0,0.0,0.0,0.0,0.0,0.0,0.0,0.0,0.0,0.0,0.0,0.0,0.0,0.0,0.0,0.0,0.0,0.0,0.0,0.0,0.0,0.0,0.0,0.0,0.0,0.0,0.0,0.0,0.0,0.0,0.0,0.0,0.0,0.0,0.0,0.0,0.0,0.0,0.0,0.0,0.0,0.0,0.0,0.0,0.0,0.0,0.0,0.0,0.0,0.0,0.0,0.0,0.0,0.0,0.0,0.0,0.0,0.0,0.0,0.0,0.0,0.0,0.0,0.0,0.0,0.0,0.0,0.0,0.0,0.0,0.0,0.0,0.0,0.0,0.0,0.0,0.0,0.0,0.0,0.0,0.0,0.0,0.0,0.0,0.0,0.0,0.0,0.0,0.0,0.0,0.0,0.0,0.0,0.0,0.0,0.0,0.0,0.0,0.0,0.0,0.0,0.0,0.0,0.0,0.0,0.0,0.0,0.0,0.0,0.0,0.0,0.0,0.0,0.0,0.0,0.0,0.0,0.0,0.0,0.0,0.0,0.0,0.0,0.0,0.0,0.0,0.0,0.0,0.0,0.0,0.0,0.0,0.0,0.0,0.0,0.0,0.0,0.0,0.0,0.0,0.0,0.0,0.0,0.0,0.0,0.0,0.0,0.0,0.0,0.0,0.0,0.0,0.0,0.0,0.0,0.0,0.0,0.0,0.0,0.0,0.0,0.0,0.0,0.0,0.0,0.0,0.0,0.0,0.0,0.0,0.0,0.0,0.0,0.0,0.0,0.0,0.0,0.0,0.0,0.0,0.0,0.0,0.0,0.0,0.0,0.0,0.0,0.0,0.0,0.0,0.0,0.0,0.0,0.0,0.0,0.0,0.0,0.0,0.0,0.0,0.0,0.0,0.0,0.0,0.0,0.0,0.0,0.0,0.0,0.0,0.0,0.0,0.0,0.0,0.0,0.0,0.0,0.0,0.0,0.0,0.0,0.0,0.0,0.0,0.0,0.0,0.0,0.0,0.0,0.0,0.0,0.0,0.0,0.0,0.0,0.0,0.0,0.0,0.0,0.0,0.0,0.0,0.0,0.0,0.0,0.0,0.0,0.0,0.0,0.0,0.0,0.0,0.0,0.0,0.0,0.0,0.0,0.0,0.0,0.0,0.0,0.0,0.0,0.0,0.0,0.0,0.0,0.0,0.0,0.0,0.0,0.0,0.0,0.0,0.0,0.0,0.0,0.0,0.0,0.0,0.0,0.0,0.0,0.0,0.0,0.0,0.0,0.0,0.0,0.0,0.0,0.0,0.0,0.0,0.0,0.0,0.0,0.0,0.0,0.0,0.0,0.0,0.0,0.0,0.0,0.0,0.0,0.0,0.0,0.0,0.0,0.0,0.0,0.0,0.0,0.0,0.0,0.0,0.0,0.0,0.0,0.0,-2.1545,0.0,0.0,0.0,0.0,0.0,0.0,0.0,0.0,0.0,0.0,0.0,0.0,0.0,0.0,0.0,0.0,0.0,0.0,0.0,0.0,0.0,0.0,0.0,0.0,0.0,0.0,0.0,0.0,0.0,0.0,0.0,0.0,0.0,0.0,0.0,0.0,0.0,0.0,0.0,0.0,0.0,0.0,0.0,0.0,0.0,0.0,0.0,0.0,0.0,0.0,0.0,0.0,0.0,0.0,0.0,0.0,0.0,0.0,0.0,0.0,0.0,0.0,0.0,0.0,0.0,0.0,0.0,0.0,0.0,0.0,0.0,0.0,0.0,0.0,0.0,0.0,0.0,0.0,0.0,0.0,0.0,0.0,0.0,0.0,0.0,0.0,0.0,0.0,0.0,0.0,0.0,0.0,0.0,0.0,0.0,0.0,0.0,0.0,0.0,0.0,0.0,0.0,0.0,0.0,0.0,0.0,0.0,0.0,0.0,0.0,-2.2143,-2.3062,-2.2194,-2.1695,-2.1665,0.0,0.0,0.0,0.0,0.0,0.0,0.0,0.0,0.0,0.0,0.0,0.0,0.0,0.0,0.0,0.0,0.0,0.0,0.0,0.0,0.0,0.0,0.0,0.0,0.0,0.0,0.0,0.0,0.0,0.0,0.0,0.0,0.0,0.0,0.0,0.0,0.0,0.0,0.0,0.0,0.0,0.0,0.0,0.0,0.0,0.0,0.0,0.0,0.0,0.0,0.0,0.0,0.0,0.0,0.0,0.0,0.0,0.0,0.0,0.0,0.0,0.0,0.0,0.0,0.0,0.0,0.0,0.0,0.0,0.0,0.0,0.0,0.0,0.0,0.0,0.0,0.0,0.0,0.0,0.0,0.0,0.0,0.0,0.0,0.0,0.0,0.0,0.0,0.0,0.0,0.0,0.0,0.0,0.0,0.0,0.0,0.0,0.0,0.0,0.0,0.0,0.0,0.0,0.0,0.0,0.0,0.0,0.0,0.0,0.0,0.0,0.0,-2.2473,-2.2054,-2.1904,0.0,0.0,0.0,0.0,0.0,0.0,0.0,0.0,0.0,0.0,0.0,0.0,0.0,0.0,0.0,0.0,0.0,0.0,0.0,0.0,0.0,0.0,0.0,0.0,0.0,0.0,0.0,0.0,0.0,0.0,0.0,0.0,0.0,0.0,0.0,0.0,0.0,0.0,0.0,0.0,0.0,0.0,0.0,0.0,0.0,0.0,0.0,0.0,0.0,0.0,0.0,0.0,0.0,0.0,0.0,0.0,0.0,0.0,0.0,0.0,0.0,0.0,0.0,0.0,0.0,0.0,0.0,0.0,0.0,0.0,0.0,0.0,0.0,0.0,0.0,0.0,0.0,0.0,0.0,0.0,0.0,0.0,0.0,0.0,0.0,0.0,0.0,0.0,0.0,0.0,0.0,0.0,0.0,0.0,0.0,0.0,0.0,0.0,0.0,0.0,0.0,0.0,0.0,0.0,0.0,0.0,0.0,0.0,0.0,0.0,-2.1325,-2.4298,-2.3774,0.0,-2.2643,0.0,0.0,0.0,0.0,0.0,0.0,0.0,0.0,0.0,0.0,0.0,0.0,0.0,0.0,0.0,0.0,0.0,0.0,0.0,0.0,0.0,0.0,0.0,0.0,0.0,0.0,0.0,0.0,0.0,0.0,0.0,0.0,0.0,0.0,0.0,0.0,0.0,0.0,0.0,0.0,0.0,0.0,0.0,0.0,0.0,0.0,0.0,0.0,0.0,0.0,0.0,0.0,0.0,0.0,0.0,0.0,0.0,0.0,0.0,0.0,0.0,0.0,0.0,0.0,0.0,0.0,0.0,0.0,0.0,0.0,0.0,0.0,0.0,0.0,0.0,0.0,0.0,0.0,0.0,0.0,0.0,0.0,0.0,0.0,0.0,0.0,0.0,0.0,0.0,0.0,0.0,0.0,0.0,0.0,0.0,0.0,0.0,0.0,0.0,0.0,0.0,0.0,0.0,0.0,0.0,0.0,0.0,0.0,0.0,0.0,-2.4263,-2.4014,-2.3744,-2.3332,0.0,0.0,0.0,0.0,0.0,0.0,0.0,0.0,0.0,0.0,0.0,0.0,0.0,0.0,0.0,0.0,0.0,0.0,0.0,0.0,0.0,0.0,0.0,0.0,0.0,0.0,0.0,0.0,0.0,0.0,0.0,0.0,0.0,0.0,0.0,0.0,0.0,0.0,0.0,0.0,0.0,0.0,0.0,0.0,0.0,0.0,0.0,0.0,0.0,0.0,0.0,0.0,0.0,0.0,0.0,0.0,0.0,0.0,0.0,0.0,0.0,0.0,0.0,0.0,0.0,0.0,0.0,0.0,0.0,0.0,0.0,0.0,0.0,0.0,0.0,0.0,0.0,0.0,0.0,0.0,0.0,0.0,0.0,0.0,0.0,0.0,0.0,0.0,0.0,0.0,0.0,0.0,0.0,0.0,0.0,0.0,0.0,0.0,0.0,0.0,0.0,0.0,0.0,0.0,0.0,0.0,0.0,0.0,0.0,0.0,-2.5088,-2.6131,-2.4289,-2.4148,-2.3684,-2.2753,0.0,0.0,0.0,0.0,0.0,0.0,0.0,0.0,0.0,0.0,0.0,0.0,0.0,0.0,0.0,0.0,0.0,0.0,0.0,0.0,0.0,0.0,0.0,0.0,0.0,0.0,0.0,0.0,0.0,0.0,0.0,0.0,0.0,0.0,0.0,0.0,0.0,0.0,0.0,0.0,0.0,0.0,0.0,0.0,0.0,0.0,0.0,0.0,0.0,0.0,0.0,0.0,0.0,0.0,0.0,0.0,0.0,0.0,0.0,0.0,0.0,0.0,0.0,0.0,0.0,0.0,0.0,0.0,0.0,0.0,0.0,0.0,0.0,0.0,0.0,0.0,0.0,0.0,0.0,0.0,0.0,0.0,0.0,0.0,0.0,0.0,0.0,0.0,0.0,0.0,0.0,0.0,0.0,0.0,0.0,0.0,0.0,0.0,0.0,0.0,0.0,0.0,0.0,0.0,0.0,0.0,0.0,0.0,-2.5031,-2.5506,-2.5626,-2.5533,-2.5525,-2.4627,0.0,0.0,0.0,0.0,0.0,0.0,0.0,0.0,0.0,0.0,0.0,0.0,0.0,0.0,0.0,0.0,0.0,0.0,0.0,0.0,0.0,0.0,0.0,0.0,0.0,0.0,0.0,0.0,0.0,0.0,0.0,0.0,0.0,0.0,0.0,0.0,0.0,0.0,0.0,0.0,0.0,0.0,0.0,0.0,0.0,0.0,0.0,0.0,0.0,0.0,0.0,0.0,0.0,0.0,0.0,0.0,0.0,0.0,0.0,0.0,0.0,0.0,0.0,0.0,0.0,0.0,0.0,0.0,0.0,0.0,0.0,0.0,0.0,0.0,0.0,0.0,0.0,0.0,0.0,0.0,0.0,0.0,0.0,0.0,0.0,0.0,0.0,0.0,0.0,0.0,0.0,0.0,0.0,0.0,0.0,0.0,0.0,0.0,0.0,0.0,0.0,0.0,0.0,0.0,0.0,0.0,0.0,0.0,0.0,-2.1789,-2.3061,-2.497,-2.7305,-2.5076,-2.3984,0.0,0.0,0.0,0.0,0.0,0.0,0.0,0.0,0.0,0.0,0.0,0.0,0.0,0.0,0.0,0.0,0.0,0.0,0.0,0.0,0.0,0.0,0.0,0.0,0.0,0.0,0.0,0.0,0.0,0.0,0.0,0.0,0.0,0.0,0.0,0.0,0.0,0.0,0.0,0.0,0.0,0.0,0.0,0.0,0.0,0.0,0.0,0.0,0.0,0.0,0.0,0.0,0.0,0.0,0.0,0.0,0.0,0.0,0.0,0.0,0.0,0.0,0.0,0.0,0.0,0.0,0.0,0.0,0.0,0.0,0.0,0.0,0.0,0.0,0.0,0.0,0.0,0.0,0.0,0.0,0.0,0.0,0.0,0.0,0.0,0.0,0.0,0.0,0.0,0.0,0.0,0.0,0.0,0.0,0.0,0.0,0.0,0.0,0.0,0.0,0.0,0.0,0.0,0.0,0.0,0.0,0.0,0.0,0.0,-2.2208,0.0,-2.5383,-2.738,-2.4837,-2.3445,0.0,0.0,0.0,0.0,0.0,0.0,0.0,0.0,0.0,0.0,0.0,0.0,0.0,0.0,0.0,0.0,0.0,0.0,0.0,0.0,0.0,0.0,0.0,0.0,0.0,0.0,0.0,0.0,0.0,0.0,0.0,0.0,0.0,0.0,0.0,0.0,0.0,0.0,0.0,0.0,0.0,0.0,0.0,0.0,0.0,0.0,0.0,0.0,0.0,0.0,0.0,0.0,0.0,0.0,0.0,0.0,0.0,0.0,0.0,0.0,0.0,0.0,0.0,0.0,0.0,0.0,0.0,0.0,0.0,0.0,0.0,0.0,0.0,0.0,0.0,0.0,0.0,0.0,0.0,0.0,0.0,0.0,0.0,0.0,0.0,0.0,0.0,0.0,0.0,0.0,0.0,0.0,0.0,0.0,0.0,0.0,0.0,0.0,0.0,0.0,0.0,0.0,0.0,0.0,0.0,0.0,0.0,0.0,-2.2253,-2.7142,-2.7376,-2.6821,-2.5719,-2.4903,-2.305,0.0,0.0,0.0,0.0,0.0,0.0,0.0,0.0,0.0,0.0,0.0,0.0,0.0,0.0,0.0,0.0,0.0,0.0,0.0,0.0,0.0,0.0,0.0,0.0,0.0,0.0,0.0,0.0,0.0,0.0,0.0,0.0,0.0,0.0,0.0,0.0,0.0,0.0,0.0,0.0,0.0,0.0,0.0,0.0,0.0,0.0,0.0,0.0,0.0,0.0,0.0,0.0,0.0,0.0,0.0,0.0,0.0,0.0,0.0,0.0,0.0,0.0,0.0,0.0,0.0,0.0,0.0,0.0,0.0,0.0,0.0,0.0,0.0,0.0,0.0,0.0,0.0,0.0,0.0,0.0,0.0,0.0,0.0,0.0,0.0,0.0,0.0,0.0,0.0,0.0,0.0,0.0,0.0,0.0,0.0,0.0,0.0,0.0,0.0,0.0,0.0,0.0,0.0,0.0,0.0,0.0,0.0,0.0,0.0,-2.3939,-2.4972,-2.6228,-2.7485,-2.4358,-2.3191,0.0,0.0,0.0,0.0,0.0,0.0,0.0,0.0,0.0,0.0,0.0,0.0,0.0,0.0,0.0,0.0,0.0,0.0,0.0,0.0,0.0,0.0,0.0,0.0,0.0,0.0,0.0,0.0,0.0,0.0,0.0,0.0,0.0,0.0,0.0,0.0,0.0,0.0,0.0,0.0,0.0,0.0,0.0,0.0,0.0,0.0,0.0,0.0,0.0,0.0,0.0,0.0,0.0,0.0,0.0,0.0,0.0,0.0,0.0,0.0,0.0,0.0,0.0,0.0,0.0,0.0,0.0,0.0,0.0,0.0,0.0,0.0,0.0,0.0,0.0,0.0,0.0,0.0,0.0,0.0,0.0,0.0,0.0,0.0,0.0,0.0,0.0,0.0,0.0,0.0,0.0,0.0,0.0,0.0,0.0,0.0,0.0,0.0,0.0,0.0,0.0,0.0,0.0,0.0,0.0,0.0,0.0,0.0,0.0,-2.4732,-2.6297,-2.7609,-2.8577,-2.5061,-2.3655,-2.4642,0.0,0.0,0.0,0.0,0.0,0.0,0.0,0.0,0.0,0.0,0.0,0.0,0.0,0.0,0.0,0.0,0.0,0.0,0.0,0.0,0.0,0.0,0.0,0.0,0.0,0.0,0.0,0.0,0.0,0.0,0.0,0.0,0.0,0.0,0.0,0.0,0.0,0.0,0.0,0.0,0.0,0.0,0.0,0.0,0.0,0.0,0.0,0.0,0.0,0.0,0.0,0.0,0.0,0.0,0.0,0.0,0.0,0.0,0.0,0.0,0.0,0.0,0.0,0.0,0.0,0.0,0.0,0.0,0.0,0.0,0.0,0.0,0.0,0.0,0.0,0.0,0.0,0.0,0.0,0.0,0.0,0.0,0.0,0.0,0.0,0.0,0.0,0.0,0.0,0.0,0.0,0.0,0.0,0.0,0.0,0.0,0.0,0.0,0.0,0.0,0.0,0.0,0.0,0.0,0.0,0.0,0.0,0.0,-2.8697,-3.0673,-3.0793,-2.8966,-2.6841,-2.4537,0.0,0.0,0.0,0.0,0.0,0.0,0.0,0.0,0.0,0.0,0.0,0.0,0.0,0.0,0.0,0.0,0.0,0.0,0.0,0.0,0.0,0.0,0.0,0.0,0.0,0.0,0.0,0.0,0.0,0.0,0.0,0.0,0.0,0.0,0.0,0.0,0.0,0.0,0.0,0.0,0.0,0.0,0.0,0.0,0.0,0.0,0.0,0.0,0.0,0.0,0.0,0.0,0.0,0.0,0.0,0.0,0.0,0.0,0.0,0.0,0.0,0.0,0.0,0.0,0.0,0.0,0.0,0.0,0.0,0.0,0.0,0.0,0.0,0.0,0.0,0.0,0.0,0.0,0.0,0.0,0.0,0.0,0.0,0.0,0.0,0.0,0.0,0.0,0.0,0.0,0.0,0.0,0.0,0.0,0.0,0.0,0.0,0.0,0.0,0.0,0.0,0.0,0.0,0.0,0.0,0.0,0.0,0.0,0.0,-2.9998,-3.2916,-3.3754,-3.2198,-2.8888,-2.6537,0.0,0.0,0.0,0.0,0.0,0.0,0.0,0.0,0.0,0.0,0.0,0.0,0.0,0.0,0.0,0.0,0.0,0.0,0.0,0.0,0.0,0.0,0.0,0.0,0.0,0.0,0.0,0.0,0.0,0.0,0.0,0.0,0.0,0.0,0.0,0.0,0.0,0.0,0.0,0.0,0.0,0.0,0.0,0.0,0.0,0.0,0.0,0.0,0.0,0.0,0.0,0.0,0.0,0.0,0.0,0.0,0.0,0.0,0.0,0.0,0.0,0.0,0.0,0.0,0.0,0.0,0.0,0.0,0.0,0.0,0.0,0.0,0.0,0.0,0.0,0.0,0.0,0.0,0.0,0.0,0.0,0.0,0.0,0.0,0.0,0.0,0.0,0.0,0.0,0.0,0.0,0.0,0.0,0.0,0.0,0.0,0.0,0.0,0.0,0.0,0.0,0.0,0.0,0.0,0.0,0.0,0.0,0.0,-2.8723,-3.2137,-3.4876,-3.5938,-3.5145,-3.1569,-2.8547,0.0,0.0,0.0,0.0,0.0,0.0,0.0,0.0,0.0,0.0,0.0,0.0,0.0,0.0,0.0,0.0,0.0,0.0,0.0,0.0,0.0,0.0,0.0,0.0,0.0,0.0,0.0,0.0,0.0,0.0,0.0,0.0,0.0,0.0,0.0,0.0,0.0,0.0,0.0,0.0,0.0,0.0,0.0,0.0,0.0,0.0,0.0,0.0,0.0,0.0,0.0,0.0,0.0,0.0,0.0,0.0,0.0,0.0,0.0,0.0,0.0,0.0,0.0,0.0,0.0,0.0,0.0,0.0,0.0,0.0,0.0,0.0,0.0,0.0,0.0,0.0,0.0,0.0,0.0,0.0,0.0,0.0,0.0,0.0,0.0,0.0,0.0,0.0,0.0,0.0,0.0,0.0,0.0,0.0,0.0,0.0,0.0,0.0,0.0,0.0,0.0,0.0,0.0,0.0,0.0,0.0,0.0,0.0,-2.9951,-3.4294,-3.6432,-3.7479,-3.733,-3.4292,-3.0507,0.0,0.0,0.0,0.0,0.0,0.0,0.0,0.0,0.0,0.0,0.0,0.0,0.0,0.0,0.0,0.0,0.0,0.0,0.0,0.0,0.0,0.0,0.0,0.0,0.0,0.0,0.0,0.0,0.0,0.0,0.0,0.0,0.0,0.0,0.0,0.0,0.0,0.0,0.0,0.0,0.0,0.0,0.0,0.0,0.0,0.0,0.0,0.0,0.0,0.0,0.0,0.0,0.0,0.0,0.0,0.0,0.0,0.0,0.0,0.0,0.0,0.0,0.0,0.0,0.0,0.0,0.0,0.0,0.0,0.0,0.0,0.0,0.0,0.0,0.0,0.0,0.0,0.0,0.0,0.0,0.0,0.0,0.0,0.0,0.0,0.0,0.0,0.0,0.0,0.0,0.0,0.0,0.0,0.0,0.0,0.0,0.0,0.0,0.0,0.0,0.0,0.0,0.0,0.0,0.0,0.0,0.0,0.0,-3.0627,-3.3664,-3.6641,-3.7928,-3.7404,-3.4726,-3.1614,0.0,0.0,0.0,0.0,0.0,0.0,0.0,0.0,0.0,0.0,0.0,0.0,0.0,0.0,0.0,0.0,0.0,0.0,0.0,0.0,0.0,0.0,0.0,0.0,0.0,0.0,0.0,0.0,0.0,0.0,0.0,0.0,0.0,0.0,0.0,0.0,0.0,0.0,0.0,0.0,0.0,0.0,0.0,0.0,0.0,0.0,0.0,0.0,-1.8869,0.0,0.0,0.0,0.0,0.0,0.0,0.0,0.0,0.0,0.0,0.0,0.0,0.0,0.0,0.0,0.0,0.0,0.0,0.0,0.0,0.0,0.0,0.0,0.0,0.0,0.0,0.0,0.0,0.0,0.0,0.0,0.0,0.0,0.0,0.0,0.0,0.0,0.0,0.0,0.0,0.0,0.0,0.0,0.0,0.0,0.0,0.0,0.0,0.0,0.0,0.0,0.0,0.0,0.0,0.0,0.0,0.0,0.0,0.0,-3.1599,-3.4816,-3.718,-3.8227,-3.7808,-3.5639,-3.2602,0.0,0.0,0.0,0.0,0.0,0.0,0.0,0.0,0.0,0.0,0.0,0.0,0.0,0.0,0.0,0.0,0.0,0.0,0.0,0.0,0.0,0.0,0.0,0.0,0.0,0.0,0.0,0.0,0.0,0.0,0.0,0.0,0.0,0.0,0.0,0.0,0.0,0.0,0.0,0.0,0.0,0.0,0.0,0.0,0.0,0.0,0.0,0.0,0.0,0.0,0.0,0.0,0.0,0.0,0.0,0.0,0.0,0.0,0.0,0.0,0.0,0.0,0.0,0.0,0.0,0.0,0.0,0.0,0.0,0.0,0.0,0.0,0.0,0.0,0.0,0.0,0.0,0.0,0.0,0.0,0.0,0.0,0.0,0.0,0.0,0.0,0.0,0.0,0.0,0.0,0.0,0.0,0.0,0.0,0.0,0.0,0.0,0.0,0.0,0.0,0.0,0.0,0.0,0.0,0.0,0.0,0.0,-2.925,-3.2302,-3.6178,-3.7584,-3.8197,-3.8078,-3.6312,-3.323,-2.8801,0.0,0.0,0.0,0.0,0.0,0.0,0.0,0.0,0.0,0.0,0.0,0.0,0.0,0.0,0.0,0.0,0.0,0.0,0.0,0.0,0.0,0.0,0.0,0.0,0.0,0.0,0.0,0.0,0.0,0.0,0.0,0.0,0.0,0.0,0.0,0.0,0.0,0.0,-1.719,-1.8293,0.0,0.0,0.0,0.0,0.0,0.0,0.0,0.0,-1.9647,0.0,0.0,0.0,0.0,0.0,0.0,0.0,0.0,0.0,0.0,0.0,0.0,0.0,0.0,0.0,0.0,0.0,0.0,0.0,0.0,0.0,0.0,0.0,0.0,0.0,0.0,0.0,0.0,0.0,0.0,0.0,0.0,0.0,0.0,0.0,0.0,0.0,0.0,0.0,0.0,0.0,0.0,0.0,0.0,0.0,0.0,0.0,0.0,0.0,0.0,0.0,0.0,0.0,0.0,0.0,0.0,-2.9022,-2.9547,-3.1688,-3.5564,-3.6911,-3.733,-3.6825,-3.5432,-3.2736,-2.8816,0.0,0.0,0.0,0.0,0.0,0.0,0.0,0.0,0.0,0.0,0.0,0.0,0.0,0.0,0.0,0.0,0.0,0.0,0.0,0.0,0.0,0.0,0.0,0.0,0.0,0.0,0.0,0.0,0.0,0.0,0.0,0.0,0.0,0.0,0.0,0.0,0.0,0.0,0.0,-2.2046,-2.3037,0.0,0.0,0.0,0.0,0.0,0.0,0.0,0.0,-2.0347,0.0,0.0,0.0,0.0,0.0,0.0,0.0,0.0,0.0,0.0,0.0,0.0,0.0,0.0,0.0,0.0,0.0,0.0,0.0,0.0,0.0,0.0,0.0,0.0,0.0,0.0,0.0,0.0,0.0,0.0,0.0,0.0,0.0,0.0,0.0,0.0,0.0,0.0,0.0,0.0,0.0,0.0,0.0,0.0,0.0,0.0,0.0,0.0,0.0,0.0,0.0,0.0,0.0,0.0,0.0,-2.8423,-3.0595,-3.3036,-3.5908,-3.6926,-3.7105,-3.6462,-3.4188,-3.1569,0.0,0.0,0.0,0.0,0.0,0.0,0.0,0.0,0.0,0.0,0.0,0.0,0.0,0.0,0.0,0.0,0.0,0.0,0.0,0.0,0.0,0.0,0.0,0.0,0.0,0.0,0.0,0.0,0.0,0.0,0.0,0.0,0.0,0.0,0.0,0.0,0.0,0.0,0.0,0.0,-2.3208,-2.4036,-2.5511,0.0,0.0,0.0,0.0,0.0,0.0,-2.0928,-2.0676,0.0,0.0,0.0,0.0,0.0,0.0,0.0,0.0,0.0,0.0,0.0,0.0,0.0,0.0,0.0,0.0,0.0,0.0,0.0,0.0,0.0,0.0,0.0,0.0,0.0,0.0,0.0,0.0,0.0,0.0,0.0,0.0,0.0,0.0,0.0,0.0,0.0,0.0,0.0,0.0,0.0,0.0,0.0,0.0,0.0,0.0,0.0,0.0,0.0,0.0,0.0,0.0,0.0,0.0,0.0,-2.7615,-3.1076,-3.3993,-3.6178,-3.6761,-3.6791,-3.6252,-3.3455,-3.0793,0.0,0.0,0.0,0.0,0.0,0.0,0.0,0.0,0.0,0.0,0.0,0.0,0.0,0.0,0.0,0.0,0.0,0.0,0.0,0.0,0.0,0.0,0.0,0.0,0.0,0.0,0.0,0.0,0.0,0.0,0.0,0.0,0.0,0.0,0.0,0.0,0.0,0.0,0.0,0.0,0.0,-2.5039,-2.7118,-2.5227,0.0,0.0,0.0,0.0,-2.2297,-2.2263,0.0,0.0,0.0,0.0,0.0,0.0,0.0,0.0,0.0,0.0,0.0,0.0,0.0,0.0,0.0,0.0,0.0,0.0,0.0,0.0,0.0,0.0,0.0,0.0,0.0,0.0,0.0,0.0,0.0,0.0,0.0,0.0,0.0,0.0,0.0,0.0,0.0,0.0,0.0,0.0,0.0,0.0,0.0,0.0,0.0,0.0,0.0,0.0,0.0,0.0,0.0,0.0,0.0,0.0,0.0,0.0,-2.751,-2.9729,-3.2422,-3.5429,-3.5684,-3.5684,-3.5594,-3.4083,-3.1538,0.0,0.0,0.0,0.0,0.0,0.0,0.0,0.0,0.0,0.0,0.0,0.0,0.0,0.0,0.0,0.0,0.0,0.0,0.0,0.0,0.0,0.0,0.0,0.0,0.0,0.0,0.0,0.0,0.0,0.0,0.0,0.0,0.0,0.0,0.0,0.0,0.0,0.0,0.0,0.0,0.0,-2.7471,-2.5485,-2.5272,-2.4933,0.0,0.0,-2.4594,-2.5046,-2.6314,0.0,0.0,0.0,0.0,0.0,0.0,0.0,0.0,0.0,0.0,0.0,0.0,0.0,0.0,0.0,0.0,0.0,0.0,0.0,0.0,0.0,0.0,0.0,0.0,0.0,0.0,0.0,0.0,0.0,0.0,0.0,0.0,0.0,0.0,0.0,0.0,0.0,0.0,0.0,0.0,0.0,0.0,0.0,0.0,0.0,0.0,0.0,0.0,0.0,0.0,0.0,0.0,0.0,0.0,0.0,-2.4732,-2.7585,-3.0655,-3.326,-3.54,-3.5489,-3.531,-3.4921,-3.2587,-2.9966,0.0,0.0,0.0,0.0,0.0,0.0,0.0,0.0,0.0,0.0,0.0,0.0,0.0,0.0,0.0,0.0,0.0,0.0,0.0,0.0,0.0,0.0,0.0,0.0,0.0,0.0,0.0,0.0,0.0,0.0,0.0,0.0,0.0,0.0,0.0,0.0,0.0,0.0,0.0,0.0,0.0,0.0,-2.757,-2.7281,0.0,0.0,0.0,-2.6553,-2.6172,0.0,0.0,0.0,0.0,0.0,0.0,0.0,0.0,0.0,0.0,0.0,0.0,0.0,0.0,0.0,0.0,0.0,0.0,0.0,0.0,0.0,0.0,0.0,0.0,0.0,0.0,0.0,0.0,0.0,0.0,0.0,0.0,0.0,0.0,0.0,0.0,0.0,0.0,0.0,0.0,0.0,0.0,0.0,0.0,0.0,0.0,0.0,0.0,0.0,0.0,0.0,0.0,0.0,0.0,0.0,0.0,0.0,-2.7615,-3.1315,-3.3978,-3.5429,-3.5489,-3.5175,-3.4488,-3.1808,0.0,0.0,0.0,0.0,0.0,0.0,0.0,0.0,0.0,0.0,0.0,0.0,0.0,0.0,0.0,0.0,0.0,0.0,0.0,0.0,0.0,0.0,0.0,0.0,0.0,0.0,0.0,-1.3772,0.0,0.0,0.0,0.0,0.0,0.0,0.0,0.0,0.0,0.0,0.0,0.0,0.0,0.0,-2.6578,-2.8662,-2.8712,-2.8574,0.0,0.0,-2.8247,-2.7467,-2.8222,-2.9034,0.0,0.0,0.0,0.0,0.0,0.0,0.0,0.0,0.0,0.0,0.0,0.0,0.0,0.0,0.0,0.0,0.0,0.0,0.0,0.0,0.0,0.0,0.0,0.0,0.0,0.0,0.0,0.0,0.0,0.0,0.0,0.0,0.0,0.0,0.0,0.0,0.0,0.0,0.0,0.0,0.0,0.0,0.0,0.0,0.0,0.0,0.0,0.0,0.0,0.0,0.0,0.0,0.0,0.0,0.0,-2.7585,-3.0881,-3.3544,-3.5415,-3.5489,-3.5175,-3.4503,-3.3066,-3.0492,0.0,0.0,0.0,0.0,0.0,0.0,0.0,0.0,0.0,0.0,0.0,0.0,0.0,0.0,0.0,0.0,0.0,0.0,0.0,0.0,0.0,0.0,0.0,0.0,0.0,0.0,0.0,0.0,0.0,0.0,0.0,0.0,0.0,0.0,0.0,0.0,0.0,0.0,0.0,0.0,0.0,-2.6499,-2.6688,-2.8398,-2.9867,0.0,0.0,-2.9654,-2.9578,-3.1725,-3.2286,-2.8796,0.0,0.0,0.0,0.0,0.0,0.0,0.0,0.0,0.0,0.0,0.0,0.0,0.0,0.0,0.0,0.0,0.0,0.0,0.0,0.0,0.0,0.0,0.0,0.0,0.0,0.0,0.0,0.0,0.0,0.0,0.0,0.0,0.0,0.0,0.0,0.0,0.0,0.0,0.0,0.0,0.0,0.0,0.0,0.0,0.0,0.0,0.0,0.0,0.0,0.0,0.0,0.0,0.0,-2.432,-2.7595,-3.0836,-3.3484,-3.54,-3.5489,-3.4981,-3.3903,-3.2587,-3.0016,0.0,0.0,0.0,0.0,0.0,0.0,0.0,0.0,0.0,0.0,0.0,0.0,0.0,0.0,0.0,0.0,0.0,0.0,0.0,0.0,0.0,0.0,0.0,0.0,0.0,0.0,0.0,0.0,-1.6986,-1.6974,-1.6283,0.0,0.0,0.0,0.0,0.0,0.0,0.0,0.0,0.0,0.0,-2.7102,-2.8775,-3.0018,0.0,0.0,-3.1424,-3.116,-3.0821,-3.1097,-3.1332,-3.1196,-2.6938,0.0,0.0,0.0,0.0,0.0,0.0,0.0,0.0,0.0,0.0,0.0,0.0,0.0,0.0,0.0,0.0,0.0,0.0,0.0,0.0,0.0,0.0,0.0,0.0,0.0,0.0,0.0,0.0,0.0,0.0,0.0,0.0,0.0,0.0,0.0,0.0,0.0,0.0,0.0,0.0,0.0,0.0,0.0,0.0,0.0,0.0,0.0,0.0,0.0,0.0,0.0,0.0,-2.3865,-2.6802,-3.0363,-3.3275,-3.5454,-3.5492,-3.4861,-3.3529,-3.2407,-3.0016,0.0,0.0,0.0,0.0,0.0,0.0,0.0,0.0,0.0,0.0,0.0,0.0,0.0,0.0,0.0,0.0,0.0,0.0,0.0,0.0,0.0,0.0,0.0,0.0,0.0,0.0,0.0,0.0,-1.7601,-1.7262,-1.6145,0.0,0.0,0.0,0.0,0.0,0.0,0.0,0.0,0.0,0.0,-2.763,-3.0018,-3.0959,-3.1524,-3.1913,-3.1687,-3.1361,-3.0972,-3.0419,-3.0277,-3.1012,0.0,0.0,0.0,0.0,0.0,0.0,0.0,0.0,0.0,0.0,0.0,0.0,0.0,0.0,0.0,0.0,0.0,0.0,0.0,0.0,0.0,0.0,0.0,0.0,0.0,0.0,0.0,0.0,0.0,0.0,-1.8702,0.0,0.0,0.0,0.0,0.0,0.0,0.0,0.0,0.0,0.0,0.0,0.0,0.0,0.0,0.0,0.0,0.0,0.0,0.0,0.0,0.0,0.0,-2.2844,-2.5097,-2.9334,-3.2811,-3.5393,-3.5469,-3.4831,-3.3514,-3.2841,-3.0911,-2.753,0.0,0.0,0.0,0.0,0.0,0.0,0.0,0.0,0.0,0.0,0.0,0.0,0.0,0.0,0.0,0.0,0.0,0.0,0.0,0.0,0.0,0.0,0.0,0.0,0.0,0.0,-1.5894,-1.6258,-1.617,0.0,0.0,0.0,0.0,0.0,0.0,0.0,0.0,0.0,0.0,-2.5184,-2.7883,-2.9591,-3.0721,-3.1411,-3.1436,-3.057,-2.988,-2.9905,-3.0244,-2.9668,0.0,0.0,0.0,0.0,0.0,0.0,0.0,0.0,0.0,0.0,0.0,0.0,0.0,0.0,0.0,0.0,0.0,0.0,0.0,0.0,0.0,0.0,0.0,0.0,0.0,0.0,0.0,-2.2054,-2.1684,0.0,0.0,0.0,0.0,0.0,0.0,0.0,0.0,0.0,0.0,0.0,-2.4328,-2.4971,0.0,0.0,0.0,0.0,0.0,0.0,0.0,0.0,0.0,0.0,0.0,0.0,-2.2799,-2.5053,-2.8702,-3.1942,-3.4514,-3.4648,-3.4057,-3.2871,-3.2213,-2.9686,-2.5155,0.0,0.0,0.0,0.0,0.0,0.0,0.0,0.0,0.0,0.0,0.0,0.0,0.0,0.0,0.0,0.0,0.0,0.0,0.0,0.0,0.0,0.0,0.0,0.0,0.0,-1.7033,0.0,0.0,0.0,0.0,0.0,0.0,0.0,0.0,0.0,0.0,0.0,-2.1405,-2.4142,-2.6741,-2.885,-3.0168,-3.0934,-3.1512,0.0,0.0,0.0,0.0,0.0,0.0,0.0,0.0,0.0,0.0,0.0,0.0,0.0,0.0,-2.7293,-2.3088,-2.1707,-2.1177,-2.1189,0.0,0.0,0.0,0.0,0.0,0.0,0.0,0.0,0.0,0.0,0.0,0.0,0.0,0.0,-2.3984,0.0,-2.3317,0.0,0.0,0.0,0.0,0.0,0.0,0.0,0.0,-2.589,-2.7101,-2.735,-2.7993,-2.7844,0.0,-2.6533,-2.4657,0.0,0.0,0.0,0.0,0.0,0.0,0.0,0.0,-2.3383,-2.5487,-2.8901,-3.1644,-3.3593,-3.3727,-3.3336,-3.2527,-3.1615,-2.924,-2.5209,-2.2886,-2.0877,0.0,0.0,0.0,0.0,0.0,0.0,0.0,0.0,0.0,0.0,0.0,0.0,0.0,0.0,0.0,0.0,0.0,0.0,0.0,0.0,0.0,0.0,0.0,-1.7322,0.0,0.0,0.0,0.0,0.0,0.0,0.0,0.0,0.0,-1.9083,-2.1154,-2.3514,-2.5862,-2.7946,-2.9503,-3.0231,0.0,0.0,0.0,0.0,0.0,0.0,0.0,-2.8344,-2.8944,-2.7535,-2.6624,-2.7589,-2.8869,-2.9603,-2.9001,0.0,0.0,-2.6176,-2.4845,-2.4393,-2.4537,-2.4575,-2.4872,-2.595,-2.638,-2.6971,0.0,0.0,0.0,0.0,0.0,0.0,0.0,0.0,-2.5356,-2.5561,0.0,-2.4717,0.0,0.0,0.0,0.0,0.0,-2.4822,0.0,0.0,-2.9911,-3.1167,-3.0642,-3.1212,-3.0911,-2.9861,-3.0881,-2.9762,-2.6527,-2.1575,0.0,0.0,0.0,0.0,0.0,0.0,-2.4507,-2.6361,-2.9689,-3.1854,-3.2721,-3.275,-3.2645,-3.2393,-3.1138,-2.9513,-2.7582,-2.6079,-2.3942,-2.0834,-1.8541,0.0,0.0,0.0,0.0,0.0,0.0,0.0,0.0,0.0,0.0,0.0,0.0,0.0,0.0,0.0,0.0,0.0,0.0,0.0,0.0,-1.7057,0.0,0.0,0.0,0.0,0.0,0.0,0.0,0.0,0.0,0.0,-2.1069,-2.3238,-2.5498,-2.7118,0.0,0.0,0.0,0.0,-3.0432,-2.9967,-2.939,-2.9026,-2.9063,-2.9465,-2.9324,-2.8023,0.0,0.0,-2.8524,-3.0005,-3.0922,-2.9352,-3.047,-3.1436,-3.1323,-2.944,-2.8273,-2.8675,-2.7996,-2.7546,-2.779,-2.8875,-2.9958,-3.1883,0.0,0.0,0.0,0.0,-2.8332,-2.9068,-3.0687,-2.9861,-2.925,-2.8708,-2.8154,0.0,0.0,0.0,0.0,0.0,0.0,-2.8079,-2.943,-3.0838,-3.1899,-3.2632,-3.2841,-3.2736,-3.2392,-3.2287,-3.1227,-2.9325,-2.6946,-2.3977,-2.0602,0.0,0.0,0.0,0.0,-2.5277,-2.7205,-2.9151,-3.0726,-3.1839,-3.1885,-3.1575,-3.0951,-3.009,-2.8655,-2.6579,-2.5307,-2.3607,-2.1355,-1.9501,0.0,0.0,0.0,0.0,0.0,0.0,0.0,0.0,0.0,0.0,0.0,0.0,0.0,0.0,0.0,0.0,0.0,0.0,0.0,-1.6422,-1.7383,-1.7752,0.0,0.0,0.0,0.0,0.0,0.0,0.0,0.0,0.0,-2.5292,-2.6063,-2.7055,0.0,0.0,-2.9779,-2.9779,-3.0269,-3.0696,-3.0896,-3.0783,0.0,0.0,-3.0444,-2.9916,-3.0246,-3.1101,-3.1574,-3.111,-3.1901,-3.2441,-3.1926,-3.2265,-3.2591,-3.2503,-3.1148,-3.003,-3.0068,-2.9854,-2.9928,-3.0703,-3.1257,-3.1691,-3.5615,-3.3873,-3.1664,-3.1163,-3.1832,-3.1468,-3.2205,-3.3649,-3.2991,-3.2407,-3.1884,-3.1375,-2.9953,-2.7893,-2.7141,0.0,0.0,0.0,-3.0058,-3.1704,-3.2392,-3.3275,-3.4262,-3.4307,-3.4143,-3.3873,-3.3484,-3.2736,-3.1674,-3.0387,-2.8113,-2.4874,0.0,0.0,-2.2691,-2.4747,-2.6632,-2.8364,-2.9697,-3.0741,-3.1496,-3.119,-3.0807,-3.0284,-2.9579,-2.8449,-2.691,-2.5665,-2.4262,-2.2673,-2.0927,-1.9333,0.0,0.0,0.0,0.0,0.0,0.0,0.0,0.0,0.0,0.0,0.0,-1.2592,-1.1472,0.0,0.0,0.0,-1.4911,-1.7208,-1.8077,-1.897,0.0,0.0,0.0,0.0,0.0,0.0,0.0,-2.2334,-2.4619,-2.6578,-2.7783,-2.8335,-2.8925,-2.9792,-3.0206,-3.0432,-3.0419,0.0,-3.1035,-3.1348,-3.1386,-3.1499,-3.1825,-3.1248,-3.106,-3.1926,-3.2328,-3.2541,-3.2566,-3.2855,-3.3111,-3.3124,-3.3124,-3.3124,-3.3124,-3.224,-3.1587,-3.1587,-3.1587,-3.1825,-3.2441,-3.2554,-3.2667,-3.8576,-3.8385,-3.5269,-3.4294,-3.4728,-3.4743,-3.507,-3.5594,-3.4981,-3.504,-3.5474,-3.4277,-3.3006,-3.163,-2.9819,0.0,-3.0056,-3.1225,-3.2407,-3.3679,-3.4324,-3.4891,-3.5489,-3.5489,-3.5175,-3.4562,-3.4593,-3.4218,-3.356,-3.2332,-3.1047,-2.9711,-2.6652,-2.5352,-2.5824,-2.7066,-2.8393,-2.9666,-3.0853,-3.1452,-3.1291,-3.0659,-3.021,-3.0001,-2.9247,-2.8473,-2.7728,-2.6573,-2.5423,-2.431,-2.2495,-2.106,-2.004,0.0,0.0,0.0,0.0,0.0,0.0,0.0,0.0,0.0,0.0,0.0,0.0,0.0,0.0,0.0,-1.6668,0.0,-2.0644,-2.1194,0.0,0.0,0.0,-2.1204,-2.0351,-2.256,-2.4167,-2.4243,0.0,0.0,-2.8888,-2.9953,-3.0896,-3.1461,-3.1436,-3.1386,-3.1386,-3.1411,-3.1461,-3.1486,-3.1512,-3.1537,-3.17,-3.1951,-3.2365,-3.2855,-3.3124,-3.3043,-3.3086,-3.3111,-3.3124,-3.3124,-3.3124,-3.3124,-3.3124,-3.3048,-3.3068,-3.2852,-3.295,-3.3086,-3.3086,-3.3074,-3.3074,-3.9187,-3.9154,-3.8327,-3.7509,-3.6716,-3.6716,-3.6791,-3.6941,-3.6776,-3.6552,-3.6237,-3.5956,-3.504,-3.3755,-3.2766,-3.2691,-3.3365,-3.3634,-3.4218,-3.5011,-3.519,-3.5355,-3.5489,-3.5489,-3.5429,-3.5265,-3.525,-3.4906,-3.4279,-3.3933,-3.2856,-3.1077,-3.024,-2.8925,-2.724,-2.8468,-2.9517,-3.0283,-3.1077,-3.0896,-2.9645,-3.0051,-2.9464,-2.7778,-2.7511,-2.6831,-2.5608,-2.4898,-2.4366,-2.4042,-2.2425,-2.1756,-2.2272,-1.8505,0.0,0.0,0.0,0.0,0.0,0.0,0.0,0.0,0.0,-1.5096,-1.3178,0.0,-1.4986,0.0,-1.7363,-2.0989,-2.0732,-2.1194,0.0,0.0,-2.2209,-2.2673,-2.4054,-2.4808,-2.5548,-2.6402,-2.7808,-2.8925,-2.9516,-3.0523,-3.1574,-3.2516,-3.1938,-3.1386,-3.1399,-3.1763,-3.2026,-3.2051,-3.2365,-3.2667,-3.2684,-3.278,-3.2905,-3.3056,-3.3124,-3.3124,-3.3124,-3.3124,-3.3124,-3.3124,-3.3124,-3.3124,-3.3111,-3.3124,-3.2698,-3.1965,-3.2426,-3.3124,-3.3124,-3.3081,-3.3081,-3.9388,-3.9388,-3.9388,-3.899,-3.8302,-3.8267,-3.8267,-3.8267,-3.8302,-3.7943,-3.733,-3.703,-3.6477,-3.5759,-3.5415,-3.5429,-3.5759,-3.5774,-3.5983,-3.6327,-3.6073,-3.5938,-3.5923,-3.5639,-3.5489,-3.5489,-3.5489,-3.531,-3.4951,-3.4668,-3.3918,-3.2811,-3.2258,-3.1212,-2.9849,-2.9924,-3.0131,-3.0396,-3.0395,-2.9795,-2.8649,-2.8934,-2.8429,-2.6956,-2.6525,-2.573,-2.4469,-2.3916,-2.3502,-2.3238,-2.2121,-2.1686,-2.2049,-1.9272,-1.6878,0.0,0.0,0.0,0.0,0.0,0.0,0.0,0.0,0.0,0.0,0.0,-1.6826,-1.5781,-2.0117,-2.2868,-2.2543,-2.3226,-2.3954,-2.4556,-2.4782,-2.5285,-2.6251,-2.6791,-2.7318,-2.7946,-2.9001,-2.9813,-3.0248,-3.1148,-3.2077,-3.2998,-3.2541,-3.2139,-3.2164,-3.2416,-3.2591,-3.2616,-3.2867,-3.3124,-3.3124,-3.3124,-3.3124,-3.3124,-3.3124,-3.3124,-3.3124,-3.3124,-3.3124,-3.3111,-3.288,-3.2692,-3.2692,-3.2072,-3.1345,-3.0848,-3.0718,-3.1202,-3.2054,-3.2283,-3.2239,-3.9388,-3.9388,-3.9388,-3.9388,-3.9388,-3.9388,-3.9388,-3.9388,-3.9388,-3.908,-3.8482,-3.7823,-3.7539,-3.7539,-3.7449,-3.7404,-3.7404,-3.7404,-3.7404,-3.7375,-3.6851,-3.6567,-3.6462,-3.5908,-3.5579,-3.5504,-3.5489,-3.5489,-3.5474,-3.4923,-3.4608,-3.4459,-3.332,-3.2661,-3.2392,-3.1276,-3.0484,-3.002,-2.9541,-2.8837,-2.7917,-2.7859,-2.7498,-2.6652,-2.5837,-2.4883,-2.3828,-2.3258,-2.2782,-2.2334,-2.1857,-2.1382,-2.09,-1.9826,-1.8781,0.0,-1.7159,0.0,0.0,0.0,0.0,0.0,0.0,0.0,0.0,-1.8846,-1.932,-2.0993,-2.3597,-2.5219,-2.5111,-2.6034,-2.6637,-2.6725,-2.7595,-2.8021,-2.7595,-2.8411,-2.9026,-2.9088,-2.9979,-3.0691,-3.0938,-3.1714,-3.2416,-3.2955,-3.3074,-3.296,-3.2943,-3.2968,-3.3074,-3.3124,-3.3006,-3.2893,-3.2893,-3.2898,-3.2847,-3.2872,-3.278,-3.2898,-3.2792,-3.2847,-3.2842,-3.2835,-3.2416,-3.2085,-3.1934,-3.073,-2.9767,-2.9355,-2.8766,-2.8877,-3.0261,-3.0749,-3.0788,-3.9388,-3.9388,-3.9388,-3.9388,-3.9388,-3.9388,-3.9388,-3.9388,-3.9388,-3.9349,-3.917,-3.8512,-3.8212,-3.8153,-3.7644,-3.7404,-3.7404,-3.7404,-3.7404,-3.7404,-3.73,-3.6971,-3.6492,-3.6357,-3.6013,-3.5519,-3.5489,-3.5489,-3.5489,-3.537,-3.5026,-3.4518,-3.4249,-3.3471,-3.222,0.0,0.0,0.0,-3.0175,-2.9659,-2.6974,-2.8077,-2.7608,-2.5307,-2.4639,0.0,-2.2698,-2.2493,-2.2422,-2.2322,-2.2209,0.0,0.0,0.0,0.0,0.0,0.0,0.0,0.0,0.0,0.0,0.0,-2.1016,-2.0415,-2.0388,-2.0673,-2.159,-2.3265,-2.5881,-2.7294,-2.6858,-2.6992,-2.7306,-2.777,-2.8336,-2.8687,-2.8624,-2.9227,-2.9792,-3.0244,-3.0455,-3.0788,-3.1253,-3.1818,-3.2441,-3.2968,-3.3124,-3.288,-3.2453,-3.278,-3.3099,-3.3099,-3.2654,-3.239,-3.2378,-3.2026,-3.1813,-3.17,-3.17,-3.1738,-3.1775,-3.1738,-3.1725,-3.1725,-3.1625,-3.1224,-3.0439,-2.9959,-2.907,-2.7338,-2.7546,-2.8213,-2.8612,-2.8669,-2.8701,-3.9388,0.0,-3.9388,-3.9388,0.0,-3.9388,-3.9388,-3.9388,-3.9388,-3.9388,-3.9358,-3.905,-3.8901,-3.8886,-3.8542,-3.8407,-3.8407,-3.8407,-3.8392,-3.8392,-3.8048,-3.7734,-3.7404,-3.6776,-3.6312,-3.5983,-3.5669,-3.5489,-3.5489,-3.5489,-3.5325,-3.4981,-3.4206,-3.3627,-3.3289,-3.2492,-3.0983,-2.8766,-2.9433,-2.9,-2.7398,-2.7853,-2.7364,-2.5715,0.0,0.0,0.0,0.0,0.0,0.0,0.0,0.0,0.0,0.0,0.0,-2.1347,-2.14,-2.1594,-2.1845,-2.187,-2.2472,-2.3822,-2.4192,-2.3796,-2.2451,-2.3343,-2.4435,-2.554,-2.7348,-2.8342,-2.8131,-2.8084,-2.8323,-2.8875,-2.9189,-2.9453,-2.9729,-2.9979,-3.0407,-3.0922,-3.1235,-3.1426,-3.138,-3.2142,-3.2729,-3.3036,-3.2817,-3.2541,-3.2303,-3.2453,-3.2566,-3.229,-3.2026,-3.1813,-3.1788,-3.1599,-3.1373,-3.1386,-3.1386,-3.1386,-3.1386,-3.1173,-3.1009,-3.0959,-3.057,-2.9972,-2.9408,-2.8362,-2.7058,-2.5902,-2.5337,-2.5147,-2.5359,-2.6302,-2.7195,-3.9388,-3.9388,-3.9388,-3.9388,-3.9388,-3.9388,-3.9388,-3.9409,0.0,0.0,0.0,-3.9125,-3.9125,-3.9245,-3.923,-3.9305,-3.9409,-3.9388,-3.9388,-3.9394,-3.8706,-3.8377,-3.8332,-3.721,-3.6596,-3.6462,-3.5938,-3.5624,-3.5504,-3.5489,-3.5489,-3.5379,-3.4145,-3.3736,-3.405,-3.2501,-3.0959,-2.9506,-2.8849,-2.8424,-2.8097,-2.7837,-2.7316,-2.6499,-2.5485,-2.4412,-2.3296,-2.2849,-2.2397,-2.197,-2.2062,-2.2234,-2.2598,-2.2711,-2.3125,-2.3929,-2.418,-2.4318,-2.4431,-2.4531,-2.482,-2.5327,-2.6741,-2.6728,-2.472,-2.6005,-2.7087,-2.7532,-2.8377,-2.8935,-2.9051,-2.9038,-2.9264,-2.9741,-2.9779,-3.0005,-3.048,-3.062,-3.0821,-3.1436,-3.18,-3.1981,-3.1788,-3.2276,-3.278,-3.2704,-3.234,-3.2014,-3.1964,-3.1976,-3.1938,-3.1574,-3.1386,-3.126,-3.1248,-3.111,-3.1122,-3.1062,-3.0947,-3.0959,-3.0884,-3.052,-3.0206,-3.008,-2.9327,-2.8699,-2.8147,-2.6581,-2.4937,-2.4535,-2.3143,-2.1982,-2.2477,-2.4064,-2.5482,-3.9388,-3.9388,-3.9388,-3.9388,-3.9388,-3.9388,-3.9388,-3.9328,-3.8796,-3.8542,-3.8497,-3.7928,-3.8018,-3.8542,-3.8542,-3.8871,-3.9373,-3.9388,-3.9388,0.0,-3.8706,-3.8377,-3.8347,-3.7629,-3.7,-3.6507,-3.6387,-3.6058,-3.5549,-3.5504,-3.5489,-3.5457,-3.527,-3.4378,-3.287,-3.1032,-2.9986,-2.9758,-3.0073,-2.957,-2.8146,-2.8776,-2.8256,-2.6559,-2.5883,-2.4983,-2.3916,-2.3803,-2.3728,-2.3665,-2.4104,-2.418,-2.3803,-2.4217,-2.4311,-2.4079,-2.487,-2.5586,-2.6109,-2.6587,-2.7055,-2.762,-2.8261,-2.816,-2.7014,-2.7774,-2.8467,-2.8699,-2.9262,-2.9668,-2.9654,-2.9666,-2.9716,-2.9817,-2.9804,-3.0018,-3.0595,-3.0658,-3.1009,-3.1926,-3.1725,-3.1912,-3.2491,-3.2113,-3.1712,-3.1637,-3.1599,-3.1361,-3.106,-3.1223,-3.1449,-3.1348,-3.1009,-3.0771,-3.0683,-3.0306,-3.0131,-3.0018,-2.9666,-2.9453,-2.9377,-2.8976,-2.8624,-2.8511,-2.8237,-2.7507,-2.6115,-2.5333,-2.4211,-2.2948,-2.2086,-2.1846,-2.1953,-2.2643,-2.316,-3.9388,-3.9388,-3.9388,-3.9388,-3.9388,-3.9388,-3.9388,-3.9328,-3.8676,-3.8377,-3.8347,-3.8063,-3.8123,-3.8377,-3.8377,-3.8766,-3.9388,-3.9388,-3.9388,-3.9358,-3.9095,-3.8945,-3.8886,-3.8257,-3.7793,-3.7479,-3.6791,-3.6342,-3.6028,-3.5699,-3.5489,-3.5457,-3.4938,-3.3478,-3.1206,-3.0746,-3.0317,-2.9818,-3.0054,-2.9796,-2.9051,-2.9095,-2.8688,-2.7808,-2.6967,-2.6302,-2.5799,-2.5531,-2.5368,-2.5368,-2.5573,-2.5737,-2.5787,-2.6013,-2.6176,-2.6226,-2.6678,-2.7067,-2.7366,-2.7871,-2.8273,-2.8549,-2.9076,-2.9327,-2.9126,-2.9227,-2.9315,-2.9377,-2.9656,-2.9947,-3.0193,-3.0244,-3.0357,-3.0633,-3.0658,-3.0884,-3.1323,-3.1198,-3.1348,-3.2014,-3.1725,-3.1619,-3.2095,-3.1735,-3.111,-3.072,-3.0754,-3.0758,-3.0269,-3.0369,-3.0532,-3.0495,-3.0319,-3.0206,-3.0156,-2.998,-2.9679,-2.9402,-2.9076,-2.8787,-2.8512,-2.8021,-2.772,-2.7596,-2.7037,-2.6142,-2.5006,-2.4047,-2.3015,-2.2377,-2.1471,-2.1311,-2.1455,-2.1811,-2.2185,-3.9388,-3.9388,-3.9388,-3.9388,-3.9388,-3.9388,-3.9388,-3.9328,-3.8856,-3.8527,-3.8377,-3.8242,-3.8242,-3.8377,-3.8377,-3.8766,-3.9328,-3.9388,-3.9388,-3.9373,-3.926,-3.9275,-3.9334,-3.8721,-3.8377,-3.8287,-3.7375,-3.6761,-3.6447,-3.574,-3.52,-3.4802,-3.3871,-3.2249,-3.0177,-3.0633,-3.052,-2.9818,-2.9779,-2.9779,-2.9779,-2.9352,-2.9026,-2.8838,-2.8097,-2.7607,-2.7457,-2.7055,-2.6864,-2.6864,-2.6864,-2.7065,-2.7467,-2.7469,-2.7657,-2.8059,-2.8222,-2.836,-2.8499,-2.8875,-2.9176,-2.9276,-2.9729,-3.0206,-3.067,-3.0407,-3.0143,-3.0156,-3.0168,-3.0357,-3.0708,-3.0796,-3.0909,-3.1185,-3.1336,-3.1424,-3.1738,-3.1562,-3.1537,-3.1901,-3.1549,-3.121,-3.1251,-3.115,-3.0698,-3.0091,-3.0179,-3.0244,-2.988,-2.9779,-2.9779,-2.9779,-2.9779,-2.9817,-2.9779,-2.9641,-2.9478,-2.9101,-2.8749,-2.8188,-2.7641,-2.7073,-2.6644,-2.6308,-2.5481,-2.4633,-2.4251,-2.318,-2.209,-2.1647,-2.1082,-2.0772,-2.1025,-2.1299,-2.1619,-3.9388,-3.9388,-3.9388,-3.9388,-3.9388,-3.9388,-3.9388,-3.9373,-3.9334,-3.8975,-3.8407,-3.7778,-3.7883,-3.8347,-3.8377,-3.8766,-3.9373,-3.9388,-3.9388,-3.9313,-3.8766,-3.8811,-3.9269,-3.8706,-3.8377,-3.8377,-3.8212,-3.7569,-3.6578,-3.5585,-3.4331,-3.2925,-3.1924,-3.1389,-3.097,-3.0317,-2.9895,-2.9779,-2.9779,-2.9779,-2.9779,-2.9741,-2.9465,-2.89,-2.88,-2.8536,-2.8084,-2.7984,-2.7946,-2.7959,-2.7959,-2.7971,-2.8034,-2.8034,-2.8072,-2.8147,-2.8549,-2.9038,-2.9566,-2.9679,-2.993,-3.0394,-3.0482,-3.0771,-3.126,-3.1273,-3.1235,-3.1235,-3.1235,-3.1198,-3.1311,-3.1298,-3.116,-3.0922,-3.1173,-3.1248,-3.0972,-3.1135,-3.1424,-3.1449,-3.1009,-3.0748,-3.0788,-3.0448,-2.9966,-2.9836,-2.9902,-2.9942,-2.9829,-2.9779,-2.9779,-2.9779,-2.9779,-2.9779,-2.9741,-2.9327,-2.9202,-2.939,-2.8405,-2.7294,-2.6347,-2.5625,-2.5016,-2.4679,-2.3945,-2.3415,-2.2776,-2.2038,-2.1707,-2.1116,-2.075,-2.0635,-2.0674,-2.0772,-2.0867,-3.9388,-3.9388,-3.9388,-3.9388,-3.9388,-3.9388,-3.9388,-3.9388,-3.9388,-3.9245,-3.9005,-3.8706,-3.8542,-3.8392,-3.8377,-3.8766,-3.9358,-3.9388,-3.9388,-3.9313,-3.8706,-3.8542,-3.8751,-3.8556,-3.8377,-3.8377,-3.8377,-3.8123,-3.7535,-3.6467,-3.4764,-3.2804,-3.2213,-3.1513,-3.0457,-3.0011,-2.9779,-2.9779,-2.9779,-2.9779,-2.9779,-2.9779,-2.9679,-2.9465,-2.944,-2.9352,-2.9126,-2.9114,-2.9101,-2.9101,-2.9114,-2.9101,-2.9101,-2.9114,-2.9101,-2.9114,-2.9302,-2.9691,-3.0244,-3.0269,-3.0507,-3.1022,-3.1072,-3.1298,-3.1813,-3.1876,-3.2001,-3.2252,-3.1788,-3.1499,-3.1788,-3.1587,-3.1424,-3.1486,-3.1474,-3.1286,-3.1122,-3.0984,-3.0934,-3.0884,-3.0457,-3.0182,-3.0182,-2.9994,-2.9792,-2.9779,-2.9779,-2.9779,-2.9779,-2.9779,-2.9779,-2.9779,-2.9779,-2.9779,-2.9741,-2.9302,-2.9063,-2.8884,-2.8127,-2.685,-2.5362,-2.5064,-2.4671,-2.3635,-2.2999,-2.2553,-2.2215,-2.1479,-2.1011,-2.0605,-2.0615,-2.0615,-2.0615,-2.0615,-2.0605,-3.9388,-3.9388,-3.9388,-3.9388,-3.9388,-3.9388,-3.9388,-3.9388,-3.9388,-3.9388,-3.9388,-3.9388,-3.914,-3.8721,-3.8661,-3.896,-3.9343,-3.9388,-3.9388,-3.9349,-3.8706,-3.8392,-3.8377,-3.8182,-3.8108,-3.8123,-3.8108,-3.7898,-3.7421,-3.6378,-3.4708,-3.2826,-3.2343,-3.1549,-3.0317,-2.9972,-2.9779,-2.9779,-2.9779,-2.9779,-2.9779,-2.9779,-2.9779,-2.9779,-2.9779,-2.9779,-2.9779,-2.9779,-2.9779,-2.9779,-2.9779,-2.9779,-2.9779,-2.9779,-2.9867,-2.9993,-3.0018,-3.0256,-3.0783,-3.0834,-3.1047,-3.1537,-3.1612,-3.1851,-3.229,-3.2315,-3.2403,-3.2641,-3.1951,-3.1612,-3.2051,-3.1712,-3.1549,-3.1738,-3.1499,-3.1311,-3.0947,-3.0683,-3.0557,-3.0382,-3.0068,-2.9779,-2.9792,-2.9792,-2.9779,-2.9779,-2.9779,-2.9779,-2.9779,-2.9779,-2.9779,-2.9779,-2.9779,-2.9779,-2.9741,-2.9114,-2.8724,-2.8272,-2.7548,-2.6006,-2.4517,-2.4361,-2.3818,-2.2339,-2.1924,-2.1669,-2.1441,-2.0934,-2.0644,-2.0605,-2.0615,-2.0615,-2.0615,-2.0615,-2.0615,-3.9388,-3.9388,-3.9388,-3.9388,-3.9388,-3.9388,-3.9388,-3.9388,-3.9388,-3.9388,-3.9388,-3.9388,-3.9358,-3.9313,-3.9269,-3.9343,-3.9388,-3.9388,-3.9388,-3.9349,-3.8706,-3.8377,-3.8347,-3.7764,-3.7464,-3.7464,-3.7524,-3.6803,-3.5381,-3.4562,-3.3581,-3.2607,-3.1792,-3.1254,-3.0895,-3.0177,-2.9792,-2.9779,-2.9779,-2.9779,-2.9779,-2.9779,-2.9779,-2.9779,-2.9779,-2.9779,-2.9779,-2.9779,-2.9779,-2.9779,-2.9779,-2.9792,-2.9804,-2.9829,-3.008,-3.0507,-3.0583,-3.0796,-3.1273,-3.1373,-3.1599,-3.2077,-3.2177,-3.239,-3.2767,-3.2466,-3.224,-3.224,-3.1687,-3.1562,-3.1951,-3.1587,-3.116,-3.0859,-3.1122,-3.0846,-3.0018,-3.0357,-3.0331,-2.9993,-2.9829,-2.9779,-2.9779,-2.9779,-2.9779,-2.9779,-2.9779,-2.9779,-2.9779,-2.9779,-2.9779,-2.9779,-2.9779,-2.9779,-2.9691,-2.9076,-2.8411,-2.7888,-2.6846,-2.4814,-2.3768,-2.2776,-2.1935,-2.128,-2.1049,-2.0867,-2.0712,-2.0644,-2.0605,-2.0615,-2.0615,-2.0615,-2.0615,-2.0615,-2.0615,-3.9388,-3.9388,-3.9388,-3.9388,-3.9388,-3.9388,-3.9388,-3.9388,-3.9388,-3.9388,-3.9388,-3.9388,-3.9388,-3.9388,-3.9388,-3.9388,-3.9388,-3.9388,-3.9388,-3.9313,-3.8706,-3.8167,-3.7749,-3.7494,-3.718,-3.6926,-3.721,-3.689,-3.5956,-3.5072,-3.3937,-3.2648,-3.1683,-3.0932,-3.0355,-2.996,-2.9779,-2.9779,-2.9779,-2.9779,-2.9779,-2.9779,-2.9779,-2.9779,-2.9779,-2.9779,-2.9779,-2.9779,-2.9779,-2.9779,-2.9779,-2.9955,-3.0306,-3.0633,-3.0896,-3.1085,-3.111,-3.1348,-3.1813,-3.1926,-3.2164,-3.2679,-3.2754,-3.2616,-3.2528,-3.2328,-3.2077,-3.1687,-3.121,-3.1047,-3.1085,-3.0997,-3.0821,-3.0645,-3.0457,-3.0256,-2.9942,-2.9967,-3.0005,-2.9829,-2.9779,-2.9779,-2.9779,-2.9779,-2.9779,-2.9779,-2.9779,-2.9779,-2.9779,-2.9779,-2.9779,-2.9779,-2.9779,-2.9779,-2.9779,-2.9176,-2.8462,-2.7755,-2.6614,-2.4235,-2.268,-2.2317,-2.1621,-2.1011,-2.0644,-2.0605,-2.0644,-2.0644,-2.0615,-2.0615,-2.0615,-2.0615,-2.0615,-2.0615,-2.0615,-3.9388,-3.9388,-3.9388,-3.9388,-3.9388,-3.9388,-3.9388,-3.9388,-3.9388,-3.9388,-3.9388,-3.9388,-3.9388,-3.9388,-3.9388,-3.9388,-3.9388,-3.9388,-3.9388,-3.9328,-3.8706,-3.8153,-3.7749,-3.7494,-3.7075,-3.6567,-3.6671,-3.6552,-3.6108,-3.5151,-3.4119,-3.3045,-3.1852,-3.0895,-3.0317,-2.996,-2.9779,-2.9779,-2.9779,-2.9779,-2.9779,-2.9779,-2.9779,-2.9779,-2.9779,-2.9779,-2.9804,-2.9967,-3.0055,-3.0068,-3.0206,-3.0482,-3.0871,-3.1185,-3.1474,-3.1625,-3.1662,-3.1901,-3.2365,-3.2328,-3.2365,-3.2729,-3.2604,-3.234,-3.1976,-3.18,-3.1512,-3.1122,-3.067,-3.0357,-3.0344,-3.0344,-3.0344,-3.0306,-3.0018,-2.9792,-2.9779,-2.9792,-2.9804,-2.9792,-2.9779,-2.9779,-2.9779,-2.9779,-2.9779,-2.9779,-2.9779,-2.9779,-2.9779,-2.9779,-2.9779,-2.9779,-2.9779,-2.9779,-2.9792,-2.9428,-2.9202,-2.855,-2.5995,-2.3627,-2.2023,-2.1704,-2.1413,-2.0828,-2.0615,-2.0615,-2.0615,-2.0615,-2.0615,-2.0615,-2.0615,-2.0615,-2.0615,-2.0615,-2.0615,-3.9388,-3.9388,-3.9388,-3.9388,-3.9388,-3.9388,-3.9388,-3.9388,-3.9388,-3.9388,-3.9388,-3.9388,-3.9388,-3.9388,-3.9388,-3.9388,-3.9388,-3.9388,-3.9388,-3.9313,-3.8766,-3.8437,-3.8272,-3.7764,-3.7195,-3.6567,-3.5893,-3.5624,-3.5603,-3.4641,-3.3968,-3.3567,-3.2019,-3.1082,-3.1119,-3.0216,-2.9779,-2.9779,-2.9779,-2.9779,-2.9779,-2.9779,-2.9779,-2.9779,-2.9779,-2.9779,-2.9792,-3.0294,-3.0545,-3.062,-3.1035,-3.1361,-3.1386,-3.1499,-3.17,-3.2139,-3.2215,-3.2503,-3.2842,-3.2478,-3.2202,-3.2164,-3.175,-3.1524,-3.1373,-3.1022,-3.0721,-3.0557,-3.0181,-2.9842,-2.9854,-2.9867,-2.988,-2.9804,-2.9804,-2.9792,-2.9779,-2.9779,-2.9779,-2.9779,-2.9779,-2.9779,-2.9779,-2.9779,-2.9779,-2.9779,-2.9779,-2.9779,-2.9779,-2.9779,-2.9779,-2.9779,-2.9779,-2.9779,-2.9792,-2.9767,-2.977,-2.9201,-2.5843,-2.3023,-2.164,-2.1028,-2.1061,-2.0683,-2.0615,-2.0615,-2.0615,-2.0615,-2.0615,-2.0615,-2.0615,-2.0615,-2.0615,-2.0615,-2.0615,-3.9388,-3.9388,-3.9388,-3.9388,-3.9388,-3.9388,-3.9388,-3.9388,-3.9388,-3.9388,-3.9388,-3.9388,-3.9388,-3.9388,-3.9388,-3.9388,-3.9388,-3.9388,-3.9388,-3.9343,-3.9185,-3.8826,-3.8422,-3.8182,-3.7749,-3.7105,-3.6492,-3.6178,-3.5922,-3.4728,-3.3705,-3.2925,-3.1865,-3.0871,-3.0317,-2.9921,-2.9779,-2.9779,-2.9779,-2.9779,-2.9779,-2.9779,-2.9779,-2.9779,-2.9779,-2.9779,-2.9817,-3.0331,-3.0608,-3.0633,-3.111,-3.1562,-3.1926,-3.234,-3.2629,-3.2767,-3.2805,-3.2654,-3.2466,-3.2315,-3.2014,-3.1712,-3.1474,-3.121,-3.0909,-3.0721,-3.0405,-3.0143,-2.988,-2.9779,-2.9779,-2.9779,-2.9817,-2.9792,-2.9779,-2.9779,-2.9779,-2.9779,-2.9779,-2.9779,-2.9779,-2.9779,-2.9779,-2.9779,-2.9779,-2.9779,-2.9779,-2.9779,-2.9779,-2.9779,-2.9779,-2.9779,-2.9779,-2.9611,-2.9495,-2.9219,-2.9037,-2.8802,-2.6278,-2.3361,-2.1854,-2.0899,-2.086,-2.0742,-2.0664,-2.0664,-2.0654,-2.0615,-2.0615,-2.0625,-2.0635,-2.0625,-2.0615,-2.0615,-2.0615,-3.9388,-3.9388,-3.9388,-3.9388,-3.9388,-3.9388,-3.9388,-3.9388,-3.9388,-3.9388,-3.9388,-3.9388,-3.9388,-3.9388,-3.9388,-3.9388,-3.9388,-3.9388,-3.9388,-3.9388,-3.9388,-3.9155,-3.8736,-3.8482,-3.8212,-3.7734,-3.712,-3.6836,-3.6757,-3.5448,-3.4325,-3.3458,-3.2226,-3.1179,-3.0356,-2.996,-2.9779,-2.9779,-2.9779,-2.9779,-2.9779,-2.9779,-2.9779,-2.9779,-2.9779,-2.9779,-2.9829,-3.0319,-3.0708,-3.0997,-3.1599,-3.2177,-3.2541,-3.2867,-3.3124,-3.3124,-3.3086,-3.283,-3.229,-3.2014,-3.1675,-3.121,-3.0922,-3.067,-3.0407,-3.0405,-3.0369,-2.9905,-2.998,-3.0018,-2.9854,-3.0018,-3.008,-3.0105,-2.9917,-2.9804,-2.9779,-2.9779,-2.9779,-2.9779,-2.9779,-2.9779,-2.9779,-2.9779,-2.9779,-2.9779,-2.9779,-2.9779,-2.9779,-2.9779,-2.9779,-2.9611,-2.9236,-2.9106,-2.9028,-2.8718,-2.8317,-2.7829,-2.6921,-2.439,-2.2382,-2.1679,-2.1396,-2.1074,-2.0918,-2.0937,-2.0928,-2.0703,-2.0615,-2.0625,-2.0752,-2.0625,-2.0615,-2.0615,-2.0615,-3.9388,-3.9388,-3.9388,-3.9388,-3.9388,-3.9388,-3.9388,-3.9388,-3.9388,-3.9388,-3.9388,-3.9388,-3.9388,-3.9388,-3.9388,-3.9388,-3.9388,-3.9388,-3.9388,-3.9388,-3.9388,-3.9313,-3.9209,-3.8796,-3.8542,-3.8362,-3.7778,-3.7411,-3.7144,-3.6225,-3.5597,-3.4412,-3.2895,-3.184,-3.1018,-3.0241,-2.9867,-2.9792,-2.9779,-2.9779,-2.9779,-2.9779,-2.9779,-2.9779,-2.9779,-2.9779,-2.9854,-3.0319,-3.0871,-3.1474,-3.234,-3.283,-3.3074,-3.3124,-3.3124,-3.3111,-3.3099,-3.2717,-3.2227,-3.175,-3.1286,-3.0859,-3.0457,-2.988,-3.0168,-3.0532,-3.0583,-3.0156,-3.0407,-3.047,-3.0193,-3.0369,-3.062,-3.0608,-3.0331,-3.0055,-2.9867,-2.988,-2.9892,-2.9817,-2.9779,-2.9779,-2.9779,-2.9779,-2.9779,-2.9779,-2.9779,-2.9779,-2.9779,-2.9779,-2.9779,-2.9443,-2.9015,-2.8636,-2.8557,-2.7851,-2.7452,-2.693,-2.6315,-2.4716,-2.289,-2.2226,-2.1748,-2.1435,-2.122,-2.1229,-2.123,-2.1035,-2.0986,-2.1143,-2.1055,-2.0772,-2.0635,-2.0664,-2.0713,-3.9388,-3.9388,-3.9388,-3.9388,-3.9388,-3.9388,-3.9388,-3.9388,-3.9388,-3.9388,-3.9388,-3.9388,-3.9388,-3.9388,-3.9388,-3.9388,-3.9388,-3.9388,-3.9388,-3.9388,-3.9388,-3.9388,-3.9424,-3.9245,-3.914,-3.902,-3.8402,-3.7757,-3.6939,-3.6375,-3.5181,-3.3389,-3.3006,-3.1993,-3.0865,-3.0539,-3.0168,-2.9842,-2.9804,-2.9804,-2.9779,-2.9779,-2.9779,-2.9779,-2.9779,-2.9779,-2.9842,-3.0319,-3.1072,-3.1913,-3.224,-3.2654,-3.3011,-3.3048,-3.3036,-3.3023,-3.2667,-3.2403,-3.2164,-3.1725,-3.1336,-3.1223,-3.0959,-3.0959,-3.0972,-3.1097,-3.111,-3.0984,-3.1135,-3.1135,-3.1009,-3.1085,-3.1185,-3.1173,-3.106,-3.0821,-3.0482,-3.0394,-3.0256,-2.9892,-2.9817,-2.9829,-2.9792,-2.9779,-2.9779,-2.9779,-2.9779,-2.9779,-2.9779,-2.9573,-2.9482,-2.9365,-2.8976,-2.8466,-2.7936,-2.7128,-2.6487,-2.6003,-2.542,-2.465,-2.3235,-2.2405,-2.2038,-2.1728,-2.1709,-2.1709,-2.1709,-2.1662,-2.1689,-2.165,-2.1543,-2.1309,-2.0915,-2.0787,-2.0859,-3.9388,-3.9388,-3.9388,-3.9388,-3.9388,-3.9388,-3.9388,-3.9388,-3.9388,-3.9388,-3.9388,-3.9388,-3.9388,-3.9388,-3.9388,-3.9388,-3.9388,-3.9388,-3.9388,-3.9388,-3.9388,-3.9388,-3.9388,-3.9388,-3.9388,-3.9343,-3.902,-3.8222,-3.7372,-3.6856,-3.5662,-3.4192,-3.3423,-3.2633,-3.1679,-3.1069,-3.0735,-3.0372,-3.0259,-3.0171,-2.9817,-2.9779,-2.9779,-2.9779,-2.9779,-2.9779,-2.9842,-3.0118,-3.0771,-3.1599,-3.1888,-3.2026,-3.2315,-3.2407,-3.2466,-3.2641,-3.239,-3.2215,-3.2164,-3.1888,-3.1637,-3.1449,-3.1386,-3.1386,-3.1424,-3.1562,-3.1687,-3.1229,-3.1521,-3.1678,-3.1672,-3.1719,-3.1851,-3.2064,-3.2089,-3.1775,-3.1047,-3.0947,-3.0696,-3.0331,-3.0131,-3.0018,-2.9854,-2.9804,-2.9792,-2.9779,-2.9779,-2.9779,-2.974,-2.9443,-2.9028,-2.8779,-2.7947,-2.7023,-2.6356,-2.5672,-2.5231,-2.4774,-2.4615,-2.391,-2.3453,-2.2606,-2.2421,-2.2227,-2.2178,-2.2148,-2.2139,-2.209,-2.1992,-2.1953,-2.1953,-2.1804,-2.1409,-2.1182,-2.1209,-3.9388,-3.9388,-3.9388,-3.9388,-3.9388,-3.9388,-3.9388,-3.9388,-3.9388,-3.9388,-3.9388,-3.9388,-3.9388,-3.9388,-3.9388,-3.9388,-3.9388,-3.9388,-3.9388,-3.9388,-3.9388,-3.9388,-3.9388,-3.9388,-3.9388,-3.9373,-3.9388,-3.8561,-3.7609,-3.7396,-3.6557,-3.4844,-3.3912,-3.3382,-3.2417,-3.1803,-3.1304,-3.0914,-3.0773,-3.052,-3.0142,-3.0027,-3.0091,-3.0168,-3.0156,-3.0131,-3.0093,-3.0156,-3.0532,-3.1361,-3.1386,-3.1562,-3.1599,-3.165,-3.1797,-3.2131,-3.2206,-3.224,-3.229,-3.2252,-3.2077,-3.1763,-3.1687,-3.1574,-3.1775,-3.2089,-3.2072,-3.1522,-3.1893,-3.2198,-3.2167,-3.2223,-3.2495,-3.278,-3.2968,-3.2583,-3.1905,-3.1512,-3.1273,-3.0796,-3.0696,-3.0419,-3.008,-2.988,-2.988,-2.9792,-2.974,-2.9573,-2.9314,-2.8846,-2.8359,-2.7907,-2.6696,-2.5168,-2.4585,-2.4049,-2.3757,-2.3503,-2.3634,-2.3384,-2.3384,-2.2885,-2.2803,-2.2691,-2.2584,-2.2578,-2.2568,-2.248,-2.2353,-2.2363,-2.2441,-2.2227,-2.1973,-2.1841,-2.1826,-3.9388,-3.9388,-3.9388,-3.9388,-3.9388,-3.9388,-3.9388,-3.9388,-3.9388,-3.9388,-3.9388,-3.9388,-3.9388,-3.9388,-3.9388,-3.9388,-3.9388,-3.9388,-3.9388,-3.9388,-3.9388,-3.9388,-3.9388,-3.9388,-3.9388,-3.9388,-3.9388,-3.8368,-3.7046,-3.6526,-3.5533,-3.3856,-3.3502,-3.2958,-3.2434,-3.2209,-3.1642,-3.106,-3.0948,-3.0926,-3.0788,-3.0726,-3.0803,-3.0947,-3.0959,-3.1009,-3.1035,-3.1047,-3.116,-3.1323,-3.1449,-3.1763,-3.229,-3.2516,-3.2376,-3.212,-3.2147,-3.239,-3.2704,-3.2516,-3.2378,-3.2604,-3.2566,-3.2717,-3.2759,-3.2797,-3.2805,-3.2637,-3.2817,-3.2822,-3.2777,-3.2847,-3.296,-3.3086,-3.3111,-3.3036,-3.2692,-3.229,-3.1813,-3.1399,-3.121,-3.1022,-3.0532,-3.0407,-3.0231,-2.9905,-2.9573,-2.9326,-2.8819,-2.8215,-2.7481,-2.6871,-2.5714,-2.4425,-2.4168,-2.3671,-2.3343,-2.3101,-2.3101,-2.3101,-2.3101,-2.3091,-2.2964,-2.2964,-2.2994,-2.2935,-2.2828,-2.2877,-2.276,-2.2818,-2.2861,-2.2646,-2.2461,-2.2422,-2.2554,-3.9388,-3.9388,-3.9388,-3.9388,-3.9388,-3.9388,-3.9388,-3.9388,-3.9388,-3.9388,-3.9388,-3.9388,-3.9388,-3.9388,-3.9388,-3.9388,-3.9388,-3.9388,-3.9388,-3.9388,-3.9388,-3.9388,-3.9388,-3.9388,-3.9388,-3.9388,-3.9388,-3.8167,-3.6721,-3.6039,-3.5183,-3.3283,-3.3124,-3.3003,-3.2667,-3.2604,-3.2437,-3.2101,-3.1921,-3.1795,-3.149,-3.1782,-3.1584,-3.1452,-3.1386,-3.1386,-3.1361,-3.1361,-3.1512,-3.17,-3.1775,-3.1797,-3.2031,-3.2223,-3.2176,-3.2112,-3.2147,-3.2491,-3.2792,-3.283,-3.2754,-3.3086,-3.3124,-3.3124,-3.3124,-3.3124,-3.3124,-3.3124,-3.3111,-3.3124,-3.3124,-3.3111,-3.3124,-3.3124,-3.3124,-3.3124,-3.3074,-3.2792,-3.239,-3.1951,-3.1775,-3.1486,-3.1185,-3.0894,-3.0515,-3.0177,-2.8946,-2.8633,-2.8028,-2.7348,-2.6356,-2.5535,-2.4628,-2.393,-2.38,-2.3551,-2.3266,-2.3101,-2.3101,-2.3101,-2.3101,-2.3101,-2.3081,-2.3081,-2.3071,-2.3081,-2.3013,-2.3091,-2.3101,-2.3023,-2.2955,-2.2916,-2.29,-2.2879,-2.3228,-3.9388,-3.9388,-3.9388,-3.9388,-3.9388,-3.9388,-3.9388,-3.9388,-3.9388,-3.9388,-3.9388,-3.9388,-3.9388,-3.9388,-3.9388,-3.9388,-3.9388,-3.9388,-3.9388,-3.9388,-3.9388,-3.9388,-3.9388,-3.9388,-3.9388,-3.9388,-3.9388,-3.8204,-3.6721,-3.6039,-3.5075,-3.3441,-3.3124,-3.3074,-3.3099,-3.3111,-3.3008,-3.2887,-3.2849,-3.2697,-3.2329,-3.2679,-3.2466,-3.2,-3.1813,-3.1854,-3.1867,-3.1825,-3.1901,-3.2303,-3.234,-3.1943,-3.1564,-3.1505,-3.18,-3.2218,-3.2361,-3.2641,-3.2968,-3.3086,-3.3086,-3.3124,-3.3124,-3.3124,-3.3124,-3.3124,-3.3124,-3.3124,-3.3124,-3.3124,-3.3124,-3.3124,-3.3124,-3.3124,-3.3124,-3.3124,-3.3124,-3.3124,-3.2767,-3.2491,-3.2315,-3.2102,-3.1675,-3.127,-3.0866,-3.0251,-2.9012,-2.7874,-2.7273,-2.6491,-2.5452,-2.467,-2.3887,-2.3594,-2.3464,-2.342,-2.3135,-2.3101,-2.3101,-2.3101,-2.3101,-2.3101,-2.3101,-2.3101,-2.3091,-2.3101,-2.3101,-2.3101,-2.3101,-2.3101,-2.3159,-2.3177,-2.324,-2.3333,-2.3935,-3.9388,-3.9388,-3.9388,-3.9388,-3.9388,-3.9388,-3.9388,-3.9388,-3.9388,-3.9388,-3.9388,-3.9388,-3.9388,-3.9388,-3.9388,-3.9388,-3.9388,-3.9388,-3.9388,-3.9388,-3.9388,-3.9388,-3.9388,-3.9388,-3.9388,-3.9388,-3.9352,-3.8294,-3.676,-3.6079,-3.5156,-3.3556,-3.3124,-3.3124,-3.3124,-3.3124,-3.3099,-3.3126,-3.3114,-3.2945,-3.2937,-3.2967,-3.3047,-3.2629,-3.2646,-3.2684,-3.2747,-3.2797,-3.2842,-3.293,-3.2973,-3.2842,-3.2624,-3.2667,-3.2742,-3.2805,-3.2842,-3.2973,-3.3099,-3.3124,-3.3124,-3.3124,-3.3124,-3.3124,-3.3124,-3.3124,-3.3124,-3.3124,-3.3124,-3.3124,-3.3124,-3.3124,-3.3124,-3.3124,-3.3124,-3.3124,-3.3124,-3.3111,-3.3086,-3.283,-3.2792,-3.2717,-3.224,-3.1759,-3.1351,-3.0454,-2.9114,-2.7637,-2.6451,-2.558,-2.4585,-2.392,-2.3266,-2.3178,-2.3178,-2.3178,-2.3101,-2.3101,-2.3101,-2.3101,-2.3101,-2.3101,-2.3101,-2.3101,-2.3101,-2.3101,-2.3101,-2.3101,-2.3101,-2.3101,-2.3266,-2.3387,-2.3551,-2.38,-2.4798,-3.9388,-3.9388,-3.9388,-3.9388,-3.9388,-3.9388,-3.9388,-3.9388,-3.9388,-3.9388,-3.9388,-3.9388,-3.9388,-3.9388,-3.9388,-3.9388,-3.9388,-3.9388,-3.9388,-3.9388,-3.9388,-3.9388,-3.9388,-3.9388,-3.9388,-3.9388,-3.9316,-3.862,-3.7098,-3.6448,-3.5359,-3.4178,-3.3441,-3.3124,-3.3124,-3.3124,-3.3124,-3.3124,-3.3124,-3.3124,-3.3124,-3.3124,-3.3124,-3.3124,-3.3124,-3.3124,-3.3124,-3.3124,-3.3111,-3.3111,-3.3124,-3.3124,-3.3124,-3.3124,-3.3124,-3.3124,-3.3124,-3.3124,-3.3124,-3.3124,-3.3124,-3.3124,-3.3124,-3.3124,-3.3124,-3.3124,-3.3124,-3.3124,-3.3124,-3.3124,-3.3124,-3.3124,-3.3124,-3.3124,-3.3124,-3.3124,-3.3124,-3.3124,-3.3124,-3.3124,-3.3036,-3.288,-3.2754,-3.2311,-3.1859,-3.0727,-2.9285,-2.7641,-2.5999,-2.4826,-2.3934,-2.3551,-2.3101,-2.3101,-2.3101,-2.3101,-2.3101,-2.3101,-2.3101,-2.3101,-2.3101,-2.3101,-2.3101,-2.3101,-2.3101,-2.3101,-2.3101,-2.3101,-2.3101,-2.3135,-2.3266,-2.3474,-2.3844,-2.4392,-2.5493,-3.9388,-3.9388,-3.9388,-3.9388,-3.9388,-3.9388,-3.9388,-3.9388,-3.9388,-3.9388,-3.9388,-3.9388,-3.9388,-3.9388,-3.9388,-3.9388,-3.9388,-3.9388,-3.9388,-3.9388,-3.9388,-3.9388,-3.9388,-3.9352,-3.9265,-3.887,-3.8907,-3.8634,-3.7663,-3.6682,-3.5668,-3.4568,-3.3598,-3.3124,-3.3124,-3.3124,-3.3124,-3.3124,-3.3124,-3.3124,-3.3124,-3.3124,-3.3124,-3.3124,-3.3124,-3.3124,-3.3124,-3.3124,-3.3124,-3.3124,-3.3124,-3.3124,-3.3124,-3.3124,-3.3124,-3.3124,-3.3124,-3.3124,-3.3124,-3.3124,-3.3124,-3.3124,-3.3124,-3.3124,-3.3124,-3.3124,-3.3124,-3.3124,-3.3124,-3.3124,-3.3124,-3.3124,-3.3124,-3.3124,-3.3124,-3.3124,-3.3124,-3.3124,-3.3124,-3.3124,-3.3124,-3.3061,-3.2893,-3.2842,-3.2419,-3.1504,-3.0053,-2.777,-2.6109,-2.4479,-2.3614,-2.3325,-2.3101,-2.3101,-2.3101,-2.3101,-2.3101,-2.3101,-2.3101,-2.3101,-2.3101,-2.3101,-2.3101,-2.3101,-2.3101,-2.3101,-2.3101,-2.3101,-2.3101,-2.3135,-2.3309,-2.3854,-2.4723,-2.5514,-2.6435,-3.9388,-3.9388,-3.9388,-3.9388,-3.9388,-3.9388,-3.9388,-3.9388,-3.9388,-3.9388,-3.9388,-3.9388,-3.9388,-3.9388,-3.9388,-3.9388,-3.9388,-3.9388,-3.9388,-3.9388,-3.9388,-3.9337,-3.9352,-3.9388,-3.8745,-3.8271,-3.8069,-3.7956,-3.7434,-3.6526,-3.5668,-3.4664,-3.3713,-3.3124,-3.3124,-3.3124,-3.3124,-3.3124,-3.3124,-3.3124,-3.3124,-3.3124,-3.3124,-3.3124,-3.3124,-3.3124,-3.3124,-3.3124,-3.3124,-3.3124,-3.3124,-3.3124,-3.3124,-3.3124,-3.3124,-3.3124,-3.3124,-3.3124,-3.3124,-3.3124,-3.3124,-3.3124,-3.3124,-3.3124,-3.3124,-3.3124,-3.3124,-3.3124,-3.3124,-3.3124,-3.3124,-3.3124,-3.3124,-3.3124,-3.3124,-3.3124,-3.3124,-3.3124,-3.3124,-3.3124,-3.3124,-3.3124,-3.3061,-3.3031,-3.2895,-3.1938,-3.0664,-2.8337,-2.6354,-2.4822,-2.3589,-2.3389,-2.3237,-2.3237,-2.3101,-2.3101,-2.3101,-2.3101,-2.3101,-2.3101,-2.3101,-2.3101,-2.3101,-2.3101,-2.3101,-2.3101,-2.3101,-2.3101,-2.3101,-2.3387,-2.38,-2.4851,-2.6058,-2.6796,-2.7296,-3.9388,-3.9388,-3.9388,-3.9388,-3.9388,-3.9388,-3.9388,-3.9388,-3.9388,-3.9388,-3.9388,-3.9388,-3.9388,-3.9388,-3.9388,-3.9388,-3.9388,-3.9388,-3.9388,-3.9388,-3.9352,-3.909,-3.873,-3.898,-3.8657,-3.7343,-3.7381,-3.7396,-3.6827,-3.5922,-3.5061,-3.4664,-3.3683,-3.3124,-3.3124,-3.3124,-3.3124,-3.3124,-3.3124,-3.3124,-3.3124,-3.3124,-3.3124,-3.3124,-3.3124,-3.3124,-3.3124,-3.3124,-3.3124,-3.3124,-3.3124,-3.3124,-3.3124,-3.3124,-3.3124,-3.3124,-3.3124,-3.3124,-3.3124,-3.3124,-3.3124,-3.3124,-3.3124,-3.3124,-3.3124,-3.3124,-3.3124,-3.3124,-3.3124,-3.3124,-3.3124,-3.3124,-3.3124,-3.3124,-3.3124,-3.3124,-3.3124,-3.3124,-3.3124,-3.3124,-3.3124,-3.3124,-3.3038,-3.2871,-3.2649,-3.1987,-3.0687,-2.8766,-2.6992,-2.5581,-2.4461,-2.3603,-2.3516,-2.3467,-2.3218,-2.3101,-2.311,-2.311,-2.3101,-2.3101,-2.3101,-2.3101,-2.311,-2.311,-2.3101,-2.3101,-2.3101,-2.3135,-2.3178,-2.38,-2.4457,-2.5431,-2.6348,-2.7128,-2.7778,-3.9388,-3.9388,-3.9388,-3.9388,-3.9388,-3.9388,-3.9388,-3.9388,-3.9388,-3.9388,-3.9388,-3.9388,-3.9388,-3.9388,-3.9388,-3.9388,-3.9388,-3.9388,-3.9388,-3.9388,-3.9265,-3.8797,-3.8397,-3.8509,-3.7829,-3.5854,-3.6397,-3.62,-3.5359,-3.4733,-3.4387,-3.4635,-3.3628,-3.3197,-3.3124,-3.3124,-3.3124,-3.3124,-3.3124,-3.3124,-3.3124,-3.3124,-3.3124,-3.3124,-3.3124,-3.3124,-3.3124,-3.3124,-3.3124,-3.3124,-3.3124,-3.3124,-3.3124,-3.3124,-3.3124,-3.3124,-3.3124,-3.3124,-3.3124,-3.3124,-3.3124,-3.3124,-3.3124,-3.3124,-3.3124,-3.3124,-3.3124,-3.3124,-3.3124,-3.3124,-3.3124,-3.3124,-3.3124,-3.3124,-3.3124,-3.3124,-3.3124,-3.3124,-3.3124,-3.3124,-3.3124,-3.3124,-3.2982,-3.2698,-3.2308,-3.1826,-3.0579,-2.8925,-2.7308,-2.5752,-2.4951,-2.3955,-2.375,-2.3672,-2.3496,-2.3276,-2.3227,-2.3154,-2.3188,-2.3252,-2.3334,-2.3242,-2.3169,-2.3159,-2.3208,-2.3101,-2.3101,-2.3178,-2.3353,-2.38,-2.4425,-2.5473,-2.6408,-2.7308,-2.8199,-3.9388,-3.9388,-3.9388,-3.9388,-3.9388,-3.9388,-3.9388,-3.9388,-3.9388,-3.9388,-3.9388,-3.9388,-3.9388,-3.9388,-3.9388,-3.9388,-3.9388,-3.9388,-3.9388,-3.9388,-3.9301,-3.8657,-3.8107,-3.7563,-3.6972,-3.5142,-3.5251,-3.4705,-3.367,-3.3713,-3.3924,-3.4387,-3.3513,-3.3197,-3.3124,-3.3124,-3.3124,-3.3124,-3.3124,-3.3124,-3.3124,-3.3124,-3.3124,-3.3124,-3.3124,-3.3124,-3.3124,-3.3124,-3.3124,-3.3124,-3.3124,-3.3124,-3.3124,-3.3124,-3.3124,-3.3124,-3.3124,-3.3124,-3.3124,-3.3124,-3.3124,-3.3124,-3.3124,-3.3124,-3.3124,-3.3124,-3.3124,-3.3124,-3.3124,-3.3131,-3.3119,-3.3124,-3.3136,-3.3206,-3.3206,-3.3124,-3.3124,-3.3124,-3.3124,-3.3124,-3.302,-3.2829,-3.2474,-3.2066,-3.1253,-3.0746,-2.9907,-2.8272,-2.6687,-2.5307,-2.4947,-2.4336,-2.4043,-2.3887,-2.3769,-2.3627,-2.3514,-2.344,-2.3431,-2.3609,-2.3806,-2.3619,-2.3481,-2.35,-2.3578,-2.3335,-2.3179,-2.3452,-2.3634,-2.3791,-2.4478,-2.5933,-2.718,-2.8255,-2.89,-3.9035,-3.9409,-3.9388,-3.9388,-3.9388,-3.9388,-3.9388,-3.9388,-3.9388,-3.9388,-3.9388,-3.9388,-3.9388,-3.9388,-3.9388,-3.9388,-3.9388,-3.9388,-3.9388,-3.9388,-3.9265,-3.8368,-3.7625,-3.7021,-3.6436,-3.447,-3.4233,-3.415,-3.3283,-3.3124,-3.324,-3.3428,-3.327,-3.3197,-3.3124,-3.3124,-3.3124,-3.3124,-3.3124,-3.3124,-3.3124,-3.3124,-3.3124,-3.3124,-3.3124,-3.3124,-3.3124,-3.3124,-3.3124,-3.3124,-3.3124,-3.3124,-3.3124,-3.3124,-3.3124,-3.3124,-3.3124,-3.3124,-3.3124,-3.3124,-3.3124,-3.3124,-3.3124,-3.3136,-3.3174,-3.3149,-3.3124,-3.3124,-3.3199,-3.3294,-3.3545,-3.3332,-3.3156,-3.3357,-3.337,-3.325,-3.2989,-3.2915,-3.2382,-3.2064,-3.2142,-3.2164,-3.1756,-3.1298,-3.0425,-2.9553,-2.8681,-2.773,-2.6239,-2.5254,-2.5019,-2.4805,-2.4521,-2.4307,-2.4189,-2.4017,-2.38,-2.3745,-2.3699,-2.3997,-2.4193,-2.4159,-2.4036,-2.4072,-2.4033,-2.3896,-2.3848,-2.3861,-2.4043,-2.4303,-2.5381,-2.6853,-2.8051,-2.9128,-2.9493,-3.8497,-3.908,-3.911,-3.9245,-3.9373,-3.9388,-3.9388,-3.9388,-3.9388,-3.9388,-3.9388,-3.9388,-3.9388,-3.9388,-3.9388,-3.9388,-3.9388,-3.9388,-3.9388,-3.9388,-3.9177,-3.8092,-3.7123,-3.6408,-3.5842,-3.3869,-3.3641,-3.3683,-3.3167,-3.3124,-3.3154,-3.3197,-3.3124,-3.3124,-3.3124,-3.3124,-3.3124,-3.3124,-3.3124,-3.3124,-3.3124,-3.3124,-3.3124,-3.3124,-3.3124,-3.3124,-3.3124,-3.3124,-3.3124,-3.3124,-3.3124,-3.3124,-3.3124,-3.3124,-3.3124,-3.3124,-3.3124,-3.3124,-3.3124,-3.3124,-3.3124,-3.3124,-3.3124,-3.3212,-3.3269,-3.3345,-3.3445,-3.3671,-3.3646,-3.3721,-3.411,-3.3909,-3.3809,-3.4048,-3.3658,-3.3414,-3.2741,-3.2384,-3.1552,-3.0866,-3.0939,-3.0839,-2.9966,-2.9418,-2.8984,-2.8182,-2.7551,-2.6867,-2.6194,-2.5479,-2.5478,-2.5264,-2.5049,-2.4844,-2.4668,-2.4387,-2.4156,-2.4079,-2.4117,-2.4421,-2.4557,-2.4563,-2.458,-2.456,-2.4512,-2.4453,-2.4346,-2.4228,-2.4475,-2.485,-2.6206,-2.7702,-2.8715,-2.9675,-2.9747,-3.7808,-3.8377,-3.8407,-3.8781,-3.9284,-3.9409,-3.9388,-3.9388,-3.9388,-3.9388,-3.9388,-3.9388,-3.9388,-3.9388,-3.9388,-3.9388,-3.9388,-3.9388,-3.9388,-3.9388,-3.9352,-3.8092,-3.6916,-3.6079,-3.54,-3.3628,-3.3326,-3.3368,-3.3124,-3.3124,-3.3124,-3.3124,-3.3124,-3.3124,-3.3124,-3.3124,-3.3124,-3.3124,-3.3124,-3.3124,-3.3124,-3.3124,-3.3124,-3.3124,-3.3124,-3.3124,-3.3124,-3.3124,-3.3124,-3.3124,-3.3124,-3.3124,-3.3124,-3.3124,-3.3124,-3.3124,-3.3124,-3.3136,-3.3149,-3.3149,-3.3212,-3.3244,-3.3345,-3.3533,-3.3784,-3.3922,-3.401,-3.4236,-3.4437,-3.4537,-3.4618,-3.4593,-3.4575,-3.4525,-3.4148,-3.3715,-3.3104,-3.2111,-3.1385,-3.0353,-2.9669,-2.9111,-2.8085,-2.7315,-2.7191,-2.6761,-2.6234,-2.5917,-2.5732,-2.5664,-2.5615,-2.5586,-2.5371,-2.5264,-2.5039,-2.4717,-2.4497,-2.4426,-2.4581,-2.4887,-2.4964,-2.4933,-2.4971,-2.5,-2.4961,-2.4883,-2.4668,-2.4453,-2.5513,-2.6618,-2.7272,-2.8456,-2.9458,-3.0169,-3.029,-3.715,-3.7734,-3.7734,-3.8123,-3.8751,-3.923,-3.9388,-3.9388,-3.9388,-3.9388,-3.9388,-3.9388,-3.9388,-3.9388,-3.9388,-3.9388,-3.9388,-3.9388,-3.9388,-3.9388,-3.9388,-3.8017,-3.6799,-3.596,-3.5075,-3.3628,-3.3124,-3.3124,-3.3124,-3.3124,-3.3124,-3.3124,-3.3124,-3.3124,-3.3124,-3.3124,-3.3124,-3.3124,-3.3124,-3.3124,-3.3124,-3.3124,-3.3124,-3.3124,-3.3124,-3.3124,-3.3124,-3.3124,-3.3124,-3.3124,-3.3124,-3.3124,-3.3124,-3.3124,-3.3124,-3.3124,-3.3136,-3.3269,-3.3483,-3.3633,-3.3621,-3.3721,-3.3909,-3.4135,-3.4424,-3.4437,-3.4575,-3.47,-3.4864,-3.4977,-3.5107,-3.4851,-3.4801,-3.5019,-3.4793,-3.4492,-3.3838,-3.2611,-3.1533,-3.0203,-2.9291,-2.7925,-2.6754,-2.6557,-2.6411,-2.626,-2.5945,-2.582,-2.5732,-2.5684,-2.5654,-2.5654,-2.5615,-2.5566,-2.541,-2.5137,-2.5068,-2.5062,-2.5198,-2.5382,-2.5411,-2.5274,-2.5313,-2.5391,-2.5352,-2.5293,-2.5279,-2.5688,-2.7448,-2.8621,-2.9144,-2.9679,-3.0577,-3.1004,-3.1019,-3.6522,-3.7075,-3.7105,-3.7464,-3.8108,-3.8781,-3.917,-3.9343,-3.9388,-3.9388,-3.9388,-3.9388,-3.9388,-3.9388,-3.9388,-3.9388,-3.9388,-3.9388,-3.9388,-3.9388,-3.9388,-3.8055,-3.6799,-3.6,-3.4952,-3.3628,-3.3124,-3.3124,-3.3124,-3.3124,-3.3124,-3.3124,-3.3124,-3.3124,-3.3124,-3.3124,-3.3124,-3.3124,-3.3124,-3.3124,-3.3124,-3.3124,-3.3124,-3.3124,-3.3124,-3.3124,-3.3124,-3.3124,-3.3124,-3.3124,-3.3124,-3.3124,-3.3124,-3.3124,-3.3124,-3.3124,-3.3162,-3.337,-3.3709,-3.4135,-3.4236,-3.4525,-3.47,-3.4756,-3.4906,-3.4969,-3.5165,-3.5265,-3.5215,-3.5429,-3.5629,-3.5278,-3.5366,-3.5642,-3.5253,-3.494,-3.3924,-3.266,-3.1042,-2.9744,-2.836,-2.697,-2.5985,-2.5907,-2.5877,-2.58,-2.5684,-2.5684,-2.5684,-2.5684,-2.5684,-2.5684,-2.5684,-2.5625,-2.5606,-2.5547,-2.5538,-2.5654,-2.5684,-2.5684,-2.5654,-2.5508,-2.5615,-2.5684,-2.5557,-2.5633,-2.6059,-2.6921,-2.8446,-2.9749,-3.0714,-3.1278,-3.1876,-3.1833,-3.1687,-3.5878,-3.6417,-3.6462,-3.6821,-3.7434,-3.8093,-3.8751,-3.9358,-3.9388,-3.9388,-3.9388,-3.9388,-3.9388,-3.9388,-3.9388,-3.9388,-3.9265,-3.9265,-3.9177,-3.9104,-3.8819,-3.752,-3.6565,-3.5854,-3.4719,-3.367,-3.3124,-3.3124,-3.3124,-3.3124,-3.3124,-3.3124,-3.3124,-3.3124,-3.3124,-3.3124,-3.3124,-3.3124,-3.3124,-3.3124,-3.3124,-3.3124,-3.3124,-3.3124,-3.3124,-3.3124,-3.3124,-3.3124,-3.3124,-3.3124,-3.3124,-3.3124,-3.3124,-3.3124,-3.3124,-3.3124,-3.3136,-3.3508,-3.3985,-3.4462,-3.4989,-3.5265,-3.5115,-3.5215,-3.5391,-3.5592,-3.5717,-3.5918,-3.604,-3.6179,-3.6267,-3.6229,-3.6191,-3.595,-3.5572,-3.4787,-3.3732,-3.2258,-3.0496,-2.8976,-2.7535,-2.6429,-2.5918,-2.5684,-2.5723,-2.5684,-2.5684,-2.5684,-2.5684,-2.5684,-2.5684,-2.5684,-2.5684,-2.5684,-2.5684,-2.5684,-2.5684,-2.5684,-2.5684,-2.5684,-2.5684,-2.5684,-2.5684,-2.5684,-2.5684,-2.6052,-2.6972,-2.8028,-2.9155,-3.0427,-3.1743,-3.2179,-3.2517,-3.2386,-3.2311,-3.5609,-3.5789,-3.5789,-3.6163,-3.6806,-3.7434,-3.8347,-3.9298,-3.9388,-3.9388,-3.9388,-3.9388,-3.9388,-3.9388,-3.9388,-3.9388,-3.9104,-3.8694,-3.8345,-3.8092,-3.7686,-3.6383,-3.5601,-3.5129,-3.422,-3.3556,-3.3124,-3.3124,-3.3124,-3.3124,-3.3124,-3.3124,-3.3124,-3.3124,-3.3124,-3.3124,-3.3124,-3.3124,-3.3124,-3.3124,-3.3124,-3.3124,-3.3124,-3.3124,-3.3124,-3.3124,-3.3124,-3.3124,-3.3124,-3.3124,-3.3124,-3.3124,-3.3124,-3.3124,-3.3124,-3.3174,-3.3432,-3.3909,-3.4462,-3.4956,-3.5516,-3.5918,-3.5881,-3.5956,-3.6094,-3.6107,-3.6169,-3.6342,-3.6417,-3.6417,-3.6263,-3.6216,-3.6121,-3.5829,-3.5276,-3.4234,-3.3159,-3.178,-3.0027,-2.8838,-2.7382,-2.6477,-2.5957,-2.5771,-2.5801,-2.5723,-2.5684,-2.5684,-2.5684,-2.5684,-2.5684,-2.5684,-2.5684,-2.5684,-2.5684,-2.5684,-2.5684,-2.5684,-2.5684,-2.5684,-2.5684,-2.5684,-2.5684,-2.5684,-2.5684,-2.6839,-2.8402,-2.9177,-2.959,-3.1335,-3.2661,-3.2907,-3.3084,-3.2822,-3.2747,-3.5489,-3.5489,-3.5489,-3.5893,-3.6492,-3.6896,-3.7689,-3.8521,-3.885,-3.9125,-3.9373,-3.9388,-3.9388,-3.9388,-3.9373,-3.9141,-3.8671,-3.8196,-3.7715,-3.6968,-3.6408,-3.5722,-3.5061,-3.4594,-3.4079,-3.3484,-3.3124,-3.3124,-3.3124,-3.3124,-3.3124,-3.3124,-3.3124,-3.3124,-3.3124,-3.3124,-3.3124,-3.3124,-3.3124,-3.3124,-3.3124,-3.3124,-3.3124,-3.3124,-3.3124,-3.3124,-3.3124,-3.3124,-3.3124,-3.3124,-3.3124,-3.3124,-3.3124,-3.3124,-3.3124,-3.3212,-3.3571,-3.4085,-3.4625,-3.5144,-3.5768,-3.6182,-3.6417,-3.638,-3.6367,-3.6342,-3.6367,-3.6417,-3.6417,-3.637,-3.6168,-3.5978,-3.5763,-3.5547,-3.4593,-3.3601,-3.2408,-3.1207,-2.9997,-2.885,-2.7752,-2.6743,-2.6221,-2.6025,-2.5849,-2.5742,-2.5684,-2.5684,-2.5684,-2.5684,-2.5684,-2.5684,-2.5684,-2.5684,-2.5684,-2.5684,-2.5684,-2.5684,-2.5684,-2.5684,-2.5684,-2.5684,-2.5684,-2.5684,-2.5684,-2.6839,-2.7851,-2.8993,-2.9772,-3.1424,-3.2711,-3.3056,-3.3129,-3.3036,-3.3011,-3.5489,-3.5489,-3.5504,-3.5833,-3.6372,-3.6417,-3.6791,-3.736,-3.7958,-3.8631,-3.92,-3.9358,-3.9301,-3.9068,-3.9031,-3.8457,-3.7829,-3.7242,-3.6685,-3.6053,-3.5574,-3.5007,-3.4581,-3.447,-3.3797,-3.3313,-3.3124,-3.3124,-3.3124,-3.3124,-3.3124,-3.3124,-3.3124,-3.3124,-3.3124,-3.3124,-3.3124,-3.3124,-3.3124,-3.3124,-3.3124,-3.3124,-3.3124,-3.3124,-3.3124,-3.3124,-3.3124,-3.3124,-3.3124,-3.3124,-3.3124,-3.3124,-3.3124,-3.3124,-3.3124,-3.3375,-3.3721,-3.4211,-3.4788,-3.5307,-3.5855,-3.6254,-3.6417,-3.6417,-3.6417,-3.6417,-3.6417,-3.6216,-3.6156,-3.581,-3.5571,-3.4763,-3.4313,-3.3897,-3.3093,-3.2443,-3.1669,-3.0437,-2.9332,-2.8373,-2.7796,-2.6865,-2.6562,-2.6416,-2.626,-2.5937,-2.5801,-2.581,-2.5684,-2.5684,-2.5684,-2.5684,-2.5684,-2.5684,-2.5684,-2.5684,-2.5684,-2.5684,-2.5684,-2.5684,-2.5684,-2.5684,-2.5684,-2.5684,-2.5732,-2.5917,-2.6744,-2.8215,-2.959,-3.0586,-3.1777,-3.2797,-3.3124,-3.3124,-3.3124,-3.5489,-3.5489,-3.5489,-3.5609,-3.5729,-3.5729,-3.6085,-3.6701,-3.6866,-3.7599,-3.8571,-3.9053,-3.8914,-3.8258,-3.8294,-3.7701,-3.6696,-3.6081,-3.5427,-3.4856,-3.4444,-3.4207,-3.3628,-3.3683,-3.3356,-3.324,-3.3124,-3.3124,-3.3124,-3.3124,-3.3124,-3.3124,-3.3124,-3.3124,-3.3124,-3.3124,-3.3124,-3.3124,-3.3124,-3.3124,-3.3124,-3.3124,-3.3124,-3.3124,-3.3124,-3.3124,-3.3124,-3.3124,-3.3124,-3.3124,-3.3124,-3.3124,-3.3124,-3.3124,-3.3124,-3.3287,-3.396,-3.4474,-3.4951,-3.5542,-3.6119,-3.6304,-3.6417,-3.6417,-3.6417,-3.6417,-3.6263,-3.6013,-3.5702,-3.5271,-3.4569,-3.3613,-3.2744,-3.2241,-3.1633,-3.1173,-3.0762,-2.9704,-2.8542,-2.8124,-2.765,-2.7314,-2.6992,-2.6768,-2.6602,-2.6445,-2.6299,-2.6162,-2.5791,-2.5684,-2.5684,-2.5684,-2.5684,-2.5684,-2.5684,-2.5684,-2.5684,-2.5684,-2.5684,-2.5684,-2.5684,-2.5684,-2.5684,-2.5684,-2.5732,-2.5917,-2.6658,-2.8308,-2.9544,-3.0226,-3.1545,-3.284,-3.3124,-3.3124,-3.3124,-3.51,-3.5457,-3.5489,-3.5246,-3.4872,-3.4839,-3.506,-3.5383,-3.5697,-3.6482,-3.7629,-3.8396,-3.834,-3.7535,-3.7647,-3.6802,-3.5668,-3.5047,-3.4498,-3.3911,-3.3556,-3.3313,-3.3124,-3.3124,-3.3167,-3.3124,-3.3124,-3.3124,-3.3124,-3.3124,-3.3124,-3.3124,-3.3124,-3.3124,-3.3124,-3.3124,-3.3124,-3.3124,-3.3124,-3.3124,-3.3124,-3.3124,-3.3124,-3.3124,-3.3124,-3.3124,-3.3124,-3.3124,-3.3124,-3.3124,-3.3124,-3.3124,-3.3124,-3.3124,-3.3232,-3.3596,-3.4186,-3.4781,-3.5228,-3.5768,-3.6392,-3.6417,-3.6417,-3.6417,-3.6417,-3.637,-3.5823,-3.5511,-3.5066,-3.4629,-3.3353,-3.2292,-3.1633,-3.1081,-3.0276,-2.9565,-2.9408,-2.8903,-2.8396,-2.8212,-2.79,-2.7754,-2.7471,-2.7295,-2.7041,-2.6465,-2.6387,-2.624,-2.5957,-2.5752,-2.5732,-2.5684,-2.5684,-2.5684,-2.5684,-2.5684,-2.5684,-2.5684,-2.5684,-2.5684,-2.5684,-2.5684,-2.5684,-2.5684,-2.5732,-2.5868,-2.6839,-2.8366,-2.9177,-2.9818,-3.1368,-3.3081,-3.3124,-3.3124,-3.3124,-3.4327,-3.5067,-3.51,-3.4624,-3.3891,-3.3808,-3.3822,-3.3942,-3.445,-3.5125,-3.5937,-3.7083,-3.7163,-3.7088,-3.7006,-3.5865,-3.4951,-3.4387,-3.3755,-3.3428,-3.3197,-3.3124,-3.3124,-3.3124,-3.3124,-3.3124,-3.3124,-3.3124,-3.3124,-3.3124,-3.3124,-3.3124,-3.3124,-3.3124,-3.3124,-3.3124,-3.3124,-3.3124,-3.3124,-3.3124,-3.3124,-3.3124,-3.3124,-3.3124,-3.3124,-3.3124,-3.3124,-3.3124,-3.3124,-3.3124,-3.3124,-3.3124,-3.3124,-3.3136,-3.342,-3.3796,-3.4324,-3.4881,-3.5408,-3.5994,-3.6317,-3.6417,-3.6417,-3.6417,-3.637,-3.6108,-3.5571,-3.4617,-3.4178,-3.3415,-3.214,-3.1081,-3.0473,-3.0016,-2.9059,-2.8398,-2.8398,-2.8344,-2.8325,-2.8252,-2.8164,-2.8047,-2.793,-2.7816,-2.7415,-2.6758,-2.6416,-2.6182,-2.6035,-2.5927,-2.5898,-2.5771,-2.5684,-2.5684,-2.5684,-2.5684,-2.5684,-2.5684,-2.5684,-2.5684,-2.5684,-2.5684,-2.5684,-2.5684,-2.5781,-2.6014,-2.6839,-2.8226,-2.8901,-2.9761,-3.1468,-3.3081,-3.3124,-3.3124,-3.3124,-3.2961,-3.315,-3.315,-3.3031,-3.289,-3.2876,-3.2876,-3.289,-3.3002,-3.3213,-3.3713,-3.4198,-3.4752,-3.5561,-3.5303,-3.4581,-3.3924,-3.3598,-3.3484,-3.3167,-3.3124,-3.3124,-3.3124,-3.3124,-3.3124,-3.3124,-3.3124,-3.3124,-3.3124,-3.3124,-3.3124,-3.3124,-3.3124,-3.3124,-3.3124,-3.3124,-3.3124,-3.3124,-3.3124,-3.3124,-3.3124,-3.3124,-3.3124,-3.3124,-3.3124,-3.3124,-3.3124,-3.3124,-3.3124,-3.3124,-3.3124,-3.3124,-3.3124,-3.3174,-3.3432,-3.396,-3.45,-3.5027,-3.5592,-3.6094,-3.6367,-3.6417,-3.637,-3.631,-3.6263,-3.6108,-3.5005,-3.3093,-3.2493,-3.1999,-3.0824,-2.966,-2.8953,-2.8953,-2.8398,-2.8344,-2.8291,-2.8291,-2.8291,-2.8281,-2.8252,-2.8203,-2.8184,-2.8027,-2.7933,-2.7422,-2.7236,-2.6953,-2.6269,-2.6182,-2.6113,-2.5869,-2.5693,-2.5684,-2.5684,-2.5684,-2.5684,-2.5684,-2.5684,-2.5684,-2.5684,-2.5684,-2.5684,-2.5684,-2.5965,-2.6245,-2.7258,-2.8412,-2.9533,-3.0586,-3.1965,-3.3068,-3.3081,-3.3124,-3.3124]},{"header":{"parameterUnit":"m.s-1","parameterCategory":1,"la1":31.0,"la2":29.5877,"lo1":-88.7671,"lo2":-86.6584,"dy":0.0162,"dx":0.0185,"nx":115,"ny":88,"refTime":"2026-02-19T00:00:00:Z","depth":0,"parameterNumber":3,"parameterNumberName":"V-component_of_WINDS"},"data":[0.0,0.0,0.0,0.0,0.0,0.0,0.0,0.0,0.0,0.0,0.0,0.0,0.0,0.0,0.0,0.0,0.0,0.0,0.0,0.0,0.0,0.0,0.0,0.0,0.0,0.0,0.0,0.0,0.0,0.0,0.0,0.0,0.0,0.0,0.0,0.0,0.0,0.0,0.0,0.0,0.0,0.0,0.0,0.0,0.0,0.0,0.0,0.0,0.0,0.0,0.0,0.0,0.0,0.0,0.0,0.0,0.0,0.0,0.0,0.0,0.0,0.0,0.0,0.0,0.0,0.0,0.0,0.0,0.0,0.0,0.0,0.0,0.0,0.0,0.0,0.0,0.0,0.0,0.0,0.0,0.0,0.0,0.0,0.0,0.0,0.0,0.0,0.0,0.0,0.0,0.0,0.0,0.0,0.0,0.0,0.0,0.0,0.0,0.0,0.0,0.0,0.0,0.0,0.0,0.0,0.0,0.0,0.0,0.0,0.0,0.0,0.0,0.0,0.0,0.0,0.0,0.0,0.0,0.0,0.0,0.0,0.0,0.0,0.0,0.0,0.0,0.0,0.0,0.0,0.0,0.0,0.0,0.0,0.0,0.0,0.0,0.0,0.0,0.0,0.0,0.0,0.0,0.0,0.0,0.0,0.0,0.0,0.0,0.0,0.0,0.0,0.0,0.0,0.0,0.0,0.0,0.0,0.0,0.0,0.0,0.0,0.0,0.0,0.0,0.0,0.0,0.0,0.0,0.0,0.0,0.0,0.0,0.0,0.0,0.0,0.0,0.0,0.0,0.0,0.0,0.0,0.0,0.0,0.0,0.0,0.0,0.0,0.0,0.0,0.0,0.0,0.0,0.0,0.0,0.0,0.0,0.0,0.0,0.0,0.0,0.0,0.0,0.0,0.0,0.0,0.0,0.0,0.0,0.0,0.0,0.0,0.0,0.0,0.0,0.0,0.0,0.0,0.0,0.0,0.0,0.0,0.0,0.0,0.0,0.0,0.0,0.0,0.0,0.0,0.0,0.0,0.0,0.0,0.0,0.0,0.0,0.0,0.0,0.0,0.0,0.0,0.0,0.0,0.0,0.0,0.0,0.0,0.0,0.0,0.0,0.0,0.0,0.0,0.0,0.0,0.0,0.0,0.0,0.0,0.0,0.0,0.0,0.0,0.0,0.0,0.0,0.0,0.0,0.0,0.0,0.0,0.0,0.0,0.0,0.0,0.0,0.0,0.0,0.0,0.0,0.0,0.0,0.0,0.0,0.0,0.0,0.0,0.0,0.0,0.0,0.0,0.0,0.0,0.0,0.0,0.0,0.0,0.0,0.0,0.0,0.0,0.0,0.0,0.0,0.0,0.0,0.0,0.0,0.0,0.0,0.0,0.0,0.0,0.0,0.0,0.0,0.0,0.0,0.0,0.0,0.0,0.0,0.0,0.0,0.0,0.0,0.0,0.0,0.0,0.0,0.0,0.0,0.0,0.0,0.0,0.0,0.0,0.0,0.0,0.0,0.0,0.0,0.0,0.0,0.0,0.0,0.0,0.0,0.0,0.0,0.0,0.0,0.0,0.0,0.0,0.0,0.0,0.0,0.0,0.0,0.0,0.0,0.0,0.0,0.0,0.0,0.0,0.0,0.0,0.0,0.0,0.0,0.0,0.0,0.0,0.0,0.0,0.0,0.0,0.0,0.0,0.0,0.0,0.0,0.0,0.0,0.0,0.0,0.0,0.0,0.0,0.0,0.0,0.0,0.0,0.0,0.0,0.0,0.0,0.0,0.0,0.0,0.0,0.0,0.0,0.0,0.0,0.0,0.0,0.0,0.0,0.0,0.0,0.0,0.0,0.0,0.0,0.0,0.0,0.0,0.0,0.0,0.0,0.0,0.0,0.0,0.0,0.0,0.0,0.0,0.0,0.0,0.0,0.0,0.0,0.0,0.0,0.0,0.0,0.0,0.0,0.0,0.0,0.0,0.0,0.0,0.0,0.0,0.0,0.0,0.0,0.0,0.0,0.0,0.0,0.0,0.0,0.0,0.0,0.0,0.0,0.0,0.0,0.0,0.0,0.0,0.0,0.0,0.0,0.0,0.0,0.0,0.0,0.0,0.0,0.0,0.0,0.0,0.0,0.0,0.0,0.0,0.0,0.0,0.0,0.0,0.0,0.0,0.0,0.0,0.0,0.0,0.0,0.0,0.0,0.0,0.0,0.0,0.0,0.0,0.0,0.0,0.0,0.0,0.0,0.0,0.0,0.0,0.0,0.0,0.0,0.0,0.0,0.0,0.0,0.0,0.0,0.0,0.0,0.0,0.0,0.0,0.0,0.0,0.0,0.0,0.0,0.0,0.0,0.0,0.0,0.0,0.0,0.0,0.0,0.0,0.0,0.0,0.0,0.0,0.0,0.0,0.0,0.0,0.0,0.0,0.0,0.0,0.0,0.0,0.0,0.0,0.0,0.0,0.0,0.0,0.0,0.0,0.0,0.0,0.0,0.0,0.0,0.0,0.0,0.0,0.0,0.0,0.0,0.0,0.0,0.0,0.0,0.0,0.0,0.0,0.0,0.0,0.0,0.0,0.0,0.0,0.0,0.0,0.0,0.0,0.0,0.0,0.0,0.0,0.0,0.0,0.0,0.0,0.0,0.0,0.0,0.0,0.0,0.0,0.0,0.0,0.0,0.0,0.0,0.0,0.0,0.0,0.0,0.0,0.0,0.0,0.0,0.0,0.0,0.0,0.0,0.0,0.0,0.0,0.0,0.0,0.0,0.0,0.0,0.0,0.0,0.0,0.0,0.0,0.0,0.0,0.0,0.0,0.0,0.0,0.0,0.0,0.0,0.0,0.0,0.0,0.0,0.0,0.0,0.0,0.0,0.0,0.0,0.0,0.0,0.0,0.0,0.0,0.0,0.0,0.0,0.0,0.0,0.0,0.0,0.0,0.0,0.0,0.0,0.0,0.0,0.0,0.0,0.0,0.0,0.0,0.0,0.0,0.0,0.0,0.0,0.0,0.0,0.0,0.0,0.0,0.0,0.0,0.0,0.0,0.0,0.0,0.0,0.0,0.0,0.0,0.0,0.0,0.0,0.0,0.0,0.0,0.0,0.0,0.0,0.0,0.0,0.0,0.0,0.0,0.0,0.0,0.0,0.0,0.0,0.0,0.0,0.0,0.0,0.0,0.0,0.0,0.0,0.0,0.0,0.0,0.0,0.0,0.0,0.0,0.0,0.0,0.0,0.0,0.0,0.0,0.0,0.0,0.0,0.0,0.0,0.0,0.0,0.0,0.0,0.0,0.0,0.0,0.0,0.0,0.0,0.0,0.0,0.0,0.0,0.0,0.0,0.0,0.0,0.0,0.0,0.0,0.0,0.0,0.0,0.0,0.0,0.0,0.0,0.0,0.0,0.0,0.0,0.0,0.0,0.0,0.0,0.0,0.0,0.0,0.0,0.0,0.0,0.0,0.0,0.0,0.0,0.0,0.0,0.0,0.0,0.0,0.0,0.0,0.0,0.0,0.0,0.0,0.0,0.0,0.0,0.0,0.0,0.0,0.0,0.0,0.0,0.0,0.0,0.0,0.0,0.0,0.0,0.0,0.0,0.0,0.0,0.0,0.0,0.0,0.0,0.0,0.0,0.0,0.0,0.0,0.0,0.0,0.0,0.0,0.0,0.0,0.0,0.0,0.0,0.0,0.0,0.0,0.0,0.0,0.0,0.0,0.0,0.0,0.0,0.0,0.0,0.0,0.0,0.0,0.0,0.0,0.0,0.0,0.0,0.0,0.0,0.0,0.0,0.0,0.0,0.0,0.0,0.0,0.0,0.0,0.0,0.0,0.0,0.0,0.0,0.0,0.0,0.0,0.0,0.0,0.0,0.0,0.0,0.0,0.0,0.0,0.0,0.0,0.0,0.0,0.0,0.0,0.0,0.0,0.0,0.0,0.0,0.0,0.0,0.0,0.0,0.0,0.0,0.0,0.0,0.0,0.0,0.0,0.0,0.0,0.0,0.0,0.0,0.0,0.0,0.0,0.0,0.0,0.0,0.0,0.0,0.0,0.0,0.0,0.0,0.0,0.0,0.0,0.0,0.0,0.0,0.0,0.0,0.0,0.0,0.0,0.0,0.0,0.0,0.0,0.0,0.0,0.0,0.0,0.0,0.0,0.0,0.0,0.0,0.0,0.0,0.0,0.0,0.0,0.0,0.0,0.0,0.0,0.0,0.0,0.0,0.0,0.0,0.0,0.0,0.0,0.0,0.0,0.0,0.0,0.0,0.0,0.0,0.0,-1.8078,0.0,0.0,0.0,0.0,0.0,0.0,0.0,0.0,0.0,0.0,0.0,0.0,0.0,0.0,0.0,0.0,0.0,0.0,0.0,0.0,0.0,0.0,0.0,0.0,0.0,0.0,0.0,0.0,0.0,0.0,0.0,0.0,0.0,0.0,0.0,0.0,0.0,0.0,0.0,0.0,0.0,0.0,0.0,0.0,0.0,0.0,0.0,0.0,0.0,0.0,0.0,0.0,0.0,0.0,0.0,0.0,0.0,0.0,0.0,0.0,0.0,0.0,0.0,0.0,0.0,0.0,0.0,0.0,0.0,0.0,0.0,0.0,0.0,0.0,0.0,0.0,0.0,0.0,0.0,0.0,0.0,0.0,0.0,0.0,0.0,0.0,0.0,0.0,0.0,0.0,0.0,0.0,0.0,0.0,0.0,0.0,0.0,0.0,0.0,0.0,0.0,0.0,0.0,0.0,0.0,0.0,0.0,0.0,0.0,0.0,-1.8581,-1.9309,-1.8581,-1.8204,-1.8179,0.0,0.0,0.0,0.0,0.0,0.0,0.0,0.0,0.0,0.0,0.0,0.0,0.0,0.0,0.0,0.0,0.0,0.0,0.0,0.0,0.0,0.0,0.0,0.0,0.0,0.0,0.0,0.0,0.0,0.0,0.0,0.0,0.0,0.0,0.0,0.0,0.0,0.0,0.0,0.0,0.0,0.0,0.0,0.0,0.0,0.0,0.0,0.0,0.0,0.0,0.0,0.0,0.0,0.0,0.0,0.0,0.0,0.0,0.0,0.0,0.0,0.0,0.0,0.0,0.0,0.0,0.0,0.0,0.0,0.0,0.0,0.0,0.0,0.0,0.0,0.0,0.0,0.0,0.0,0.0,0.0,0.0,0.0,0.0,0.0,0.0,0.0,0.0,0.0,0.0,0.0,0.0,0.0,0.0,0.0,0.0,0.0,0.0,0.0,0.0,0.0,0.0,0.0,0.0,0.0,0.0,0.0,0.0,0.0,0.0,0.0,0.0,-1.8857,-1.8505,-1.838,0.0,0.0,0.0,0.0,0.0,0.0,0.0,0.0,0.0,0.0,0.0,0.0,0.0,0.0,0.0,0.0,0.0,0.0,0.0,0.0,0.0,0.0,0.0,0.0,0.0,0.0,0.0,0.0,0.0,0.0,0.0,0.0,0.0,0.0,0.0,0.0,0.0,0.0,0.0,0.0,0.0,0.0,0.0,0.0,0.0,0.0,0.0,0.0,0.0,0.0,0.0,0.0,0.0,0.0,0.0,0.0,0.0,0.0,0.0,0.0,0.0,0.0,0.0,0.0,0.0,0.0,0.0,0.0,0.0,0.0,0.0,0.0,0.0,0.0,0.0,0.0,0.0,0.0,0.0,0.0,0.0,0.0,0.0,0.0,0.0,0.0,0.0,0.0,0.0,0.0,0.0,0.0,0.0,0.0,0.0,0.0,0.0,0.0,0.0,0.0,0.0,0.0,0.0,0.0,0.0,0.0,0.0,0.0,0.0,0.0,-1.8456,-2.0479,-1.9949,0.0,-1.8958,0.0,0.0,0.0,0.0,0.0,0.0,0.0,0.0,0.0,0.0,0.0,0.0,0.0,0.0,0.0,0.0,0.0,0.0,0.0,0.0,0.0,0.0,0.0,0.0,0.0,0.0,0.0,0.0,0.0,0.0,0.0,0.0,0.0,0.0,0.0,0.0,0.0,0.0,0.0,0.0,0.0,0.0,0.0,0.0,0.0,0.0,0.0,0.0,0.0,0.0,0.0,0.0,0.0,0.0,0.0,0.0,0.0,0.0,0.0,0.0,0.0,0.0,0.0,0.0,0.0,0.0,0.0,0.0,0.0,0.0,0.0,0.0,0.0,0.0,0.0,0.0,0.0,0.0,0.0,0.0,0.0,0.0,0.0,0.0,0.0,0.0,0.0,0.0,0.0,0.0,0.0,0.0,0.0,0.0,0.0,0.0,0.0,0.0,0.0,0.0,0.0,0.0,0.0,0.0,0.0,0.0,0.0,0.0,0.0,0.0,-1.9257,-2.015,-1.9924,-1.9534,0.0,0.0,0.0,0.0,0.0,0.0,0.0,0.0,0.0,0.0,0.0,0.0,0.0,0.0,0.0,0.0,0.0,0.0,0.0,0.0,0.0,0.0,0.0,0.0,0.0,0.0,0.0,0.0,0.0,0.0,0.0,0.0,0.0,0.0,0.0,0.0,0.0,0.0,0.0,0.0,0.0,0.0,0.0,0.0,0.0,0.0,0.0,0.0,0.0,0.0,0.0,0.0,0.0,0.0,0.0,0.0,0.0,0.0,0.0,0.0,0.0,0.0,0.0,0.0,0.0,0.0,0.0,0.0,0.0,0.0,0.0,0.0,0.0,0.0,0.0,0.0,0.0,0.0,0.0,0.0,0.0,0.0,0.0,0.0,0.0,0.0,0.0,0.0,0.0,0.0,0.0,0.0,0.0,0.0,0.0,0.0,0.0,0.0,0.0,0.0,0.0,0.0,0.0,0.0,0.0,0.0,0.0,0.0,0.0,0.0,-1.8991,-1.9781,-2.0246,-2.0263,-1.9874,-1.9008,0.0,0.0,0.0,0.0,0.0,0.0,0.0,0.0,0.0,0.0,0.0,0.0,0.0,0.0,0.0,0.0,0.0,0.0,0.0,0.0,0.0,0.0,0.0,0.0,0.0,0.0,0.0,0.0,0.0,0.0,0.0,0.0,0.0,0.0,0.0,0.0,0.0,0.0,0.0,0.0,0.0,0.0,0.0,0.0,0.0,0.0,0.0,0.0,0.0,0.0,0.0,0.0,0.0,0.0,0.0,0.0,0.0,0.0,0.0,0.0,0.0,0.0,0.0,0.0,0.0,0.0,0.0,0.0,0.0,0.0,0.0,0.0,0.0,0.0,0.0,0.0,0.0,0.0,0.0,0.0,0.0,0.0,0.0,0.0,0.0,0.0,0.0,0.0,0.0,0.0,0.0,0.0,0.0,0.0,0.0,0.0,0.0,0.0,0.0,0.0,0.0,0.0,0.0,0.0,0.0,0.0,0.0,0.0,-2.1004,-1.9793,-1.9797,-2.1377,-2.1418,-2.0665,0.0,0.0,0.0,0.0,0.0,0.0,0.0,0.0,0.0,0.0,0.0,0.0,0.0,0.0,0.0,0.0,0.0,0.0,0.0,0.0,0.0,0.0,0.0,0.0,0.0,0.0,0.0,0.0,0.0,0.0,0.0,0.0,0.0,0.0,0.0,0.0,0.0,0.0,0.0,0.0,0.0,0.0,0.0,0.0,0.0,0.0,0.0,0.0,0.0,0.0,0.0,0.0,0.0,0.0,0.0,0.0,0.0,0.0,0.0,0.0,0.0,0.0,0.0,0.0,0.0,0.0,0.0,0.0,0.0,0.0,0.0,0.0,0.0,0.0,0.0,0.0,0.0,0.0,0.0,0.0,0.0,0.0,0.0,0.0,0.0,0.0,0.0,0.0,0.0,0.0,0.0,0.0,0.0,0.0,0.0,0.0,0.0,0.0,0.0,0.0,0.0,0.0,0.0,0.0,0.0,0.0,0.0,0.0,0.0,-1.8243,-1.8758,-2.0311,-2.2912,-2.1041,-2.0125,0.0,0.0,0.0,0.0,0.0,0.0,0.0,0.0,0.0,0.0,0.0,0.0,0.0,0.0,0.0,0.0,0.0,0.0,0.0,0.0,0.0,0.0,0.0,0.0,0.0,0.0,0.0,0.0,0.0,0.0,0.0,0.0,0.0,0.0,0.0,0.0,0.0,0.0,0.0,0.0,0.0,0.0,0.0,0.0,0.0,0.0,0.0,0.0,0.0,0.0,0.0,0.0,0.0,0.0,0.0,0.0,0.0,0.0,0.0,0.0,0.0,0.0,0.0,0.0,0.0,0.0,0.0,0.0,0.0,0.0,0.0,0.0,0.0,0.0,0.0,0.0,0.0,0.0,0.0,0.0,0.0,0.0,0.0,0.0,0.0,0.0,0.0,0.0,0.0,0.0,0.0,0.0,0.0,0.0,0.0,0.0,0.0,0.0,0.0,0.0,0.0,0.0,0.0,0.0,0.0,0.0,0.0,0.0,0.0,-1.8104,0.0,-2.1252,-2.2975,-2.084,-1.9673,0.0,0.0,0.0,0.0,0.0,0.0,0.0,0.0,0.0,0.0,0.0,0.0,0.0,0.0,0.0,0.0,0.0,0.0,0.0,0.0,0.0,0.0,0.0,0.0,0.0,0.0,0.0,0.0,0.0,0.0,0.0,0.0,0.0,0.0,0.0,0.0,0.0,0.0,0.0,0.0,0.0,0.0,0.0,0.0,0.0,0.0,0.0,0.0,0.0,0.0,0.0,0.0,0.0,0.0,0.0,0.0,0.0,0.0,0.0,0.0,0.0,0.0,0.0,0.0,0.0,0.0,0.0,0.0,0.0,0.0,0.0,0.0,0.0,0.0,0.0,0.0,0.0,0.0,0.0,0.0,0.0,0.0,0.0,0.0,0.0,0.0,0.0,0.0,0.0,0.0,0.0,0.0,0.0,0.0,0.0,0.0,0.0,0.0,0.0,0.0,0.0,0.0,0.0,0.0,0.0,0.0,0.0,0.0,-1.8141,-2.1253,-2.2367,-2.2456,-2.1581,-2.0943,-1.9384,0.0,0.0,0.0,0.0,0.0,0.0,0.0,0.0,0.0,0.0,0.0,0.0,0.0,0.0,0.0,0.0,0.0,0.0,0.0,0.0,0.0,0.0,0.0,0.0,0.0,0.0,0.0,0.0,0.0,0.0,0.0,0.0,0.0,0.0,0.0,0.0,0.0,0.0,0.0,0.0,0.0,0.0,0.0,0.0,0.0,0.0,0.0,0.0,0.0,0.0,0.0,0.0,0.0,0.0,0.0,0.0,0.0,0.0,0.0,0.0,0.0,0.0,0.0,0.0,0.0,0.0,0.0,0.0,0.0,0.0,0.0,0.0,0.0,0.0,0.0,0.0,0.0,0.0,0.0,0.0,0.0,0.0,0.0,0.0,0.0,0.0,0.0,0.0,0.0,0.0,0.0,0.0,0.0,0.0,0.0,0.0,0.0,0.0,0.0,0.0,0.0,0.0,0.0,0.0,0.0,0.0,0.0,0.0,0.0,-1.9256,-2.0677,-2.2008,-2.3062,-2.0439,-1.9459,0.0,0.0,0.0,0.0,0.0,0.0,0.0,0.0,0.0,0.0,0.0,0.0,0.0,0.0,0.0,0.0,0.0,0.0,0.0,0.0,0.0,0.0,0.0,0.0,0.0,0.0,0.0,0.0,0.0,0.0,0.0,0.0,0.0,0.0,0.0,0.0,0.0,0.0,0.0,0.0,0.0,0.0,0.0,0.0,0.0,0.0,0.0,0.0,0.0,0.0,0.0,0.0,0.0,0.0,0.0,0.0,0.0,0.0,0.0,0.0,0.0,0.0,0.0,0.0,0.0,0.0,0.0,0.0,0.0,0.0,0.0,0.0,0.0,0.0,0.0,0.0,0.0,0.0,0.0,0.0,0.0,0.0,0.0,0.0,0.0,0.0,0.0,0.0,0.0,0.0,0.0,0.0,0.0,0.0,0.0,0.0,0.0,0.0,0.0,0.0,0.0,0.0,0.0,0.0,0.0,0.0,0.0,0.0,0.0,-2.0478,-2.2017,-2.3218,-2.3979,-2.1029,-1.9849,-2.0677,0.0,0.0,0.0,0.0,0.0,0.0,0.0,0.0,0.0,0.0,0.0,0.0,0.0,0.0,0.0,0.0,0.0,0.0,0.0,0.0,0.0,0.0,0.0,0.0,0.0,0.0,0.0,0.0,0.0,0.0,0.0,0.0,0.0,0.0,0.0,0.0,0.0,0.0,0.0,0.0,0.0,0.0,0.0,0.0,0.0,0.0,0.0,0.0,0.0,0.0,0.0,0.0,0.0,0.0,0.0,0.0,0.0,0.0,0.0,0.0,0.0,0.0,0.0,0.0,0.0,0.0,0.0,0.0,0.0,0.0,0.0,0.0,0.0,0.0,0.0,0.0,0.0,0.0,0.0,0.0,0.0,0.0,0.0,0.0,0.0,0.0,0.0,0.0,0.0,0.0,0.0,0.0,0.0,0.0,0.0,0.0,0.0,0.0,0.0,0.0,0.0,0.0,0.0,0.0,0.0,0.0,0.0,0.0,-2.4079,-2.5795,-2.5896,-2.4305,-2.2523,-2.0589,0.0,0.0,0.0,0.0,0.0,0.0,0.0,0.0,0.0,0.0,0.0,0.0,0.0,0.0,0.0,0.0,0.0,0.0,0.0,0.0,0.0,0.0,0.0,0.0,0.0,0.0,0.0,0.0,0.0,0.0,0.0,0.0,0.0,0.0,0.0,0.0,0.0,0.0,0.0,0.0,0.0,0.0,0.0,0.0,0.0,0.0,0.0,0.0,0.0,0.0,0.0,0.0,0.0,0.0,0.0,0.0,0.0,0.0,0.0,0.0,0.0,0.0,0.0,0.0,0.0,0.0,0.0,0.0,0.0,0.0,0.0,0.0,0.0,0.0,0.0,0.0,0.0,0.0,0.0,0.0,0.0,0.0,0.0,0.0,0.0,0.0,0.0,0.0,0.0,0.0,0.0,0.0,0.0,0.0,0.0,0.0,0.0,0.0,0.0,0.0,0.0,0.0,0.0,0.0,0.0,0.0,0.0,0.0,0.0,-2.5172,-2.762,-2.8323,-2.7017,-2.4186,-2.2217,0.0,0.0,0.0,0.0,0.0,0.0,0.0,0.0,0.0,0.0,0.0,0.0,0.0,0.0,0.0,0.0,0.0,0.0,0.0,0.0,0.0,0.0,0.0,0.0,0.0,0.0,0.0,0.0,0.0,0.0,0.0,0.0,0.0,0.0,0.0,0.0,0.0,0.0,0.0,0.0,0.0,0.0,0.0,0.0,0.0,0.0,0.0,0.0,0.0,0.0,0.0,0.0,0.0,0.0,0.0,0.0,0.0,0.0,0.0,0.0,0.0,0.0,0.0,0.0,0.0,0.0,0.0,0.0,0.0,0.0,0.0,0.0,0.0,0.0,0.0,0.0,0.0,0.0,0.0,0.0,0.0,0.0,0.0,0.0,0.0,0.0,0.0,0.0,0.0,0.0,0.0,0.0,0.0,0.0,0.0,0.0,0.0,0.0,0.0,0.0,0.0,0.0,0.0,0.0,0.0,0.0,0.0,0.0,-2.4048,-2.6907,-2.9264,-3.0156,-2.949,-2.649,-2.3954,0.0,0.0,0.0,0.0,0.0,0.0,0.0,0.0,0.0,0.0,0.0,0.0,0.0,0.0,0.0,0.0,0.0,0.0,0.0,0.0,0.0,0.0,0.0,0.0,0.0,0.0,0.0,0.0,0.0,0.0,0.0,0.0,0.0,0.0,0.0,0.0,0.0,0.0,0.0,0.0,0.0,0.0,0.0,0.0,0.0,0.0,0.0,0.0,0.0,0.0,0.0,0.0,0.0,0.0,0.0,0.0,0.0,0.0,0.0,0.0,0.0,0.0,0.0,0.0,0.0,0.0,0.0,0.0,0.0,0.0,0.0,0.0,0.0,0.0,0.0,0.0,0.0,0.0,0.0,0.0,0.0,0.0,0.0,0.0,0.0,0.0,0.0,0.0,0.0,0.0,0.0,0.0,0.0,0.0,0.0,0.0,0.0,0.0,0.0,0.0,0.0,0.0,0.0,0.0,0.0,0.0,0.0,0.0,-2.5076,-2.8712,-3.057,-3.1449,-3.1323,-2.8775,-2.5598,0.0,0.0,0.0,0.0,0.0,0.0,0.0,0.0,0.0,0.0,0.0,0.0,0.0,0.0,0.0,0.0,0.0,0.0,0.0,0.0,0.0,0.0,0.0,0.0,0.0,0.0,0.0,0.0,0.0,0.0,0.0,0.0,0.0,0.0,0.0,0.0,0.0,0.0,0.0,0.0,0.0,0.0,0.0,0.0,0.0,0.0,0.0,0.0,0.0,0.0,0.0,0.0,0.0,0.0,0.0,0.0,0.0,0.0,0.0,0.0,0.0,0.0,0.0,0.0,0.0,0.0,0.0,0.0,0.0,0.0,0.0,0.0,0.0,0.0,0.0,0.0,0.0,0.0,0.0,0.0,0.0,0.0,0.0,0.0,0.0,0.0,0.0,0.0,0.0,0.0,0.0,0.0,0.0,0.0,0.0,0.0,0.0,0.0,0.0,0.0,0.0,0.0,0.0,0.0,0.0,0.0,0.0,0.0,-2.5699,-2.8247,-3.0746,-3.1825,-3.1386,-2.9139,-2.6527,0.0,0.0,0.0,0.0,0.0,0.0,0.0,0.0,0.0,0.0,0.0,0.0,0.0,0.0,0.0,0.0,0.0,0.0,0.0,0.0,0.0,0.0,0.0,0.0,0.0,0.0,0.0,0.0,0.0,0.0,0.0,0.0,0.0,0.0,0.0,0.0,0.0,0.0,0.0,0.0,0.0,0.0,0.0,0.0,0.0,0.0,0.0,0.0,-2.2488,0.0,0.0,0.0,0.0,0.0,0.0,0.0,0.0,0.0,0.0,0.0,0.0,0.0,0.0,0.0,0.0,0.0,0.0,0.0,0.0,0.0,0.0,0.0,0.0,0.0,0.0,0.0,0.0,0.0,0.0,0.0,0.0,0.0,0.0,0.0,0.0,0.0,0.0,0.0,0.0,0.0,0.0,0.0,0.0,0.0,0.0,0.0,0.0,0.0,0.0,0.0,0.0,0.0,0.0,0.0,0.0,0.0,0.0,0.0,-2.6515,-2.9214,-3.1198,-3.2077,-3.1725,-2.9905,-2.7356,0.0,0.0,0.0,0.0,0.0,0.0,0.0,0.0,0.0,0.0,0.0,0.0,0.0,0.0,0.0,0.0,0.0,0.0,0.0,0.0,0.0,0.0,0.0,0.0,0.0,0.0,0.0,0.0,0.0,0.0,0.0,0.0,0.0,0.0,0.0,0.0,0.0,0.0,0.0,0.0,0.0,0.0,0.0,0.0,0.0,0.0,0.0,0.0,0.0,0.0,0.0,0.0,0.0,0.0,0.0,0.0,0.0,0.0,0.0,0.0,0.0,0.0,0.0,0.0,0.0,0.0,0.0,0.0,0.0,0.0,0.0,0.0,0.0,0.0,0.0,0.0,0.0,0.0,0.0,0.0,0.0,0.0,0.0,0.0,0.0,0.0,0.0,0.0,0.0,0.0,0.0,0.0,0.0,0.0,0.0,0.0,0.0,0.0,0.0,0.0,0.0,0.0,0.0,0.0,0.0,0.0,0.0,-2.4544,-2.7105,-3.0357,-3.1537,-3.2051,-3.1951,-3.047,-2.7883,-2.4167,0.0,0.0,0.0,0.0,0.0,0.0,0.0,0.0,0.0,0.0,0.0,0.0,0.0,0.0,0.0,0.0,0.0,0.0,0.0,0.0,0.0,0.0,0.0,0.0,0.0,0.0,0.0,0.0,0.0,0.0,0.0,0.0,0.0,0.0,0.0,0.0,0.0,0.0,-2.0531,-2.1849,0.0,0.0,0.0,0.0,0.0,0.0,0.0,0.0,-2.3467,0.0,0.0,0.0,0.0,0.0,0.0,0.0,0.0,0.0,0.0,0.0,0.0,0.0,0.0,0.0,0.0,0.0,0.0,0.0,0.0,0.0,0.0,0.0,0.0,0.0,0.0,0.0,0.0,0.0,0.0,0.0,0.0,0.0,0.0,0.0,0.0,0.0,0.0,0.0,0.0,0.0,0.0,0.0,0.0,0.0,0.0,0.0,0.0,0.0,0.0,0.0,0.0,0.0,0.0,0.0,0.0,-2.4299,-2.4738,-2.6531,-2.9842,-3.0972,-3.1323,-3.0831,-2.9665,-2.7469,-2.418,0.0,0.0,0.0,0.0,0.0,0.0,0.0,0.0,0.0,0.0,0.0,0.0,0.0,0.0,0.0,0.0,0.0,0.0,0.0,0.0,0.0,0.0,0.0,0.0,0.0,0.0,0.0,0.0,0.0,0.0,0.0,0.0,0.0,0.0,0.0,0.0,0.0,0.0,0.0,-2.6273,-2.7455,0.0,0.0,0.0,0.0,0.0,0.0,0.0,0.0,-2.377,0.0,0.0,0.0,0.0,0.0,0.0,0.0,0.0,0.0,0.0,0.0,0.0,0.0,0.0,0.0,0.0,0.0,0.0,0.0,0.0,0.0,0.0,0.0,0.0,0.0,0.0,0.0,0.0,0.0,0.0,0.0,0.0,0.0,0.0,0.0,0.0,0.0,0.0,0.0,0.0,0.0,0.0,0.0,0.0,0.0,0.0,0.0,0.0,0.0,0.0,0.0,0.0,0.0,0.0,0.0,-2.3797,-2.5615,-2.772,-3.0131,-3.0984,-3.1135,-3.0595,-2.8687,-2.649,0.0,0.0,0.0,0.0,0.0,0.0,0.0,0.0,0.0,0.0,0.0,0.0,0.0,0.0,0.0,0.0,0.0,0.0,0.0,0.0,0.0,0.0,0.0,0.0,0.0,0.0,0.0,0.0,0.0,0.0,0.0,0.0,0.0,0.0,0.0,0.0,0.0,0.0,0.0,0.0,-2.772,-2.8708,-3.0402,0.0,0.0,0.0,0.0,0.0,0.0,-2.4941,-2.4208,0.0,0.0,0.0,0.0,0.0,0.0,0.0,0.0,0.0,0.0,0.0,0.0,0.0,0.0,0.0,0.0,0.0,0.0,0.0,0.0,0.0,0.0,0.0,0.0,0.0,0.0,0.0,0.0,0.0,0.0,0.0,0.0,0.0,0.0,0.0,0.0,0.0,0.0,0.0,0.0,0.0,0.0,0.0,0.0,0.0,0.0,0.0,0.0,0.0,0.0,0.0,0.0,0.0,0.0,0.0,-2.312,-2.6076,-2.8524,-3.0357,-3.0846,-3.0871,-3.0419,-2.8072,-2.5896,0.0,0.0,0.0,0.0,0.0,0.0,0.0,0.0,0.0,0.0,0.0,0.0,0.0,0.0,0.0,0.0,0.0,0.0,0.0,0.0,0.0,0.0,0.0,0.0,0.0,0.0,0.0,0.0,0.0,0.0,0.0,0.0,0.0,0.0,0.0,0.0,0.0,0.0,0.0,0.0,0.0,-2.9906,-3.2317,-3.0131,0.0,0.0,0.0,0.0,-2.6572,-2.6473,0.0,0.0,0.0,0.0,0.0,0.0,0.0,0.0,0.0,0.0,0.0,0.0,0.0,0.0,0.0,0.0,0.0,0.0,0.0,0.0,0.0,0.0,0.0,0.0,0.0,0.0,0.0,0.0,0.0,0.0,0.0,0.0,0.0,0.0,0.0,0.0,0.0,0.0,0.0,0.0,0.0,0.0,0.0,0.0,0.0,0.0,0.0,0.0,0.0,0.0,0.0,0.0,0.0,0.0,0.0,0.0,-2.3032,-2.4946,-2.7205,-2.9729,-2.9942,-2.9942,-2.9867,-2.8599,-2.6405,0.0,0.0,0.0,0.0,0.0,0.0,0.0,0.0,0.0,0.0,0.0,0.0,0.0,0.0,0.0,0.0,0.0,0.0,0.0,0.0,0.0,0.0,0.0,0.0,0.0,0.0,0.0,0.0,0.0,0.0,0.0,0.0,0.0,0.0,0.0,0.0,0.0,0.0,0.0,0.0,0.0,-3.2811,-3.0372,-3.0118,-2.9714,0.0,0.0,-2.931,-2.9849,-3.136,0.0,0.0,0.0,0.0,0.0,0.0,0.0,0.0,0.0,0.0,0.0,0.0,0.0,0.0,0.0,0.0,0.0,0.0,0.0,0.0,0.0,0.0,0.0,0.0,0.0,0.0,0.0,0.0,0.0,0.0,0.0,0.0,0.0,0.0,0.0,0.0,0.0,0.0,0.0,0.0,0.0,0.0,0.0,0.0,0.0,0.0,0.0,0.0,0.0,0.0,0.0,0.0,0.0,0.0,0.0,-2.0752,-2.3095,-2.5665,-2.7908,-2.9704,-2.9779,-2.9628,-2.9302,-2.7283,-2.5089,0.0,0.0,0.0,0.0,0.0,0.0,0.0,0.0,0.0,0.0,0.0,0.0,0.0,0.0,0.0,0.0,0.0,0.0,0.0,0.0,0.0,0.0,0.0,0.0,0.0,0.0,0.0,0.0,0.0,0.0,0.0,0.0,0.0,0.0,0.0,0.0,0.0,0.0,0.0,0.0,0.0,0.0,-3.2856,-3.2512,0.0,0.0,0.0,-3.1644,-3.1122,0.0,0.0,0.0,0.0,0.0,0.0,0.0,0.0,0.0,0.0,0.0,0.0,0.0,0.0,0.0,0.0,0.0,0.0,0.0,0.0,0.0,0.0,0.0,0.0,0.0,0.0,0.0,0.0,0.0,0.0,0.0,0.0,0.0,0.0,0.0,0.0,0.0,0.0,0.0,0.0,0.0,0.0,0.0,0.0,0.0,0.0,0.0,0.0,0.0,0.0,0.0,0.0,0.0,0.0,0.0,0.0,0.0,-2.312,-2.6276,-2.8511,-2.9729,-2.9779,-2.9515,-2.8875,-2.6631,0.0,0.0,0.0,0.0,0.0,0.0,0.0,0.0,0.0,0.0,0.0,0.0,0.0,0.0,0.0,0.0,0.0,0.0,0.0,0.0,0.0,0.0,0.0,0.0,0.0,0.0,0.0,-1.6413,0.0,0.0,0.0,0.0,0.0,0.0,0.0,0.0,0.0,0.0,0.0,0.0,0.0,0.0,-3.1674,-3.4158,-3.4218,-3.4053,0.0,0.0,-3.3664,-3.2662,-3.3634,-3.2962,0.0,0.0,0.0,0.0,0.0,0.0,0.0,0.0,0.0,0.0,0.0,0.0,0.0,0.0,0.0,0.0,0.0,0.0,0.0,0.0,0.0,0.0,0.0,0.0,0.0,0.0,0.0,0.0,0.0,0.0,0.0,0.0,0.0,0.0,0.0,0.0,0.0,0.0,0.0,0.0,0.0,0.0,0.0,0.0,0.0,0.0,0.0,0.0,0.0,0.0,0.0,0.0,0.0,0.0,0.0,-2.3095,-2.5912,-2.8147,-2.9716,-2.9779,-2.9515,-2.8888,-2.7745,-2.5586,0.0,0.0,0.0,0.0,0.0,0.0,0.0,0.0,0.0,0.0,0.0,0.0,0.0,0.0,0.0,0.0,0.0,0.0,0.0,0.0,0.0,0.0,0.0,0.0,0.0,0.0,0.0,0.0,0.0,0.0,0.0,0.0,0.0,0.0,0.0,0.0,0.0,0.0,0.0,0.0,0.0,-3.1511,-3.1735,-3.3844,-3.5594,0.0,0.0,-3.534,-3.525,-3.7808,-3.7305,-2.9754,0.0,0.0,0.0,0.0,0.0,0.0,0.0,0.0,0.0,0.0,0.0,0.0,0.0,0.0,0.0,0.0,0.0,0.0,0.0,0.0,0.0,0.0,0.0,0.0,0.0,0.0,0.0,0.0,0.0,0.0,0.0,0.0,0.0,0.0,0.0,0.0,0.0,0.0,0.0,0.0,0.0,0.0,0.0,0.0,0.0,0.0,0.0,0.0,0.0,0.0,0.0,0.0,0.0,-2.0362,-2.3053,-2.5875,-2.8097,-2.9704,-2.9779,-2.9352,-2.8448,-2.7344,-2.5242,0.0,0.0,0.0,0.0,0.0,0.0,0.0,0.0,0.0,0.0,0.0,0.0,0.0,0.0,0.0,0.0,0.0,0.0,0.0,0.0,0.0,0.0,0.0,0.0,0.0,0.0,0.0,0.0,-2.0243,-2.0228,-1.9405,0.0,0.0,0.0,0.0,0.0,0.0,0.0,0.0,0.0,0.0,-3.2228,-3.4292,-3.5774,0.0,0.0,-3.7449,-3.7135,-3.6731,-3.706,-3.5649,-3.059,-2.8825,0.0,0.0,0.0,0.0,0.0,0.0,0.0,0.0,0.0,0.0,0.0,0.0,0.0,0.0,0.0,0.0,0.0,0.0,0.0,0.0,0.0,0.0,0.0,0.0,0.0,0.0,0.0,0.0,0.0,0.0,0.0,0.0,0.0,0.0,0.0,0.0,0.0,0.0,0.0,0.0,0.0,0.0,0.0,0.0,0.0,0.0,0.0,0.0,0.0,0.0,0.0,0.0,-2.0114,-2.2841,-2.5648,-2.786,-2.9487,-2.9715,-2.9252,-2.8134,-2.7193,-2.5242,0.0,0.0,0.0,0.0,0.0,0.0,0.0,0.0,0.0,0.0,0.0,0.0,0.0,0.0,0.0,0.0,0.0,0.0,0.0,0.0,0.0,0.0,0.0,0.0,0.0,0.0,0.0,0.0,-2.0976,-2.0572,-1.9241,0.0,0.0,0.0,0.0,0.0,0.0,0.0,0.0,0.0,0.0,-3.2856,-3.5774,-3.6896,-3.7569,-3.8033,-3.7764,-3.7375,-3.6911,-3.6252,-3.46,-3.108,0.0,0.0,0.0,0.0,0.0,0.0,0.0,0.0,0.0,0.0,0.0,0.0,0.0,0.0,0.0,0.0,0.0,0.0,0.0,0.0,0.0,0.0,0.0,0.0,0.0,0.0,0.0,0.0,0.0,0.0,-1.5693,0.0,0.0,0.0,0.0,0.0,0.0,0.0,0.0,0.0,0.0,0.0,0.0,0.0,0.0,0.0,0.0,0.0,0.0,0.0,0.0,0.0,0.0,-1.9597,-2.2302,-2.5109,-2.7288,-2.8853,-2.9499,-2.9227,-2.8122,-2.7557,-2.5937,-2.31,0.0,0.0,0.0,0.0,0.0,0.0,0.0,0.0,0.0,0.0,0.0,0.0,0.0,0.0,0.0,0.0,0.0,0.0,0.0,0.0,0.0,0.0,0.0,0.0,0.0,0.0,-1.8942,-1.9375,-1.9271,0.0,0.0,0.0,0.0,0.0,0.0,0.0,0.0,0.0,0.0,-3.0013,-3.323,-3.5265,-3.6611,-3.7434,-3.7464,-3.6432,-3.5609,-3.5639,-3.6043,-3.5123,0.0,0.0,0.0,0.0,0.0,0.0,0.0,0.0,0.0,0.0,0.0,0.0,0.0,0.0,0.0,0.0,0.0,0.0,0.0,0.0,0.0,0.0,0.0,0.0,0.0,0.0,0.0,-1.8505,-1.8155,0.0,0.0,0.0,0.0,0.0,0.0,0.0,0.0,0.0,0.0,0.0,-2.0413,-2.0953,0.0,0.0,0.0,0.0,0.0,0.0,0.0,0.0,0.0,0.0,0.0,0.0,-1.9559,-2.2263,-2.4677,-2.6684,-2.8325,-2.8561,-2.8325,-2.7582,-2.703,-2.5299,-2.2207,0.0,0.0,0.0,0.0,0.0,0.0,0.0,0.0,0.0,0.0,0.0,0.0,0.0,0.0,0.0,0.0,0.0,0.0,0.0,0.0,0.0,0.0,0.0,0.0,0.0,-2.0255,0.0,0.0,0.0,0.0,0.0,0.0,0.0,0.0,0.0,0.0,0.0,-2.551,-2.8771,-3.1869,-3.4382,-3.5953,-3.6866,-3.7554,0.0,0.0,0.0,0.0,0.0,0.0,0.0,0.0,0.0,0.0,0.0,0.0,0.0,0.0,-3.2527,-2.7515,-2.5869,-2.5294,-2.5309,0.0,0.0,0.0,0.0,0.0,0.0,0.0,0.0,0.0,0.0,0.0,0.0,0.0,0.0,-2.0125,0.0,-1.9522,0.0,0.0,0.0,0.0,0.0,0.0,0.0,0.0,-2.1773,-2.2791,-2.2949,-2.3489,-2.3364,0.0,-2.2313,-2.069,0.0,0.0,0.0,0.0,0.0,0.0,0.0,0.0,-1.9927,-2.2302,-2.4684,-2.6553,-2.7753,-2.7989,-2.7848,-2.7293,-2.6587,-2.4919,-2.2205,-2.0788,-1.9596,0.0,0.0,0.0,0.0,0.0,0.0,0.0,0.0,0.0,0.0,0.0,0.0,0.0,0.0,0.0,0.0,0.0,0.0,0.0,0.0,0.0,0.0,0.0,-2.0598,0.0,0.0,0.0,0.0,0.0,0.0,0.0,0.0,0.0,-2.2742,-2.5211,-2.8023,-3.0821,-3.3305,-3.516,-3.6028,0.0,0.0,0.0,0.0,0.0,0.0,0.0,-3.3481,-3.3223,-3.2168,-3.138,-3.1528,-3.3726,-3.528,-3.4638,0.0,0.0,-3.1195,-2.9609,-2.9071,-2.9307,-2.9352,-2.951,-3.0183,-3.1023,-3.1649,0.0,0.0,0.0,0.0,0.0,0.0,0.0,0.0,-2.0949,-2.1496,0.0,-2.074,0.0,0.0,0.0,0.0,0.0,-2.0828,0.0,0.0,-2.5154,-2.621,-2.5711,-2.6248,-2.5937,-2.5001,-2.5912,-2.5028,-2.2259,-1.8103,0.0,0.0,0.0,0.0,0.0,0.0,-2.0655,-2.2365,-2.5023,-2.6728,-2.7274,-2.7786,-2.782,-2.7301,-2.6244,-2.4929,-2.3402,-2.343,-2.218,-1.947,-1.9157,0.0,0.0,0.0,0.0,0.0,0.0,0.0,0.0,0.0,0.0,0.0,0.0,0.0,0.0,0.0,0.0,0.0,0.0,0.0,0.0,-1.9927,0.0,0.0,0.0,0.0,0.0,0.0,0.0,0.0,0.0,0.0,-2.5053,-2.7694,-3.0387,-3.2317,0.0,0.0,0.0,0.0,-3.6267,-3.5714,-3.5026,-3.4668,-3.4713,-3.5115,-3.5259,-3.4683,0.0,0.0,-3.3993,-3.5759,-3.6851,-3.5058,-3.6312,-3.7464,-3.733,-3.5085,-3.3694,-3.4249,-3.3365,-3.2901,-3.3562,-3.4565,-3.5466,-2.4026,0.0,0.0,0.0,0.0,-2.2235,-2.3382,-2.5352,-2.5001,-2.4544,-2.4036,-2.3572,0.0,0.0,0.0,0.0,0.0,0.0,-2.3509,-2.4695,-2.5933,-2.6826,-2.7381,-2.7557,-2.7469,-2.718,-2.7092,-2.626,-2.4607,-2.2611,-2.0163,-1.7287,0.0,0.0,0.0,0.0,-2.1257,-2.2879,-2.4843,-2.6127,-2.6716,-2.6873,-2.7147,-2.7564,-2.6915,-2.6605,-2.6812,-2.6035,-2.504,-2.3769,-2.2384,0.0,0.0,0.0,0.0,0.0,0.0,0.0,0.0,0.0,0.0,0.0,0.0,0.0,0.0,0.0,0.0,0.0,0.0,0.0,-1.9313,-2.0624,-2.1156,0.0,0.0,0.0,0.0,0.0,0.0,0.0,0.0,0.0,-3.0076,-3.1061,-3.2243,0.0,0.0,-3.5489,-3.5489,-3.6073,-3.6582,-3.6821,-3.6686,0.0,0.0,-3.6282,-3.5731,-3.6448,-3.7312,-3.7629,-3.7075,-3.8018,-3.8661,-3.8048,-3.8452,-3.8841,-3.8736,-3.712,-3.5789,-3.5833,-3.5579,-3.5746,-3.6753,-3.7334,-3.7684,-2.814,-2.405,-2.4023,-2.4733,-2.5834,-2.5539,-2.6489,-2.8235,-2.7682,-2.7193,-2.6753,-2.6327,-2.5134,-2.3457,-2.2774,0.0,0.0,0.0,-2.5222,-2.6603,-2.718,-2.7921,-2.875,-2.8787,-2.8649,-2.8423,-2.8097,-2.7469,-2.6578,-2.5498,-2.359,-2.0826,0.0,0.0,-1.9082,-2.0765,-2.2347,-2.3747,-2.5196,-2.6139,-2.6487,-2.6816,-2.7196,-2.769,-2.7704,-2.7896,-2.8234,-2.7582,-2.6828,-2.5967,-2.461,-2.2837,0.0,0.0,0.0,0.0,0.0,0.0,0.0,0.0,0.0,0.0,0.0,-1.5007,-1.3703,0.0,0.0,0.0,-1.8209,-1.9926,-2.1495,-2.2607,0.0,0.0,0.0,0.0,0.0,0.0,0.0,-2.6617,-2.934,-3.1674,-3.311,-3.3769,-3.4472,-3.5504,-3.5998,-3.6267,-3.6252,0.0,-3.6985,-3.736,-3.7404,-3.7539,-3.7928,-3.724,-3.7015,-3.8048,-3.8527,-3.8781,-3.8811,-3.9155,-3.9373,-3.9388,-3.9388,-3.9388,-3.9388,-3.8422,-3.7644,-3.7644,-3.7644,-3.7928,-3.8661,-3.8796,-3.8931,-3.1378,-2.9989,-2.8944,-2.8712,-2.9076,-2.9088,-2.9428,-2.9867,-2.9352,-2.9402,-2.9767,-2.8762,-2.7695,-2.66,-2.5021,0.0,-2.5164,-2.6201,-2.7253,-2.826,-2.8737,-2.9277,-2.9779,-2.9779,-2.9515,-2.9001,-2.8963,-2.8712,-2.8098,-2.713,-2.6109,-2.4876,-2.2414,-2.132,-2.1669,-2.2711,-2.3772,-2.4838,-2.5946,-2.6508,-2.6607,-2.7304,-2.7743,-2.7854,-2.8616,-2.8785,-2.834,-2.831,-2.7805,-2.6705,-2.5992,-2.4496,-2.2062,0.0,0.0,0.0,0.0,0.0,0.0,0.0,0.0,0.0,0.0,0.0,0.0,0.0,0.0,0.0,-2.0355,0.0,-2.444,-2.5202,0.0,0.0,0.0,-2.527,-2.4253,-2.6886,-2.8801,-2.8891,0.0,0.0,-3.458,-3.5776,-3.6821,-3.7494,-3.7464,-3.7404,-3.7404,-3.7434,-3.7494,-3.7524,-3.7554,-3.7584,-3.7778,-3.8078,-3.8571,-3.9155,-3.9388,-3.9379,-3.9343,-3.9373,-3.9388,-3.9388,-3.9388,-3.9388,-3.9388,-3.9298,-3.9409,-3.9412,-3.9356,-3.9343,-3.9343,-3.9328,-3.9328,-3.2664,-3.2276,-3.2018,-3.1474,-3.0809,-3.0809,-3.0871,-3.0997,-3.0859,-3.067,-3.0407,-3.0104,-2.9402,-2.8261,-2.7494,-2.7431,-2.7935,-2.8222,-2.8712,-2.9377,-2.9528,-2.9666,-2.9779,-2.9779,-2.9729,-2.9591,-2.9578,-2.9289,-2.87,-2.8473,-2.757,-2.6135,-2.5431,-2.4324,-2.2807,-2.3835,-2.4713,-2.541,-2.6135,-2.6798,-2.7404,-2.7597,-2.8082,-2.889,-2.9118,-2.9217,-2.9264,-2.8769,-2.8403,-2.8088,-2.6489,-2.5082,-2.3936,-2.1101,0.0,0.0,0.0,0.0,0.0,0.0,0.0,0.0,0.0,-1.803,-1.5739,0.0,-1.9619,0.0,-2.2374,-2.4092,-2.4544,-2.5202,0.0,0.0,-2.6467,-2.7021,-2.8667,-2.9564,-3.0447,-3.1465,-3.314,-3.4701,-3.5886,-3.67,-3.7629,-3.8751,-3.8063,-3.7404,-3.7419,-3.7853,-3.8167,-3.8197,-3.8571,-3.8931,-3.8865,-3.9065,-3.9215,-3.9394,-3.9388,-3.9388,-3.9388,-3.9388,-3.9388,-3.9388,-3.9388,-3.9388,-3.9373,-3.9388,-3.9666,-4.0185,-3.9864,-3.9388,-3.9388,-3.9424,-3.9424,-3.3124,-3.3124,-3.3124,-3.2717,-3.2139,-3.2181,-3.2181,-3.2181,-3.2139,-3.1838,-3.1323,-3.1072,-3.0608,-3.0005,-2.9716,-2.9729,-3.0005,-3.0018,-3.0193,-3.0482,-3.0269,-3.0156,-3.0143,-2.9905,-2.9779,-2.9779,-2.9779,-2.9628,-2.9327,-2.9026,-2.8461,-2.7593,-2.7067,-2.6248,-2.5046,-2.5109,-2.562,-2.6539,-2.7248,-2.7845,-2.8277,-2.8683,-2.8993,-2.9288,-2.9653,-2.9599,-2.916,-2.8502,-2.8008,-2.7694,-2.6363,-2.5168,-2.4168,-2.217,-2.0612,0.0,0.0,0.0,0.0,0.0,0.0,0.0,0.0,0.0,0.0,0.0,-2.1106,-2.233,-2.4295,-2.5848,-2.6747,-2.7679,-2.8547,-2.9265,-2.9535,-3.0133,-3.1285,-3.1928,-3.2557,-3.3305,-3.4562,-3.5767,-3.6776,-3.7451,-3.8227,-3.9239,-3.8781,-3.8302,-3.8332,-3.8631,-3.8841,-3.8871,-3.917,-3.9388,-3.9388,-3.9388,-3.9388,-3.9388,-3.9388,-3.9388,-3.9388,-3.9388,-3.9388,-3.9373,-3.9185,-3.896,-3.896,-3.8993,-3.923,-3.9573,-3.9673,-3.9668,-3.9939,-3.9955,-3.999,-3.3124,-3.3124,-3.3124,-3.3124,-3.3124,-3.3124,-3.3124,-3.3124,-3.3124,-3.2792,-3.229,-3.1738,-3.1499,-3.1499,-3.1424,-3.1386,-3.1386,-3.1386,-3.1386,-3.1361,-3.0922,-3.0683,-3.0595,-3.0131,-2.9854,-2.9792,-2.9779,-2.9779,-2.9767,-2.9239,-2.8976,-2.885,-2.7959,-2.7528,-2.7544,-2.6595,-2.6616,-2.7689,-2.8341,-2.8837,-2.9163,-2.9809,-2.9878,-2.9406,-2.9919,-2.9654,-2.8397,-2.7779,-2.721,-2.6617,-2.6048,-2.5146,-2.3937,-2.3264,-2.2332,0.0,-2.0404,0.0,0.0,0.0,0.0,0.0,0.0,0.0,0.0,-2.271,-2.3282,-2.4963,-2.6323,-2.7885,-2.9794,-3.0957,-3.1675,-3.178,-3.2886,-3.3395,-3.2886,-3.3858,-3.4668,-3.4743,-3.5806,-3.6738,-3.7447,-3.8047,-3.8631,-3.9275,-3.9328,-3.9194,-3.926,-3.929,-3.9328,-3.9388,-3.9334,-3.92,-3.92,-3.9119,-3.9059,-3.9089,-3.9065,-3.9119,-3.908,-3.9059,-3.914,-3.9044,-3.8631,-3.8322,-3.8397,-3.8547,-3.8705,-3.9043,-3.9503,-3.9929,-4.0341,-4.0437,-4.058,-3.3124,-3.3124,-3.3124,-3.3124,-3.3124,-3.3124,-3.3124,-3.3124,-3.3124,-3.3018,-3.2867,-3.2315,-3.2064,-3.2014,-3.1587,-3.1386,-3.1386,-3.1386,-3.1386,-3.1386,-3.1298,-3.1022,-3.062,-3.0507,-3.0218,-2.9804,-2.9779,-2.9779,-2.9779,-2.9679,-2.939,-2.89,-2.8675,-2.8777,-2.9074,0.0,0.0,0.0,-2.7229,-2.7962,-2.9958,-2.9523,-2.9348,-2.95,-2.917,0.0,-2.7051,-2.6866,-2.6722,-2.6602,-2.6467,0.0,0.0,0.0,0.0,0.0,0.0,0.0,0.0,0.0,0.0,0.0,-2.5046,-2.4276,-2.4298,-2.6107,-2.7448,-2.785,-2.8997,-3.038,-3.1796,-3.2168,-3.2542,-3.3095,-3.3845,-3.4264,-3.4189,-3.4831,-3.5504,-3.6043,-3.6375,-3.6937,-3.7997,-3.8342,-3.8661,-3.929,-3.9388,-3.9185,-3.8676,-3.9065,-3.9358,-3.9358,-3.8916,-3.8601,-3.8586,-3.8167,-3.7913,-3.7778,-3.7778,-3.7823,-3.7868,-3.7823,-3.7808,-3.7808,-3.7689,-3.7794,-3.8353,-3.8606,-3.8842,-4.0245,-4.0079,-3.9828,-3.9928,-4.0007,-3.996,-3.3124,0.0,-3.3124,-3.3124,0.0,-3.3124,-3.3124,-3.3124,-3.3124,-3.3124,-3.3099,-3.2767,-3.2641,-3.2629,-3.234,-3.2227,-3.2227,-3.2227,-3.2215,-3.2215,-3.1926,-3.1662,-3.1386,-3.0859,-3.047,-3.0193,-2.993,-2.9779,-2.9779,-2.9779,-2.9641,-2.9352,-2.9539,-2.949,-2.9194,-2.9385,-2.9659,-2.9918,-2.9951,-3.0559,-3.1797,-3.1138,-3.0658,-3.0511,0.0,0.0,0.0,0.0,0.0,0.0,0.0,0.0,0.0,0.0,0.0,-2.561,-2.5616,-2.5734,-2.6033,-2.6063,-2.6782,-2.8453,-2.8831,-2.8297,-2.6697,-2.8697,-3.0175,-3.0505,-3.1116,-3.2035,-3.3303,-3.3469,-3.3754,-3.4412,-3.4786,-3.51,-3.5429,-3.5806,-3.6237,-3.6851,-3.7225,-3.7702,-3.8322,-3.8732,-3.9005,-3.9284,-3.911,-3.8781,-3.8497,-3.8676,-3.8811,-3.8482,-3.8167,-3.7913,-3.7883,-3.7659,-3.7389,-3.7404,-3.7404,-3.7404,-3.7404,-3.715,-3.6956,-3.6896,-3.6432,-3.6117,-3.6478,-3.6879,-3.7413,-3.8222,-3.8645,-3.9002,-3.933,-3.9928,-4.0413,-3.3124,-3.3124,-3.3124,-3.3124,-3.3124,-3.3124,-3.3124,-3.3068,0.0,0.0,0.0,-3.283,-3.283,-3.293,-3.2918,-3.298,-3.3068,-3.3124,-3.3124,-3.3056,-3.2478,-3.2202,-3.2164,-3.1223,-3.0708,-3.0595,-3.0156,-2.9892,-2.9792,-2.9779,-2.9779,-2.9819,-3.0143,-3.0045,-2.9599,-3.0241,-3.1299,-3.2698,-3.2968,-3.3207,-3.3484,-3.2809,-3.2124,-3.1511,-3.0372,-2.9157,-2.7824,-2.723,-2.6692,-2.6183,-2.6234,-2.6497,-2.6931,-2.7066,-2.756,-2.8517,-2.8816,-2.8981,-2.9116,-2.9235,-2.9579,-3.025,-3.1869,-3.1854,-2.946,-3.0854,-3.2139,-3.2811,-3.2861,-3.336,-3.4545,-3.4683,-3.4876,-3.5444,-3.5489,-3.5759,-3.6405,-3.6492,-3.6731,-3.7464,-3.7898,-3.8282,-3.8391,-3.8722,-3.9065,-3.8975,-3.8542,-3.8153,-3.8093,-3.8108,-3.8063,-3.7629,-3.7404,-3.7255,-3.724,-3.7075,-3.709,-3.6937,-3.6881,-3.6896,-3.6806,-3.6372,-3.5998,-3.5848,-3.5028,-3.466,-3.4759,-3.5435,-3.578,-3.6034,-3.7036,-3.8075,-3.8736,-3.9656,-4.0387,-3.3124,-3.3124,-3.3124,-3.3124,-3.3124,-3.3124,-3.3124,-3.3074,-3.2554,-3.234,-3.2303,-3.1825,-3.1901,-3.234,-3.234,-3.2616,-3.3111,-3.3124,-3.3124,0.0,-3.2478,-3.2202,-3.2177,-3.1574,-3.1047,-3.0633,-3.0532,-3.0256,-2.9829,-2.9792,-2.9779,-2.9818,-2.9858,-3.0616,-3.2091,-3.3792,-3.4801,-3.4996,-3.2604,-3.2058,-3.3469,-3.2669,-3.2008,-3.1511,-3.0778,-2.9774,-2.8502,-2.8368,-2.8278,-2.8203,-2.8727,-2.8816,-2.8368,-2.8861,-2.9037,-2.8697,-2.9639,-3.0492,-3.1047,-3.1615,-3.2243,-3.2916,-3.3755,-3.3559,-3.2123,-3.2735,-3.3478,-3.4126,-3.4186,-3.4507,-3.5262,-3.5355,-3.5415,-3.5534,-3.5519,-3.5774,-3.6462,-3.6537,-3.6956,-3.8048,-3.7808,-3.7779,-3.821,-3.8018,-3.7793,-3.7704,-3.7659,-3.7375,-3.7015,-3.721,-3.7479,-3.736,-3.6956,-3.6671,-3.6567,-3.6118,-3.5908,-3.5774,-3.5355,-3.51,-3.5087,-3.4532,-3.4113,-3.3978,-3.38,-3.4121,-3.5052,-3.5597,-3.6064,-3.6904,-3.7494,-3.7838,-3.8024,-3.8345,-3.8833,-3.3124,-3.3124,-3.3124,-3.3124,-3.3124,-3.3124,-3.3124,-3.3074,-3.2453,-3.2202,-3.2177,-3.1938,-3.1989,-3.2202,-3.2202,-3.2528,-3.3124,-3.3124,-3.3124,-3.3099,-3.2805,-3.2679,-3.2629,-3.2102,-3.1712,-3.1449,-3.0871,-3.0495,-3.0231,-2.9955,-2.9779,-2.9818,-3.0305,-3.1769,-3.4056,-3.4524,-3.4953,-3.5457,-3.412,-3.3827,-3.4545,-3.3841,-3.3367,-3.314,-3.2138,-3.1345,-3.0746,-3.036,-3.0165,-3.0165,-3.0477,-3.0672,-3.0731,-3.1001,-3.1195,-3.1255,-3.1794,-3.2258,-3.2542,-3.3215,-3.3694,-3.4023,-3.4651,-3.4951,-3.4711,-3.4601,-3.4705,-3.5011,-3.5031,-3.5297,-3.5983,-3.6043,-3.6178,-3.6507,-3.6537,-3.6806,-3.733,-3.718,-3.736,-3.8153,-3.7808,-3.7515,-3.7828,-3.757,-3.7406,-3.7349,-3.7143,-3.6656,-3.6073,-3.6193,-3.6387,-3.6342,-3.6133,-3.5998,-3.5938,-3.5729,-3.537,-3.504,-3.4728,-3.4384,-3.4054,-3.3395,-3.3036,-3.2961,-3.3018,-3.3236,-3.4026,-3.4663,-3.5356,-3.581,-3.6451,-3.6726,-3.7161,-3.7587,-3.8138,-3.3124,-3.3124,-3.3124,-3.3124,-3.3124,-3.3124,-3.3124,-3.3074,-3.2604,-3.2328,-3.2202,-3.2089,-3.2089,-3.2202,-3.2202,-3.2528,-3.3074,-3.3124,-3.3124,-3.3111,-3.2943,-3.2955,-3.3006,-3.2491,-3.2202,-3.2127,-3.1361,-3.0846,-3.0583,-3.039,-3.033,-3.052,-3.1378,-3.2961,-3.51,-3.4624,-3.4725,-3.5457,-3.5489,-3.5489,-3.5489,-3.4981,-3.4668,-3.4444,-3.3484,-3.2901,-3.2721,-3.2243,-3.1944,-3.1944,-3.1944,-3.2183,-3.2662,-3.2736,-3.2961,-3.344,-3.3634,-3.3799,-3.3963,-3.4412,-3.4771,-3.4968,-3.5429,-3.5998,-3.6552,-3.6237,-3.5923,-3.5938,-3.5953,-3.6178,-3.6596,-3.6701,-3.6836,-3.7165,-3.7345,-3.7449,-3.7823,-3.7614,-3.7584,-3.8018,-3.7599,-3.7195,-3.7161,-3.7041,-3.691,-3.6829,-3.6529,-3.6043,-3.5609,-3.5489,-3.5489,-3.5489,-3.5489,-3.5534,-3.5489,-3.5325,-3.5053,-3.4528,-3.4186,-3.3892,-3.3457,-3.2989,-3.2684,-3.2779,-3.2835,-3.3063,-3.315,-3.3885,-3.4675,-3.5067,-3.5524,-3.5887,-3.6417,-3.6891,-3.754,-3.3124,-3.3124,-3.3124,-3.3124,-3.3124,-3.3124,-3.3124,-3.3111,-3.3006,-3.2704,-3.2227,-3.17,-3.1788,-3.2177,-3.2202,-3.2528,-3.3111,-3.3124,-3.3124,-3.3061,-3.2528,-3.2566,-3.3023,-3.2478,-3.2202,-3.2202,-3.2064,-3.1524,-3.0761,-3.1345,-3.1944,-3.2426,-3.3276,-3.3808,-3.4245,-3.4953,-3.5392,-3.5489,-3.5489,-3.5489,-3.5489,-3.5444,-3.5115,-3.4518,-3.4399,-3.4008,-3.3469,-3.335,-3.3305,-3.332,-3.332,-3.3335,-3.341,-3.341,-3.3455,-3.3544,-3.4099,-3.4683,-3.5235,-3.537,-3.5669,-3.6222,-3.6327,-3.6671,-3.7255,-3.727,-3.7225,-3.7225,-3.7225,-3.718,-3.7315,-3.73,-3.7135,-3.6851,-3.715,-3.724,-3.6911,-3.7105,-3.7449,-3.7479,-3.6956,-3.6563,-3.6529,-3.6126,-3.5791,-3.5874,-3.5794,-3.5684,-3.5549,-3.5489,-3.5489,-3.5489,-3.5489,-3.5489,-3.5444,-3.4951,-3.4648,-3.4411,-3.348,-3.311,-3.3123,-3.302,-3.2749,-3.3199,-3.3492,-3.3675,-3.4087,-3.4592,-3.4823,-3.523,-3.5492,-3.565,-3.5718,-3.5887,-3.6418,-3.3124,-3.3124,-3.3124,-3.3124,-3.3124,-3.3124,-3.3124,-3.3124,-3.3124,-3.293,-3.2729,-3.2478,-3.234,-3.2215,-3.2202,-3.2528,-3.3099,-3.3124,-3.3124,-3.3061,-3.2478,-3.234,-3.2516,-3.2353,-3.2202,-3.2202,-3.2202,-3.1989,-3.1565,-3.1284,-3.1647,-3.2519,-3.2996,-3.3719,-3.4806,-3.5294,-3.5489,-3.5489,-3.5489,-3.5489,-3.5489,-3.5489,-3.537,-3.5115,-3.5085,-3.4981,-3.4711,-3.4696,-3.4681,-3.4681,-3.4696,-3.4681,-3.4681,-3.4696,-3.4681,-3.4696,-3.4921,-3.5385,-3.6043,-3.6073,-3.6357,-3.6971,-3.703,-3.73,-3.7913,-3.7988,-3.8138,-3.8437,-3.7883,-3.7539,-3.7883,-3.7644,-3.7449,-3.7524,-3.7509,-3.7285,-3.709,-3.6926,-3.6866,-3.6806,-3.6297,-3.589,-3.589,-3.5666,-3.5504,-3.5489,-3.5489,-3.5489,-3.5489,-3.5489,-3.5489,-3.5489,-3.5489,-3.5489,-3.5444,-3.4921,-3.4407,-3.3893,-3.3152,-3.2717,-3.2829,-3.2811,-3.2815,-3.3521,-3.3937,-3.4235,-3.4455,-3.4965,-3.5316,-3.56,-3.5616,-3.5616,-3.5616,-3.5616,-3.596,-3.3124,-3.3124,-3.3124,-3.3124,-3.3124,-3.3124,-3.3124,-3.3124,-3.3124,-3.3124,-3.3124,-3.3124,-3.2842,-3.2491,-3.2441,-3.2692,-3.3086,-3.3124,-3.3124,-3.3018,-3.2478,-3.2215,-3.2202,-3.2039,-3.1976,-3.1989,-3.1976,-3.2012,-3.2031,-3.1207,-3.1389,-3.247,-3.2841,-3.3685,-3.4953,-3.5326,-3.5489,-3.5489,-3.5489,-3.5489,-3.5489,-3.5489,-3.5489,-3.5489,-3.5489,-3.5489,-3.5489,-3.5489,-3.5489,-3.5489,-3.5489,-3.5489,-3.5489,-3.5489,-3.5594,-3.5744,-3.5774,-3.6058,-3.6686,-3.6746,-3.7,-3.7584,-3.7674,-3.7958,-3.8482,-3.8512,-3.8616,-3.8901,-3.8078,-3.7674,-3.8197,-3.7793,-3.7599,-3.7823,-3.7539,-3.7315,-3.6881,-3.6567,-3.6417,-3.6207,-3.5833,-3.5489,-3.5504,-3.5504,-3.5489,-3.5489,-3.5489,-3.5489,-3.5489,-3.5489,-3.5489,-3.5489,-3.5489,-3.5489,-3.5444,-3.4696,-3.408,-3.3618,-3.2976,-3.2621,-3.2833,-3.2997,-3.3391,-3.4399,-3.4664,-3.4847,-3.4988,-3.5362,-3.5577,-3.56,-3.5616,-3.5616,-3.5616,-3.5616,-3.5616,-3.3124,-3.3124,-3.3124,-3.3124,-3.3124,-3.3124,-3.3124,-3.3124,-3.3124,-3.3124,-3.3124,-3.3124,-3.3099,-3.3061,-3.3023,-3.3086,-3.3124,-3.3124,-3.3124,-3.3018,-3.2478,-3.2202,-3.2177,-3.1687,-3.1436,-3.1436,-3.1486,-3.1642,-3.1927,-3.1463,-3.1659,-3.2607,-3.3429,-3.3959,-3.4312,-3.51,-3.5504,-3.5489,-3.5489,-3.5489,-3.5489,-3.5489,-3.5489,-3.5489,-3.5489,-3.5489,-3.5489,-3.5489,-3.5489,-3.5489,-3.5489,-3.5504,-3.5519,-3.5549,-3.5848,-3.6357,-3.6447,-3.6701,-3.727,-3.7389,-3.7659,-3.8227,-3.8347,-3.8601,-3.905,-3.8691,-3.8422,-3.8422,-3.7764,-3.7614,-3.8078,-3.7644,-3.7135,-3.6776,-3.709,-3.6761,-3.5774,-3.6178,-3.6148,-3.5744,-3.5549,-3.5489,-3.5489,-3.5489,-3.5489,-3.5489,-3.5489,-3.5489,-3.5489,-3.5489,-3.5489,-3.5489,-3.5489,-3.5489,-3.5385,-3.4651,-3.3858,-3.3532,-3.33,-3.2854,-3.3475,-3.4087,-3.4681,-3.5155,-3.5293,-3.5424,-3.5515,-3.5577,-3.56,-3.5616,-3.5616,-3.5616,-3.5616,-3.5616,-3.5616,-3.3124,-3.3124,-3.3124,-3.3124,-3.3124,-3.3124,-3.3124,-3.3124,-3.3124,-3.3124,-3.3124,-3.3124,-3.3124,-3.3124,-3.3124,-3.3124,-3.3124,-3.3124,-3.3124,-3.3061,-3.2478,-3.2026,-3.1675,-3.1461,-3.1198,-3.0984,-3.1223,-3.1299,-3.1188,-3.151,-3.1994,-3.2648,-3.3533,-3.4279,-3.492,-3.5311,-3.5489,-3.5489,-3.5489,-3.5489,-3.5489,-3.5489,-3.5489,-3.5489,-3.5489,-3.5489,-3.5489,-3.5489,-3.5489,-3.5489,-3.5489,-3.5699,-3.6118,-3.6507,-3.6821,-3.7045,-3.7075,-3.736,-3.7913,-3.8048,-3.8332,-3.8945,-3.9035,-3.8871,-3.8766,-3.8527,-3.8227,-3.7764,-3.7195,-3.7,-3.7045,-3.6941,-3.6731,-3.6522,-3.6297,-3.6058,-3.5684,-3.5714,-3.5759,-3.5549,-3.5489,-3.5489,-3.5489,-3.5489,-3.5489,-3.5489,-3.5489,-3.5489,-3.5489,-3.5489,-3.5489,-3.5489,-3.5489,-3.5489,-3.5489,-3.4771,-3.4146,-3.397,-3.3759,-3.3742,-3.4104,-3.4366,-3.4854,-3.5316,-3.5577,-3.56,-3.5577,-3.5577,-3.5616,-3.5616,-3.5616,-3.5616,-3.5616,-3.5616,-3.5616,-3.3124,-3.3124,-3.3124,-3.3124,-3.3124,-3.3124,-3.3124,-3.3124,-3.3124,-3.3124,-3.3124,-3.3124,-3.3124,-3.3124,-3.3124,-3.3124,-3.3124,-3.3124,-3.3124,-3.3074,-3.2478,-3.2014,-3.1675,-3.1461,-3.111,-3.0683,-3.0771,-3.067,-3.05,-3.1305,-3.1886,-3.2191,-3.3345,-3.4312,-3.4953,-3.5311,-3.5489,-3.5489,-3.5489,-3.5489,-3.5489,-3.5489,-3.5489,-3.5489,-3.5489,-3.5489,-3.5519,-3.5714,-3.5818,-3.5833,-3.5998,-3.6327,-3.6791,-3.7165,-3.7509,-3.7689,-3.7734,-3.8018,-3.8571,-3.8527,-3.8571,-3.9005,-3.8856,-3.8542,-3.8108,-3.7898,-3.7554,-3.709,-3.6552,-3.6178,-3.6163,-3.6163,-3.6163,-3.6118,-3.5774,-3.5504,-3.5489,-3.5504,-3.5519,-3.5504,-3.5489,-3.5489,-3.5489,-3.5489,-3.5489,-3.5489,-3.5489,-3.5489,-3.5489,-3.5489,-3.5489,-3.5489,-3.5489,-3.5489,-3.5504,-3.507,-3.4571,-3.4404,-3.4654,-3.462,-3.4486,-3.4733,-3.5028,-3.5447,-3.5616,-3.5616,-3.5616,-3.5616,-3.5616,-3.5616,-3.5616,-3.5616,-3.5616,-3.5616,-3.5616,-3.3124,-3.3124,-3.3124,-3.3124,-3.3124,-3.3124,-3.3124,-3.3124,-3.3124,-3.3124,-3.3124,-3.3124,-3.3124,-3.3124,-3.3124,-3.3124,-3.3124,-3.3124,-3.3124,-3.3061,-3.2528,-3.2252,-3.2114,-3.1687,-3.121,-3.0683,-3.0118,-2.9892,-3.0007,-3.085,-3.1331,-3.1646,-3.3157,-3.4143,-3.4109,-3.5067,-3.5489,-3.5489,-3.5489,-3.5489,-3.5489,-3.5489,-3.5489,-3.5489,-3.5489,-3.5489,-3.5504,-3.6103,-3.6402,-3.6492,-3.6985,-3.7375,-3.7404,-3.7539,-3.7778,-3.8302,-3.8392,-3.8736,-3.914,-3.8706,-3.8377,-3.8332,-3.7838,-3.7569,-3.7389,-3.6971,-3.6611,-3.6417,-3.5968,-3.5564,-3.5579,-3.5594,-3.5609,-3.5519,-3.5519,-3.5504,-3.5489,-3.5489,-3.5489,-3.5489,-3.5489,-3.5489,-3.5489,-3.5489,-3.5489,-3.5489,-3.5489,-3.5489,-3.5489,-3.5489,-3.5489,-3.5489,-3.5489,-3.5489,-3.5504,-3.5474,-3.5088,-3.4878,-3.5326,-3.5538,-3.5141,-3.517,-3.54,-3.5735,-3.5616,-3.5616,-3.5616,-3.5616,-3.5616,-3.5616,-3.5616,-3.5616,-3.5616,-3.5616,-3.5616,-3.3124,-3.3124,-3.3124,-3.3124,-3.3124,-3.3124,-3.3124,-3.3124,-3.3124,-3.3124,-3.3124,-3.3124,-3.3124,-3.3124,-3.3124,-3.3124,-3.3124,-3.3124,-3.3124,-3.3086,-3.288,-3.2579,-3.224,-3.2039,-3.1675,-3.1135,-3.062,-3.0357,-3.0478,-3.0928,-3.1499,-3.2285,-3.3359,-3.4361,-3.4953,-3.5344,-3.5489,-3.5489,-3.5489,-3.5489,-3.5489,-3.5489,-3.5489,-3.5489,-3.5489,-3.5489,-3.5534,-3.6148,-3.6477,-3.6507,-3.7075,-3.7614,-3.8048,-3.8542,-3.8886,-3.905,-3.9095,-3.8916,-3.8691,-3.8512,-3.8153,-3.7793,-3.7509,-3.7195,-3.6836,-3.6611,-3.6315,-3.5923,-3.5609,-3.5489,-3.5489,-3.5489,-3.5534,-3.5504,-3.5489,-3.5489,-3.5489,-3.5489,-3.5489,-3.5489,-3.5489,-3.5489,-3.5489,-3.5489,-3.5489,-3.5489,-3.5489,-3.5489,-3.5489,-3.5489,-3.5489,-3.5489,-3.5489,-3.5604,-3.5701,-3.6002,-3.6099,-3.5887,-3.6169,-3.6319,-3.5926,-3.5836,-3.6039,-3.5926,-3.5791,-3.5701,-3.5684,-3.5616,-3.5616,-3.5633,-3.565,-3.5633,-3.5616,-3.5616,-3.5616,-3.3124,-3.3124,-3.3124,-3.3124,-3.3124,-3.3124,-3.3124,-3.3124,-3.3124,-3.3124,-3.3124,-3.3124,-3.3124,-3.3124,-3.3124,-3.3124,-3.3124,-3.3124,-3.3124,-3.3124,-3.3124,-3.2855,-3.2503,-3.229,-3.2064,-3.1662,-3.1148,-3.0909,-3.0911,-3.15,-3.2009,-3.2522,-3.3663,-3.4477,-3.4997,-3.5311,-3.5489,-3.5489,-3.5489,-3.5489,-3.5489,-3.5489,-3.5489,-3.5489,-3.5489,-3.5489,-3.5549,-3.6133,-3.6596,-3.6941,-3.7659,-3.8347,-3.8781,-3.917,-3.9388,-3.9388,-3.9343,-3.9125,-3.8482,-3.8153,-3.7749,-3.7195,-3.6851,-3.6552,-3.6237,-3.6315,-3.6193,-3.5639,-3.5729,-3.5774,-3.5579,-3.5774,-3.5848,-3.5878,-3.5654,-3.5519,-3.5489,-3.5489,-3.5489,-3.5489,-3.5489,-3.5489,-3.5489,-3.5489,-3.5489,-3.5489,-3.5489,-3.5489,-3.5489,-3.5489,-3.5489,-3.5604,-3.5863,-3.5943,-3.6006,-3.6428,-3.6987,-3.7014,-3.7054,-3.7024,-3.6794,-3.6895,-3.706,-3.6502,-3.6231,-3.6265,-3.6248,-3.5769,-3.5616,-3.5633,-3.5853,-3.5633,-3.5616,-3.5616,-3.5616,-3.3124,-3.3124,-3.3124,-3.3124,-3.3124,-3.3124,-3.3124,-3.3124,-3.3124,-3.3124,-3.3124,-3.3124,-3.3124,-3.3124,-3.3124,-3.3124,-3.3124,-3.3124,-3.3124,-3.3124,-3.3124,-3.3061,-3.2973,-3.2554,-3.234,-3.219,-3.17,-3.1531,-3.1724,-3.2332,-3.2618,-3.2799,-3.4212,-3.4747,-3.4753,-3.5174,-3.5594,-3.5504,-3.5489,-3.5489,-3.5489,-3.5489,-3.5489,-3.5489,-3.5489,-3.5489,-3.5579,-3.6133,-3.6791,-3.7509,-3.8542,-3.9125,-3.9328,-3.9388,-3.9388,-3.9373,-3.9358,-3.899,-3.8407,-3.7838,-3.7285,-3.6776,-3.6297,-3.5609,-3.5953,-3.6387,-3.6447,-3.5938,-3.6237,-3.6312,-3.5983,-3.6193,-3.6492,-3.6477,-3.6148,-3.5818,-3.5594,-3.5609,-3.5624,-3.5534,-3.5489,-3.5489,-3.5489,-3.5489,-3.5489,-3.5489,-3.5489,-3.5489,-3.5489,-3.5489,-3.5489,-3.5718,-3.5991,-3.6244,-3.6306,-3.6875,-3.744,-3.7841,-3.7844,-3.7698,-3.7536,-3.7638,-3.7669,-3.7127,-3.6846,-3.6863,-3.6772,-3.6434,-3.6349,-3.662,-3.6468,-3.5887,-3.574,-3.5881,-3.5785,-3.3124,-3.3124,-3.3124,-3.3124,-3.3124,-3.3124,-3.3124,-3.3124,-3.3124,-3.3124,-3.3124,-3.3124,-3.3124,-3.3124,-3.3124,-3.3124,-3.3124,-3.3124,-3.3124,-3.3124,-3.3124,-3.3124,-3.3081,-3.293,-3.2842,-3.2742,-3.2294,-3.239,-3.3115,-3.304,-3.3605,-3.4955,-3.5317,-3.5767,-3.59,-3.6075,-3.5953,-3.5564,-3.5519,-3.5519,-3.5489,-3.5489,-3.5489,-3.5489,-3.5489,-3.5489,-3.5564,-3.6133,-3.703,-3.8033,-3.8422,-3.8916,-3.9254,-3.9298,-3.9284,-3.9269,-3.8931,-3.8616,-3.8332,-3.7808,-3.7345,-3.721,-3.6896,-3.6896,-3.6911,-3.706,-3.7075,-3.6926,-3.7105,-3.7105,-3.6956,-3.7045,-3.7165,-3.715,-3.7015,-3.6731,-3.6327,-3.6222,-3.6058,-3.5624,-3.5534,-3.5549,-3.5504,-3.5489,-3.5489,-3.5489,-3.5489,-3.5489,-3.5489,-3.5636,-3.5686,-3.5782,-3.6023,-3.6353,-3.6737,-3.7338,-3.7915,-3.846,-3.8497,-3.8323,-3.8103,-3.7941,-3.7884,-3.7635,-3.7601,-3.7601,-3.7601,-3.7425,-3.7567,-3.7499,-3.7313,-3.6907,-3.6593,-3.6554,-3.622,-3.3124,-3.3124,-3.3124,-3.3124,-3.3124,-3.3124,-3.3124,-3.3124,-3.3124,-3.3124,-3.3124,-3.3124,-3.3124,-3.3124,-3.3124,-3.3124,-3.3124,-3.3124,-3.3124,-3.3124,-3.3124,-3.3124,-3.3124,-3.3124,-3.3124,-3.3086,-3.2742,-3.3226,-3.3947,-3.3846,-3.4514,-3.5484,-3.6157,-3.6322,-3.6202,-3.6701,-3.6548,-3.6037,-3.5902,-3.5798,-3.5534,-3.5489,-3.5489,-3.5489,-3.5489,-3.5489,-3.5564,-3.5893,-3.6671,-3.7659,-3.8003,-3.8167,-3.8512,-3.8536,-3.8691,-3.8901,-3.8601,-3.8392,-3.8332,-3.8003,-3.7704,-3.7479,-3.7404,-3.7404,-3.7449,-3.7614,-3.7764,-3.7383,-3.7648,-3.7669,-3.7495,-3.7635,-3.7958,-3.8212,-3.8242,-3.7868,-3.7,-3.6881,-3.6582,-3.6148,-3.5908,-3.5774,-3.5579,-3.5519,-3.5504,-3.5489,-3.5489,-3.5489,-3.5522,-3.5718,-3.6006,-3.618,-3.6753,-3.7365,-3.7815,-3.833,-3.8668,-3.917,-3.9202,-3.9018,-3.8839,-3.857,-3.8543,-3.8497,-3.8413,-3.8362,-3.8345,-3.8261,-3.8091,-3.8024,-3.8024,-3.7862,-3.7458,-3.725,-3.692,-3.3124,-3.3124,-3.3124,-3.3124,-3.3124,-3.3124,-3.3124,-3.3124,-3.3124,-3.3124,-3.3124,-3.3124,-3.3124,-3.3124,-3.3124,-3.3124,-3.3124,-3.3124,-3.3124,-3.3124,-3.3124,-3.3124,-3.3124,-3.3124,-3.3124,-3.3111,-3.3124,-3.3817,-3.4614,-3.4872,-3.5303,-3.624,-3.6928,-3.6751,-3.6802,-3.7154,-3.7142,-3.6679,-3.6593,-3.6372,-3.6001,-3.5944,-3.5941,-3.5953,-3.5938,-3.5908,-3.5863,-3.5938,-3.6387,-3.7375,-3.7404,-3.7614,-3.7659,-3.7719,-3.7978,-3.8462,-3.8552,-3.8422,-3.8482,-3.8437,-3.8227,-3.7853,-3.7764,-3.7629,-3.7868,-3.8242,-3.8307,-3.7901,-3.8177,-3.8202,-3.7998,-3.8232,-3.8641,-3.9065,-3.929,-3.8745,-3.7938,-3.7554,-3.727,-3.6701,-3.6582,-3.6252,-3.5848,-3.5609,-3.5609,-3.5504,-3.5522,-3.5636,-3.5799,-3.6102,-3.6461,-3.6783,-3.76,-3.8663,-3.9059,-3.9437,-3.9636,-3.9901,-3.9824,-3.9699,-3.9699,-3.9538,-3.9495,-3.9402,-3.9216,-3.9106,-3.9089,-3.8937,-3.8717,-3.8734,-3.887,-3.8497,-3.8058,-3.8021,-3.7804,-3.3124,-3.3124,-3.3124,-3.3124,-3.3124,-3.3124,-3.3124,-3.3124,-3.3124,-3.3124,-3.3124,-3.3124,-3.3124,-3.3124,-3.3124,-3.3124,-3.3124,-3.3124,-3.3124,-3.3124,-3.3124,-3.3124,-3.3124,-3.3124,-3.3124,-3.3124,-3.3124,-3.4095,-3.5386,-3.5894,-3.6796,-3.8267,-3.837,-3.8504,-3.7976,-3.7962,-3.7878,-3.7346,-3.7211,-3.7102,-3.6937,-3.6862,-3.6873,-3.6881,-3.6896,-3.6956,-3.6985,-3.7,-3.7135,-3.733,-3.7479,-3.7853,-3.8482,-3.8751,-3.8842,-3.8878,-3.8652,-3.8601,-3.8975,-3.8751,-3.8586,-3.8856,-3.8811,-3.899,-3.8955,-3.9,-3.9095,-3.8981,-3.911,-3.9029,-3.8889,-3.9059,-3.9194,-3.9343,-3.9373,-3.9284,-3.896,-3.8482,-3.7913,-3.7419,-3.7195,-3.6971,-3.6387,-3.6237,-3.6028,-3.5639,-3.5636,-3.5814,-3.6149,-3.6523,-3.7054,-3.7499,-3.8302,-3.9183,-3.9342,-3.9688,-3.9927,-4.0113,-4.0113,-4.0113,-4.0113,-4.0096,-3.9876,-3.9876,-3.9926,-3.9825,-3.9639,-3.9723,-3.952,-3.9622,-3.9597,-3.9225,-3.8903,-3.8836,-3.8578,-3.3124,-3.3124,-3.3124,-3.3124,-3.3124,-3.3124,-3.3124,-3.3124,-3.3124,-3.3124,-3.3124,-3.3124,-3.3124,-3.3124,-3.3124,-3.3124,-3.3124,-3.3124,-3.3124,-3.3124,-3.3124,-3.3124,-3.3124,-3.3124,-3.3124,-3.3124,-3.3124,-3.429,-3.5694,-3.6355,-3.7238,-3.9228,-3.9388,-3.9158,-3.8931,-3.8856,-3.8486,-3.8003,-3.7874,-3.7724,-3.7445,-3.7377,-3.7391,-3.74,-3.7404,-3.7404,-3.7375,-3.7375,-3.7554,-3.7778,-3.7868,-3.7978,-3.8342,-3.8487,-3.8602,-3.8782,-3.8652,-3.8721,-3.908,-3.9125,-3.9035,-3.9343,-3.9388,-3.9388,-3.9388,-3.9388,-3.9388,-3.9388,-3.9373,-3.9388,-3.9388,-3.9373,-3.9388,-3.9388,-3.9388,-3.9388,-3.9328,-3.908,-3.8601,-3.8078,-3.7868,-3.7524,-3.7165,-3.69,-3.6528,-3.6124,-3.6147,-3.6321,-3.6692,-3.7128,-3.7815,-3.8398,-3.9032,-3.9532,-3.961,-3.9782,-3.9995,-4.0113,-4.0113,-4.0113,-4.0113,-4.0113,-4.0079,-4.0079,-4.0062,-4.0079,-3.996,-4.0096,-4.0113,-3.9977,-3.9859,-3.9791,-3.9665,-3.9429,-3.9042,-3.3124,-3.3124,-3.3124,-3.3124,-3.3124,-3.3124,-3.3124,-3.3124,-3.3124,-3.3124,-3.3124,-3.3124,-3.3124,-3.3124,-3.3124,-3.3124,-3.3124,-3.3124,-3.3124,-3.3124,-3.3124,-3.3124,-3.3124,-3.3124,-3.3124,-3.3124,-3.3124,-3.4249,-3.5694,-3.6355,-3.7367,-3.9068,-3.9388,-3.9328,-3.9358,-3.9373,-3.9077,-3.8591,-3.8546,-3.8368,-3.7937,-3.7843,-3.7846,-3.7883,-3.7913,-3.7878,-3.7893,-3.7928,-3.8018,-3.8497,-3.8542,-3.8237,-3.7867,-3.7713,-3.7898,-3.8567,-3.8652,-3.8901,-3.929,-3.9343,-3.9343,-3.9388,-3.9388,-3.9388,-3.9388,-3.9388,-3.9388,-3.9388,-3.9388,-3.9388,-3.9388,-3.9388,-3.9388,-3.9388,-3.9388,-3.9388,-3.9388,-3.9388,-3.905,-3.8721,-3.8512,-3.8257,-3.7749,-3.7349,-3.6948,-3.6697,-3.6719,-3.6906,-3.728,-3.7745,-3.8453,-3.9005,-3.9558,-3.9756,-3.9833,-3.9859,-4.007,-4.0113,-4.0113,-4.0113,-4.0113,-4.0113,-4.0113,-4.0113,-4.0096,-4.0113,-4.0113,-4.0113,-4.0113,-4.0113,-4.0011,-3.9843,-3.9851,-3.991,-3.9347,-3.3124,-3.3124,-3.3124,-3.3124,-3.3124,-3.3124,-3.3124,-3.3124,-3.3124,-3.3124,-3.3124,-3.3124,-3.3124,-3.3124,-3.3124,-3.3124,-3.3124,-3.3124,-3.3124,-3.3124,-3.3124,-3.3124,-3.3124,-3.3124,-3.3124,-3.3124,-3.3167,-3.4178,-3.5654,-3.6316,-3.7291,-3.8943,-3.9388,-3.9388,-3.9388,-3.9388,-3.9358,-3.913,-3.9116,-3.9002,-3.8907,-3.8856,-3.8865,-3.8886,-3.882,-3.8865,-3.894,-3.9,-3.914,-3.9245,-3.9209,-3.914,-3.8966,-3.8931,-3.902,-3.9095,-3.914,-3.9209,-3.9358,-3.9388,-3.9388,-3.9388,-3.9388,-3.9388,-3.9388,-3.9388,-3.9388,-3.9388,-3.9388,-3.9388,-3.9388,-3.9388,-3.9388,-3.9388,-3.9388,-3.9388,-3.9388,-3.9373,-3.9343,-3.9125,-3.908,-3.899,-3.8422,-3.7933,-3.7612,-3.744,-3.7432,-3.7692,-3.8129,-3.8556,-3.9059,-3.9516,-3.9995,-4.0045,-4.0045,-4.0045,-4.0113,-4.0113,-4.0113,-4.0113,-4.0113,-4.0113,-4.0113,-4.0113,-4.0113,-4.0113,-4.0113,-4.0113,-4.0113,-4.0113,-3.9995,-3.9901,-3.9782,-3.961,-3.8924,-3.3124,-3.3124,-3.3124,-3.3124,-3.3124,-3.3124,-3.3124,-3.3124,-3.3124,-3.3124,-3.3124,-3.3124,-3.3124,-3.3124,-3.3124,-3.3124,-3.3124,-3.3124,-3.3124,-3.3124,-3.3124,-3.3124,-3.3124,-3.3124,-3.3124,-3.3124,-3.321,-3.3869,-3.5359,-3.5974,-3.7098,-3.8294,-3.9068,-3.9388,-3.9388,-3.9388,-3.9388,-3.9388,-3.9388,-3.9388,-3.9388,-3.9388,-3.9388,-3.9388,-3.9388,-3.9388,-3.9388,-3.9388,-3.9373,-3.9373,-3.9388,-3.9388,-3.9388,-3.9388,-3.9388,-3.9388,-3.9388,-3.9388,-3.9388,-3.9388,-3.9388,-3.9388,-3.9388,-3.9388,-3.9388,-3.9388,-3.9388,-3.9388,-3.9388,-3.9388,-3.9388,-3.9388,-3.9388,-3.9388,-3.9388,-3.9388,-3.9388,-3.9388,-3.9388,-3.9388,-3.9284,-3.9185,-3.9035,-3.8592,-3.8307,-3.8199,-3.8165,-3.8485,-3.891,-3.9346,-3.9735,-3.9782,-4.0113,-4.0113,-4.0113,-4.0113,-4.0113,-4.0113,-4.0113,-4.0113,-4.0113,-4.0113,-4.0113,-4.0113,-4.0113,-4.0113,-4.0113,-4.0113,-4.0113,-4.007,-3.9995,-3.985,-3.9584,-3.9226,-3.8425,-3.3124,-3.3124,-3.3124,-3.3124,-3.3124,-3.3124,-3.3124,-3.3124,-3.3124,-3.3124,-3.3124,-3.3124,-3.3124,-3.3124,-3.3124,-3.3124,-3.3124,-3.3124,-3.3124,-3.3124,-3.3124,-3.3124,-3.3124,-3.3167,-3.324,-3.3641,-3.3598,-3.3882,-3.4815,-3.5734,-3.6774,-3.789,-3.8907,-3.9388,-3.9388,-3.9388,-3.9388,-3.9388,-3.9388,-3.9388,-3.9388,-3.9388,-3.9388,-3.9388,-3.9388,-3.9388,-3.9388,-3.9388,-3.9388,-3.9388,-3.9388,-3.9388,-3.9388,-3.9388,-3.9388,-3.9388,-3.9388,-3.9388,-3.9388,-3.9388,-3.9388,-3.9388,-3.9388,-3.9388,-3.9388,-3.9388,-3.9388,-3.9388,-3.9388,-3.9388,-3.9388,-3.9388,-3.9388,-3.9388,-3.9388,-3.9388,-3.9388,-3.9388,-3.9388,-3.9388,-3.9388,-3.9313,-3.92,-3.914,-3.8807,-3.9078,-3.9077,-3.9113,-3.954,-4.0044,-4.0289,-4.0096,-4.0113,-4.0113,-4.0113,-4.0113,-4.0113,-4.0113,-4.0113,-4.0113,-4.0113,-4.0113,-4.0113,-4.0113,-4.0113,-4.0113,-4.0113,-4.0113,-4.0113,-4.007,-3.9969,-3.9601,-3.8995,-3.8365,-3.7665,-3.3124,-3.3124,-3.3124,-3.3124,-3.3124,-3.3124,-3.3124,-3.3124,-3.3124,-3.3124,-3.3124,-3.3124,-3.3124,-3.3124,-3.3124,-3.3124,-3.3124,-3.3124,-3.3124,-3.3124,-3.3124,-3.3154,-3.3167,-3.3124,-3.3755,-3.4233,-3.4428,-3.4553,-3.5061,-3.5894,-3.6774,-3.7829,-3.8782,-3.9388,-3.9388,-3.9388,-3.9388,-3.9388,-3.9388,-3.9388,-3.9388,-3.9388,-3.9388,-3.9388,-3.9388,-3.9388,-3.9388,-3.9388,-3.9388,-3.9388,-3.9388,-3.9388,-3.9388,-3.9388,-3.9388,-3.9388,-3.9388,-3.9388,-3.9388,-3.9388,-3.9388,-3.9388,-3.9388,-3.9388,-3.9388,-3.9388,-3.9388,-3.9388,-3.9388,-3.9388,-3.9388,-3.9388,-3.9388,-3.9388,-3.9388,-3.9388,-3.9388,-3.9388,-3.9388,-3.9388,-3.9388,-3.9388,-3.9313,-3.9364,-3.9376,-3.9706,-3.9962,-4.0004,-4.0197,-4.0704,-4.0755,-4.051,-4.035,-4.035,-4.0113,-4.0113,-4.0113,-4.0113,-4.0113,-4.0113,-4.0113,-4.0113,-4.0113,-4.0113,-4.0113,-4.0113,-4.0113,-4.0113,-4.0113,-3.9901,-3.961,-3.8914,-3.8092,-3.748,-3.6973,-3.3124,-3.3124,-3.3124,-3.3124,-3.3124,-3.3124,-3.3124,-3.3124,-3.3124,-3.3124,-3.3124,-3.3124,-3.3124,-3.3124,-3.3124,-3.3124,-3.3124,-3.3124,-3.3124,-3.3124,-3.3167,-3.3386,-3.3742,-3.3513,-3.3827,-3.5129,-3.5088,-3.5102,-3.5641,-3.6554,-3.7434,-3.7829,-3.8833,-3.9388,-3.9388,-3.9388,-3.9388,-3.9388,-3.9388,-3.9388,-3.9388,-3.9388,-3.9388,-3.9388,-3.9388,-3.9388,-3.9388,-3.9388,-3.9388,-3.9388,-3.9388,-3.9388,-3.9388,-3.9388,-3.9388,-3.9388,-3.9388,-3.9388,-3.9388,-3.9388,-3.9388,-3.9388,-3.9388,-3.9388,-3.9388,-3.9388,-3.9388,-3.9388,-3.9388,-3.9388,-3.9388,-3.9388,-3.9388,-3.9388,-3.9388,-3.9388,-3.9388,-3.9388,-3.9388,-3.9388,-3.9388,-3.9388,-3.946,-3.9523,-3.9606,-3.9767,-4.0264,-4.0609,-4.0877,-4.1338,-4.1218,-4.0882,-4.073,-4.0646,-4.0316,-4.0113,-4.013,-4.013,-4.0113,-4.0113,-4.0113,-4.0113,-4.013,-4.013,-4.0113,-4.0113,-4.0113,-4.007,-4.0045,-3.961,-3.9139,-3.8513,-3.7892,-3.7168,-3.6612,-3.3124,-3.3124,-3.3124,-3.3124,-3.3124,-3.3124,-3.3124,-3.3124,-3.3124,-3.3124,-3.3124,-3.3124,-3.3124,-3.3124,-3.3124,-3.3124,-3.3124,-3.3124,-3.3124,-3.3124,-3.324,-3.3725,-3.4121,-3.3995,-3.4664,-3.6565,-3.6081,-3.6279,-3.7098,-3.7738,-3.8107,-3.7881,-3.8855,-3.9301,-3.9388,-3.9388,-3.9388,-3.9388,-3.9388,-3.9388,-3.9388,-3.9388,-3.9388,-3.9388,-3.9388,-3.9388,-3.9388,-3.9388,-3.9388,-3.9388,-3.9388,-3.9388,-3.9388,-3.9388,-3.9388,-3.9388,-3.9388,-3.9388,-3.9388,-3.9388,-3.9388,-3.9388,-3.9388,-3.9388,-3.9388,-3.9388,-3.9388,-3.9388,-3.9388,-3.9388,-3.9388,-3.9388,-3.9388,-3.9388,-3.9388,-3.9388,-3.9388,-3.9388,-3.9388,-3.9388,-3.9388,-3.9388,-3.9481,-3.9666,-3.9809,-3.9921,-4.0395,-4.1118,-4.1651,-4.2127,-4.1835,-4.1491,-4.1136,-4.1001,-4.0696,-4.0417,-4.0333,-4.0307,-4.0265,-4.0477,-4.0722,-4.046,-4.0231,-4.0214,-4.0299,-4.0113,-4.0113,-4.0045,-3.9944,-3.961,-3.9183,-3.8486,-3.7803,-3.6988,-3.6338,-3.3124,-3.3124,-3.3124,-3.3124,-3.3124,-3.3124,-3.3124,-3.3124,-3.3124,-3.3124,-3.3124,-3.3124,-3.3124,-3.3124,-3.3124,-3.3124,-3.3124,-3.3124,-3.3124,-3.3124,-3.3197,-3.3827,-3.4387,-3.4951,-3.5548,-3.7357,-3.7228,-3.7791,-3.8819,-3.8782,-3.8598,-3.8107,-3.898,-3.9301,-3.9388,-3.9388,-3.9388,-3.9388,-3.9388,-3.9388,-3.9388,-3.9388,-3.9388,-3.9388,-3.9388,-3.9388,-3.9388,-3.9388,-3.9388,-3.9388,-3.9388,-3.9388,-3.9388,-3.9388,-3.9388,-3.9388,-3.9388,-3.9388,-3.9388,-3.9388,-3.9388,-3.9388,-3.9388,-3.9388,-3.9388,-3.9388,-3.9388,-3.9388,-3.9388,-3.9484,-3.9469,-3.9388,-3.9403,-3.9574,-3.9574,-3.9388,-3.9388,-3.9388,-3.9388,-3.9388,-3.9526,-3.9736,-4.0102,-4.0403,-4.0272,-4.0342,-4.1354,-4.2113,-4.2605,-4.2964,-4.2564,-4.2151,-4.1644,-4.1373,-4.117,-4.1027,-4.0934,-4.0909,-4.0892,-4.1307,-4.1757,-4.1324,-4.0773,-4.0807,-4.0942,-4.0519,-4.0248,-4.0519,-4.0526,-3.9889,-3.9172,-3.8177,-3.7324,-3.6492,-3.6009,-3.2754,-3.3068,-3.3124,-3.3124,-3.3124,-3.3124,-3.3124,-3.3124,-3.3124,-3.3124,-3.3124,-3.3124,-3.3124,-3.3124,-3.3124,-3.3124,-3.3124,-3.3124,-3.3124,-3.3124,-3.324,-3.4095,-3.4856,-3.544,-3.6041,-3.8032,-3.8271,-3.8345,-3.9228,-3.9388,-3.9265,-3.9053,-3.9213,-3.9301,-3.9388,-3.9388,-3.9388,-3.9388,-3.9388,-3.9388,-3.9388,-3.9388,-3.9388,-3.9388,-3.9388,-3.9388,-3.9388,-3.9388,-3.9388,-3.9388,-3.9388,-3.9388,-3.9388,-3.9388,-3.9388,-3.9388,-3.9388,-3.9388,-3.9388,-3.9388,-3.9388,-3.9388,-3.9388,-3.9403,-3.9448,-3.9418,-3.9388,-3.9388,-3.9478,-3.9679,-3.9978,-3.9723,-3.9514,-3.9753,-3.9768,-3.9538,-3.9577,-3.9664,-3.99,-4.013,-4.0318,-4.0526,-4.0921,-4.1345,-4.1023,-4.0863,-4.2025,-4.3007,-4.3454,-4.3741,-4.3335,-4.2963,-4.2472,-4.21,-4.1897,-4.1704,-4.1536,-4.1545,-4.157,-4.1985,-4.2436,-4.2163,-4.1737,-4.1694,-4.1627,-4.139,-4.1305,-4.1433,-4.1124,-4.0447,-3.9083,-3.756,-3.6723,-3.6051,-3.5778,-3.2303,-3.2792,-3.2817,-3.293,-3.3111,-3.3124,-3.3124,-3.3124,-3.3124,-3.3124,-3.3124,-3.3124,-3.3124,-3.3124,-3.3124,-3.3124,-3.3124,-3.3124,-3.3124,-3.3124,-3.3313,-3.4374,-3.5305,-3.6013,-3.6632,-3.862,-3.887,-3.8833,-3.9352,-3.9388,-3.9337,-3.9301,-3.9388,-3.9388,-3.9388,-3.9388,-3.9388,-3.9388,-3.9388,-3.9388,-3.9388,-3.9388,-3.9388,-3.9388,-3.9388,-3.9388,-3.9388,-3.9388,-3.9388,-3.9388,-3.9388,-3.9388,-3.9388,-3.9388,-3.9388,-3.9388,-3.9388,-3.9388,-3.9388,-3.9388,-3.9388,-3.9388,-3.9388,-3.9493,-3.9649,-3.9738,-3.9858,-4.0127,-4.0098,-4.0187,-4.0651,-4.0412,-4.0292,-4.0576,-4.0113,-3.991,-4.0162,-4.035,-4.0658,-4.0961,-4.1151,-4.1299,-4.1625,-4.2013,-4.2172,-4.2079,-4.2936,-4.3735,-4.4028,-4.4242,-4.413,-4.3758,-4.3386,-4.3031,-4.2726,-4.2347,-4.2052,-4.2343,-4.2411,-4.262,-4.2857,-4.2651,-4.2574,-4.254,-4.2455,-4.2354,-4.2168,-4.1965,-4.155,-4.1053,-3.9593,-3.8128,-3.6753,-3.6159,-3.5847,-3.1725,-3.2202,-3.2227,-3.2541,-3.3036,-3.3068,-3.3124,-3.3124,-3.3124,-3.3124,-3.3124,-3.3124,-3.3124,-3.3124,-3.3124,-3.3124,-3.3124,-3.3124,-3.3124,-3.3124,-3.3167,-3.4374,-3.5494,-3.6316,-3.706,-3.8855,-3.9192,-3.9156,-3.9388,-3.9388,-3.9388,-3.9388,-3.9388,-3.9388,-3.9388,-3.9388,-3.9388,-3.9388,-3.9388,-3.9388,-3.9388,-3.9388,-3.9388,-3.9388,-3.9388,-3.9388,-3.9388,-3.9388,-3.9388,-3.9388,-3.9388,-3.9388,-3.9388,-3.9388,-3.9388,-3.9388,-3.9388,-3.9403,-3.9418,-3.9418,-3.9493,-3.9619,-3.9738,-3.9963,-4.0262,-4.0427,-4.0531,-4.0801,-4.104,-4.116,-4.1347,-4.1317,-4.1205,-4.1145,-4.0696,-4.0447,-4.0698,-4.0916,-4.1181,-4.1682,-4.1884,-4.2061,-4.2331,-4.267,-4.3096,-4.3456,-4.4095,-4.444,-4.457,-4.4564,-4.4479,-4.4316,-4.3944,-4.3758,-4.3369,-4.2811,-4.2644,-4.2955,-4.3226,-4.3434,-4.3457,-4.3295,-4.325,-4.3301,-4.3234,-4.3098,-4.2726,-4.2354,-4.1838,-4.1284,-4.0432,-3.9077,-3.7536,-3.6436,-3.6259,-3.1173,-3.1662,-3.1662,-3.1989,-3.2516,-3.2918,-3.3124,-3.3124,-3.3124,-3.3124,-3.3124,-3.3124,-3.3124,-3.3124,-3.3124,-3.3124,-3.3124,-3.3124,-3.3124,-3.3124,-3.3124,-3.4457,-3.5614,-3.6434,-3.7367,-3.8855,-3.9388,-3.9388,-3.9388,-3.9388,-3.9388,-3.9388,-3.9388,-3.9388,-3.9388,-3.9388,-3.9388,-3.9388,-3.9388,-3.9388,-3.9388,-3.9388,-3.9388,-3.9388,-3.9388,-3.9388,-3.9388,-3.9388,-3.9388,-3.9388,-3.9388,-3.9388,-3.9388,-3.9388,-3.9388,-3.9388,-3.9403,-3.9649,-3.9903,-4.0083,-4.0068,-4.0187,-4.0412,-4.0681,-4.1025,-4.104,-4.1205,-4.1354,-4.1549,-4.1683,-4.1931,-4.1534,-4.1474,-4.1826,-4.1557,-4.1197,-4.1232,-4.1367,-4.1657,-4.2343,-4.2719,-4.3207,-4.3552,-4.3444,-4.3738,-4.392,-4.4378,-4.4497,-4.457,-4.4598,-4.4547,-4.4547,-4.4367,-4.4282,-4.4012,-4.3538,-4.342,-4.3739,-4.3976,-4.4185,-4.4124,-4.3887,-4.3955,-4.3978,-4.391,-4.3809,-4.3455,-4.2965,-4.2166,-4.145,-4.0483,-3.9386,-3.7843,-3.7113,-3.7049,-3.0645,-3.111,-3.1135,-3.1436,-3.1976,-3.2541,-3.2867,-3.3086,-3.3124,-3.3124,-3.3124,-3.3124,-3.3124,-3.3124,-3.3124,-3.3124,-3.3124,-3.3124,-3.3124,-3.3124,-3.3124,-3.4415,-3.5614,-3.6395,-3.7482,-3.8855,-3.9388,-3.9388,-3.9388,-3.9388,-3.9388,-3.9388,-3.9388,-3.9388,-3.9388,-3.9388,-3.9388,-3.9388,-3.9388,-3.9388,-3.9388,-3.9388,-3.9388,-3.9388,-3.9388,-3.9388,-3.9388,-3.9388,-3.9388,-3.9388,-3.9388,-3.9388,-3.9388,-3.9388,-3.9388,-3.9388,-3.9433,-3.9768,-4.0172,-4.0681,-4.0801,-4.1145,-4.1354,-4.1512,-4.1692,-4.1767,-4.1908,-4.2028,-4.1968,-4.2222,-4.2462,-4.2043,-4.2147,-4.2476,-4.2293,-4.1918,-4.2269,-4.2468,-4.2726,-4.3379,-4.3879,-4.4336,-4.4446,-4.4423,-4.4373,-4.4463,-4.4598,-4.4598,-4.4598,-4.4598,-4.4598,-4.4598,-4.4598,-4.4496,-4.4462,-4.4361,-4.4344,-4.4547,-4.4598,-4.4598,-4.4547,-4.4293,-4.4479,-4.4598,-4.4378,-4.4176,-4.413,-4.361,-4.2372,-4.1324,-4.0391,-3.9234,-3.7988,-3.7769,-3.7764,-3.0105,-3.0557,-3.0595,-3.0896,-3.1411,-3.1964,-3.2516,-3.3099,-3.3124,-3.3124,-3.3124,-3.3124,-3.3124,-3.3124,-3.3124,-3.3124,-3.324,-3.324,-3.3313,-3.3398,-3.367,-3.4911,-3.5854,-3.6565,-3.7724,-3.8819,-3.9388,-3.9388,-3.9388,-3.9388,-3.9388,-3.9388,-3.9388,-3.9388,-3.9388,-3.9388,-3.9388,-3.9388,-3.9388,-3.9388,-3.9388,-3.9388,-3.9388,-3.9388,-3.9388,-3.9388,-3.9388,-3.9388,-3.9388,-3.9388,-3.9388,-3.9388,-3.9388,-3.9388,-3.9388,-3.9388,-3.9403,-3.9933,-4.0502,-4.107,-4.1698,-4.2028,-4.1848,-4.1968,-4.2177,-4.2417,-4.2566,-4.2806,-4.2856,-4.3021,-4.3125,-4.308,-4.3035,-4.3034,-4.2866,-4.3054,-4.3565,-4.3894,-4.4166,-4.462,-4.5043,-4.5204,-4.4666,-4.4598,-4.4666,-4.4598,-4.4598,-4.4598,-4.4598,-4.4598,-4.4598,-4.4598,-4.4598,-4.4598,-4.4598,-4.4598,-4.4598,-4.4598,-4.4598,-4.4598,-4.4598,-4.4598,-4.4598,-4.4598,-4.4598,-4.4338,-4.3693,-4.2953,-4.2125,-4.1119,-4.0086,-3.9561,-3.8495,-3.8426,-3.8336,-2.988,-3.003,-3.003,-3.0344,-3.0884,-3.1411,-3.2177,-3.3048,-3.3124,-3.3124,-3.3124,-3.3124,-3.3124,-3.3124,-3.3124,-3.3124,-3.3398,-3.3784,-3.415,-3.4374,-3.4761,-3.6067,-3.6866,-3.7343,-3.8256,-3.8943,-3.9388,-3.9388,-3.9388,-3.9388,-3.9388,-3.9388,-3.9388,-3.9388,-3.9388,-3.9388,-3.9388,-3.9388,-3.9388,-3.9388,-3.9388,-3.9388,-3.9388,-3.9388,-3.9388,-3.9388,-3.9388,-3.9388,-3.9388,-3.9388,-3.9388,-3.9388,-3.9388,-3.9388,-3.9388,-3.9448,-3.9843,-4.0412,-4.107,-4.1752,-4.2327,-4.2806,-4.2761,-4.2851,-4.3015,-4.303,-4.3105,-4.3215,-4.3305,-4.3305,-4.3409,-4.3448,-4.3527,-4.3464,-4.3563,-4.4214,-4.471,-4.5176,-4.5473,-4.5706,-4.6139,-4.5515,-4.4959,-4.475,-4.4801,-4.4666,-4.4598,-4.4598,-4.4598,-4.4598,-4.4598,-4.4598,-4.4598,-4.4598,-4.4598,-4.4598,-4.4598,-4.4598,-4.4598,-4.4598,-4.4598,-4.4598,-4.4598,-4.4598,-4.4598,-4.3798,-4.2707,-4.2157,-4.1869,-4.0653,-3.9621,-3.9391,-3.9167,-3.9029,-3.894,-2.9779,-2.9779,-2.9779,-3.0118,-3.062,-3.0959,-3.1625,-3.2395,-3.2671,-3.283,-3.3111,-3.3124,-3.3124,-3.3124,-3.3111,-3.3356,-3.3839,-3.4317,-3.4787,-3.5467,-3.6013,-3.6749,-3.7434,-3.7919,-3.8435,-3.9031,-3.9388,-3.9388,-3.9388,-3.9388,-3.9388,-3.9388,-3.9388,-3.9388,-3.9388,-3.9388,-3.9388,-3.9388,-3.9388,-3.9388,-3.9388,-3.9388,-3.9388,-3.9388,-3.9388,-3.9388,-3.9388,-3.9388,-3.9388,-3.9388,-3.9388,-3.9388,-3.9388,-3.9388,-3.9388,-3.9493,-4.0008,-4.0621,-4.1265,-4.1976,-4.2626,-4.312,-4.3305,-4.326,-4.3245,-4.3215,-4.3245,-4.3305,-4.3305,-4.3344,-4.3488,-4.3645,-4.3771,-4.3897,-4.4577,-4.5306,-4.5856,-4.6376,-4.6635,-4.6849,-4.6532,-4.5857,-4.5415,-4.519,-4.4886,-4.4699,-4.4598,-4.4598,-4.4598,-4.4598,-4.4598,-4.4598,-4.4598,-4.4598,-4.4598,-4.4598,-4.4598,-4.4598,-4.4598,-4.4598,-4.4598,-4.4598,-4.4598,-4.4598,-4.4598,-4.3798,-4.3092,-4.2284,-4.1739,-4.0585,-3.9681,-3.9394,-3.9307,-3.9284,-3.9254,-2.9779,-2.9779,-2.9792,-3.0068,-3.052,-3.0557,-3.0871,-3.1348,-3.1851,-3.2416,-3.2893,-3.3099,-3.3197,-3.3441,-3.3484,-3.4024,-3.4664,-3.5264,-3.5815,-3.6369,-3.6838,-3.7458,-3.7904,-3.8032,-3.8708,-3.9177,-3.9388,-3.9388,-3.9388,-3.9388,-3.9388,-3.9388,-3.9388,-3.9388,-3.9388,-3.9388,-3.9388,-3.9388,-3.9388,-3.9388,-3.9388,-3.9388,-3.9388,-3.9388,-3.9388,-3.9388,-3.9388,-3.9388,-3.9388,-3.9388,-3.9388,-3.9388,-3.9388,-3.9388,-3.9388,-3.9687,-4.0187,-4.0771,-4.1459,-4.2171,-4.2731,-4.311,-4.3305,-4.3305,-4.3305,-4.3305,-4.3305,-4.3448,-4.3472,-4.3732,-4.3927,-4.4495,-4.4818,-4.5085,-4.5654,-4.6119,-4.6512,-4.7094,-4.7515,-4.7572,-4.7188,-4.6532,-4.6007,-4.5754,-4.5483,-4.5038,-4.4801,-4.4818,-4.4598,-4.4598,-4.4598,-4.4598,-4.4598,-4.4598,-4.4598,-4.4598,-4.4598,-4.4598,-4.4598,-4.4598,-4.4598,-4.4598,-4.4598,-4.4598,-4.457,-4.444,-4.3856,-4.2831,-4.1869,-4.1147,-4.0309,-3.961,-3.9388,-3.9388,-3.9388,-2.9779,-2.9779,-2.9779,-2.988,-2.998,-2.998,-3.0346,-3.0796,-3.0934,-3.1549,-3.2365,-3.2915,-3.353,-3.4072,-3.4178,-3.4774,-3.5748,-3.6397,-3.7088,-3.7625,-3.8003,-3.8242,-3.8855,-3.8833,-3.9141,-3.9265,-3.9388,-3.9388,-3.9388,-3.9388,-3.9388,-3.9388,-3.9388,-3.9388,-3.9388,-3.9388,-3.9388,-3.9388,-3.9388,-3.9388,-3.9388,-3.9388,-3.9388,-3.9388,-3.9388,-3.9388,-3.9388,-3.9388,-3.9388,-3.9388,-3.9388,-3.9388,-3.9388,-3.9388,-3.9388,-3.9582,-4.0472,-4.1085,-4.1654,-4.2357,-4.3045,-4.317,-4.3305,-4.3305,-4.3305,-4.3305,-4.3409,-4.3591,-4.3795,-4.4143,-4.4646,-4.5322,-4.5905,-4.626,-4.6678,-4.6986,-4.7256,-4.7768,-4.8334,-4.8104,-4.777,-4.731,-4.6752,-4.6363,-4.6075,-4.5805,-4.5551,-4.5314,-4.4784,-4.4598,-4.4598,-4.4598,-4.4598,-4.4598,-4.4598,-4.4598,-4.4598,-4.4598,-4.4598,-4.4598,-4.4598,-4.4598,-4.4598,-4.4598,-4.457,-4.444,-4.3931,-4.2769,-4.1901,-4.1412,-4.0466,-3.9574,-3.9388,-3.9388,-3.9388,-3.0177,-2.9818,-2.9779,-3.0037,-3.0381,-3.0419,-3.0611,-3.0894,-3.1099,-3.1296,-3.1574,-3.2361,-3.3328,-3.4319,-3.4573,-3.5695,-3.6774,-3.742,-3.7979,-3.8583,-3.8943,-3.9177,-3.9388,-3.9388,-3.9352,-3.9388,-3.9388,-3.9388,-3.9388,-3.9388,-3.9388,-3.9388,-3.9388,-3.9388,-3.9388,-3.9388,-3.9388,-3.9388,-3.9388,-3.9388,-3.9388,-3.9388,-3.9388,-3.9388,-3.9388,-3.9388,-3.9388,-3.9388,-3.9388,-3.9388,-3.9388,-3.9388,-3.9388,-3.9388,-3.9604,-4.0038,-4.0741,-4.1542,-4.1983,-4.2626,-4.3275,-4.3305,-4.3305,-4.3305,-4.3305,-4.3344,-4.3747,-4.395,-4.4282,-4.4624,-4.5488,-4.6224,-4.6678,-4.707,-4.7638,-4.8129,-4.8225,-4.8461,-4.8692,-4.8619,-4.8325,-4.8071,-4.7581,-4.7276,-4.6836,-4.5838,-4.5703,-4.5449,-4.4959,-4.4716,-4.4682,-4.4598,-4.4598,-4.4598,-4.4598,-4.4598,-4.4598,-4.4598,-4.4598,-4.4598,-4.4598,-4.4598,-4.4598,-4.4598,-4.457,-4.4468,-4.3798,-4.2754,-4.2157,-4.1707,-4.0603,-3.9424,-3.9388,-3.9388,-3.9388,-3.0908,-3.0216,-3.0177,-3.0633,-3.1328,-3.1389,-3.1402,-3.1445,-3.1845,-3.1627,-3.124,-3.2094,-3.2951,-3.3911,-3.4888,-3.6417,-3.7563,-3.8107,-3.8745,-3.9053,-3.9301,-3.9388,-3.9388,-3.9388,-3.9388,-3.9388,-3.9388,-3.9388,-3.9388,-3.9388,-3.9388,-3.9388,-3.9388,-3.9388,-3.9388,-3.9388,-3.9388,-3.9388,-3.9388,-3.9388,-3.9388,-3.9388,-3.9388,-3.9388,-3.9388,-3.9388,-3.9388,-3.9388,-3.9388,-3.9388,-3.9388,-3.9388,-3.9388,-3.9403,-3.9828,-4.0277,-4.0905,-4.1662,-4.2291,-4.2895,-4.3185,-4.3305,-4.3305,-4.3305,-4.3344,-4.3512,-4.3927,-4.4608,-4.4946,-4.5468,-4.633,-4.707,-4.7489,-4.7803,-4.8482,-4.894,-4.894,-4.897,-4.8937,-4.8934,-4.8781,-4.8578,-4.8376,-4.8058,-4.7365,-4.6346,-4.5754,-4.5348,-4.5094,-4.5021,-4.497,-4.475,-4.4598,-4.4598,-4.4598,-4.4598,-4.4598,-4.4598,-4.4598,-4.4598,-4.4598,-4.4598,-4.4598,-4.4598,-4.4542,-4.4384,-4.3798,-4.2847,-4.2347,-4.1723,-4.055,-3.9424,-3.9388,-3.9388,-3.9388,-3.2249,-3.2083,-3.2083,-3.2177,-3.2321,-3.2307,-3.2307,-3.2321,-3.2431,-3.2355,-3.2343,-3.2881,-3.3854,-3.5176,-3.6638,-3.7904,-3.8598,-3.8907,-3.9031,-3.9352,-3.9388,-3.9388,-3.9388,-3.9388,-3.9388,-3.9388,-3.9388,-3.9388,-3.9388,-3.9388,-3.9388,-3.9388,-3.9388,-3.9388,-3.9388,-3.9388,-3.9388,-3.9388,-3.9388,-3.9388,-3.9388,-3.9388,-3.9388,-3.9388,-3.9388,-3.9388,-3.9388,-3.9388,-3.9388,-3.9388,-3.9388,-3.9388,-3.9388,-3.9448,-3.9843,-4.0472,-4.1115,-4.1743,-4.2417,-4.3015,-4.3245,-4.3305,-4.3344,-4.3369,-4.3409,-4.3512,-4.4305,-4.5654,-4.6083,-4.6451,-4.7239,-4.8047,-4.8545,-4.8545,-4.894,-4.897,-4.9001,-4.9001,-4.9001,-4.8984,-4.8934,-4.8849,-4.8815,-4.8545,-4.8261,-4.7496,-4.7175,-4.6684,-4.55,-4.5348,-4.5229,-4.4919,-4.4615,-4.4598,-4.4598,-4.4598,-4.4598,-4.4598,-4.4598,-4.4598,-4.4598,-4.4598,-4.4598,-4.4598,-4.4412,-4.4224,-4.3515,-4.2724,-4.1885,-4.1147,-4.0185,-3.9409,-3.9424,-3.9388,-3.9388]}]]